     2              OBSERVATION DATA    GPS                 RINEX VERSION / TYPE
teqc 1999Jul19 19991123 02:57:50UTC                         PGM / RUN BY / DATE
                                                            COMMENT
Original Marker Name: 0311                                  COMMENT
Campaign Name: HPGN 1991                                    COMMENT
4-Character Station Name: 0311                              COMMENT
6-Character Antenna Code: TRMSST                            COMMENT
Vertical Measurement Point: TGP                             COMMENT
Vertical Offset to Rinex Ref. Point: 0.0629                 COMMENT
Radial Measurement Point: OGP                               COMMENT
Radial Offset to Rinex Ref. Point: 0.2413                   COMMENT
Antenna Height from Field Measurement: 1.5640 m             COMMENT
                                                            COMMENT
Original XYZ: -2489643.8934 -4298379.6744 3990420.3181      COMMENT
New XYZ position is based on association with SCEC monument COMMENT
E1O5C6Z2+0011. Position of that monument is believed to be  COMMENT
valid to within 1 m horizontally; vertical accuracy         COMMENT
should be no worse than 3-times this value.                 COMMENT
                                                            COMMENT
Revised Rinex header created by UCSD GPS archive for        COMMENT
GSAC on 10-Mar-2000 (2000:070) 05:00:22 GMT                 COMMENT
For assistance contact dagnew@ucsd.edu or hjohnson@ucsd.edu COMMENT
                                                            COMMENT
EAGLE                                                       MARKER NAME
0311                                                        MARKER NUMBER
-Unknown- CALIF DEPT TRANSPORTATION                         OBSERVER / AGENCY
282 TRIMBLE 4000 SST NP 4.30 / SP 4.20                      REC # / TYPE / VERS
136 TR 4000SST L1/L2 GEO                                    ANT # / TYPE
 -2489648.5587 -4298382.2111  3990419.9129                  APPROX POSITION XYZ
        1.4824        0.0000        0.0000                  ANTENNA: DELTA H/E/N
     1     1     0                                          WAVELENGTH FACT L1/2
     5    C1    L1    L2    S1    S2                        # / TYPES OF OBSERV
     0                                                      INTERVAL
  1991     5    28    17    21   15.000000                  TIME OF FIRST OBS
  1991     5    28    23    23   60.000000                  TIME OF LAST OBS
                                                            END OF HEADER
 91  5 28 17 21 15.0000000  0  3G18G11G19
  20537623.102          -0.21018        -0.38832        28.250           2.469
  24203536.375          -0.72715        -0.07731        10.750           0.438
  20598001.242          -0.36717        -0.09532        20.000           1.688
 91  5 28 17 21 30.0000000  0  3G18G11G19
  20540857.094       16997.627 8     13244.67322        28.000           2.344
  24195719.141      -41081.628 5    -32011.10621        11.500           0.500
  20596814.578       -6240.535 6     -4862.55822        19.500           1.781
 91  5 28 17 21 45.0000000  0  4G18G11G19G 2
  20544103.047       34050.333 8     26532.49123        28.500           2.500
  24187905.164      -82148.329 5    -64011.08521        11.750           0.500
  20595626.992      -12477.663 7     -9722.65422        20.000           1.719
  24289866.031          -0.54415                         9.500
 91  5 28 17 22  0.0000000  0  4G18G11G19G 2
  20547359.867       51164.202 8     39867.96923        28.250           2.563
  24180092.766     -123194.058 5    -95994.70821        11.750           0.500
  20594444.078      -18705.203 6    -14575.28022        19.500           1.750
  24279833.148      -52725.457 5                         9.750
 91  5 28 17 22 15.0000000  0  4G18G11G19G 2
  20550630.891       68355.225 8     53263.56923        28.250           2.531
  24172287.695     -164202.378 5   -127949.20421        11.750           0.438
  20593261.805      -24907.079 7    -19407.90622        20.000           1.844
  24269797.000     -105452.723 5                        10.000
 91  5 28 17 22 30.0000000  0  4G18G11G19G 2
  20553920.898       85640.923 8     66732.93623        28.750           2.563
  24164497.633     -205155.558 6   -159860.71021        12.000           0.469
  20592088.461      -31066.109 6    -24207.14822        19.750           1.781
  24259767.000     -158164.827 5                        10.250
 91  5 28 17 22 45.0000000  0  4G18G11G19G 2
  20557228.117      103020.077 8     80275.13023        29.250           2.531
  24156714.719     -246054.108 6   -191729.65521        12.000           0.375
  20590925.117      -37183.480 6    -28973.92222        19.500           1.781
  24249738.258     -210862.533 5                         9.750
 91  5 28 17 23  0.0000000  0  4G18G11G19G 2
  20560555.719      120510.601 8     93904.10523        29.500           2.563
  24148944.039     -286879.963 6   -223541.96721        12.500           0.469
  20589774.398      -43241.368 6    -33694.34422        18.750           1.781
  24239715.922     -263528.021 5        -0.13631        10.000           0.313
 91  5 28 17 23 15.0000000  0  4G18G11G19G 2
  20563900.297      138083.927 8    107597.60023        29.000           2.531
  24141183.328     -327661.164 6   -255319.48121        12.000           0.469
  20588626.117      -49268.187 6    -38390.56522        19.500           1.844
  24229694.492     -316189.478 5    -41034.97121        10.000           0.406
 91  5 28 17 23 30.0000000  0  4G18G11G19G 2
  20567263.617      155762.083 8    121372.78622        28.250           2.469
  24133434.477     -368375.131 5   -287044.59121        11.000           0.500
  20587488.789      -55241.937 7    -43045.43522        20.250           1.813
  24219678.867     -368824.504 5    -82049.19721        10.000           0.281
 91  5 28 17 23 45.0000000  0  4G18G11G19G 2
  20570647.859      173545.641 8    135230.09623        28.500           2.563
  24125701.305     -409020.955 5   -318716.59921        11.250           0.438
  20586362.141      -61162.060 7    -47658.51422        20.000           1.844
  24209668.094     -421432.356 5   -123042.25221        10.000           0.406
 91  5 28 17 24  0.0000000  0  4G18G11G19G 2
  20574051.242      191427.777 8    149164.22523        29.000           2.563
  24117979.266     -449605.029 5   -350340.49421        11.250           0.531
  20585245.570      -67035.510 6    -52235.22722        19.000           1.844
  24199659.617     -474019.562 5   -164019.21321        10.250           0.344
 91  5 28 17 24 15.0000000  0  4G18G11G19G 2
  20577472.016      209406.962 8    163173.97223        28.750           2.625
  24110269.023     -490128.174 5   -381916.91321        11.500           0.406
  20584135.578      -72863.600 6    -56776.58622        19.500           1.750
  24189658.656     -526587.374 5   -204981.07621        10.750           0.344
 91  5 28 17 24 30.0000000  0  4G18G11G19G 2
  20580914.297      227494.762 8    177268.35922        29.000           2.469
  24102569.602     -530578.737 5   -413436.77021        11.250           0.531
  20583035.563      -78635.073 6    -61273.83322        19.750           1.719
  24179660.313     -579124.282 5   -245918.85021        10.250           0.313
 91  5 28 17 24 45.0000000  0  4G18G11G19G 2
  20584375.875      245684.059 8    191441.83423        28.500           2.500
  24094886.648     -570962.904 6   -444904.88921        12.000           0.563
  20581948.945      -84356.422 7    -65732.02822        20.000           1.656
  24169668.094     -631636.659 5   -286837.50421        10.500           0.375
 91  5 28 17 25  0.0000000  0  4G18G11G19G 2
  20587856.477      263973.137 8    205693.06222        28.250           2.406
  24087213.680     -611282.308 5   -476322.54321        11.750           0.531
  20580870.094      -90029.889 7    -70152.91822        20.250           1.625
  24159677.008     -684126.338 5   -327738.48221        10.000           0.438
 91  5 28 17 25 15.0000000  0  4G18G11G19G 2
  20591356.438      282367.983 8    220026.70322        28.750           2.375
  24079555.484     -651530.423 6   -507684.65121        12.500           0.625
  20579799.742      -95649.269 7    -74531.64722        20.000           1.563
  24149694.508     -736587.107 5   -368616.91621        10.250           0.438
 91  5 28 17 25 30.0000000  0  4G18G11G19G 2
  20594875.961      300862.695 8    234438.16122        28.500           2.344
  24071907.344     -691712.669 6   -538995.43321        13.000           0.563
  20578739.555     -101220.466 7    -78872.84122        20.000           1.594
  24139717.813     -789024.605 5   -409477.22921        10.500           0.406
 91  5 28 17 25 45.0000000  0  4G18G11G19G 2
  20598414.133      319459.158 8    248928.90822        28.250           2.375
  24064275.656     -731826.896 6   -570253.22221        13.250           0.594
  20577689.125     -106741.763 7    -83175.14822        20.000           1.625
  24129743.641     -841436.717 5   -450317.76321        10.750           0.375
 91  5 28 17 26  0.0000000  0  4G18G11G19G 2
  20601970.555      338142.468 8    263487.32222        28.500           2.250
  24056650.398     -771887.418 6   -601469.17321        13.000           0.469
  20576642.664     -112227.830 7    -87450.00322        20.250           1.531
  24119770.852     -893838.010 5   -491149.85321        11.000           0.500
 91  5 28 17 26 15.0000000  0  4G18G11G19G 2
  20605543.336      356924.511 8    278122.67722        28.250           2.313
  24049039.766     -811882.102 6   -632633.80921        13.500           0.406
  20575609.742     -117667.034 6    -91688.33721        19.250           1.438
  24109804.578     -946216.590 5   -531964.24921        11.250           0.469
 91  5 28 17 26 30.0000000  0  4G18G11G19G 2
  20609137.844      375807.977 8    292837.05722        28.750           2.344
  24041442.977     -851807.595 6   -663744.52421        13.500           0.406
  20574583.266     -123056.426 7    -95887.86122        20.000           1.563
  24099841.719     -998569.387 5   -572758.54721        11.500           0.469
 91  5 28 17 26 45.0000000  0  5G18G16G11G19G 2
  20612748.906      394784.782 8    307624.17222        29.250           2.281
  24194522.180          -0.67414                         7.250
  24033856.148     -891671.618 6   -694807.36021        12.750           0.406
  20573566.945     -128404.076 6   -100054.85622        19.750           1.656
  24089881.781    -1050904.265 6   -613538.88521        12.000           0.406
 91  5 28 17 27  0.0000000  0  5G18G16G11G19G 2
  20616379.227      413863.662 8    322490.82922        28.500           2.438
  24187792.688      -35345.362 5                         7.500
  24026283.484     -931464.891 6   -725815.05421        12.750           0.438
  20572557.633     -133701.216 6   -104182.49722        19.500           1.719
  24079929.141    -1103212.185 6   -654298.23321        13.250           0.625
 91  5 28 17 27 15.0000000  0  5G18G16G11G19G 2
  20620029.180      433044.185 8    337436.68123        28.250           2.500
  24181079.617      -70589.450 4                         6.500
  24018724.375     -971187.429 6   -756767.62521        13.000           0.469
  20571560.500     -138948.303 6   -108271.13322        19.750           1.688
  24069980.664    -1155493.419 6   -695036.80121        13.750           0.625
 91  5 28 17 27 30.0000000  0  5G18G16G11G19G 2
  20623697.867      452326.515 7    352461.86422        27.500           2.469
  24174403.039     -105732.400 5                         8.500
  24011179.289    -1010838.500 6   -787664.51921        13.250           0.500
  20570571.750     -144145.127 7   -112320.60222        20.000           1.750
  24060037.055    -1207747.463 6   -735754.15221        14.250           0.500
 91  5 28 17 27 45.0000000  0  5G18G16G11G19G 2
  20627388.266      471713.655 7    367568.72323        27.750           2.625
  24167729.242     -140771.088 5                         7.500
  24003649.984    -1050414.843 6   -818503.16621        13.750           0.438
  20569592.930     -149288.773 6   -116328.63122        19.500           1.719
  24050099.109    -1259971.218 6   -776447.91521        14.250           0.500
 91  5 28 17 28  0.0000000  0  5G18G16G11G19G 2
  20631096.852      491205.596 8    382757.24023        28.000           2.563
  24161085.094     -175705.321 5        -0.21231         8.000           0.219
  23996130.625    -1089915.967 6   -849283.22021        13.250           0.500
  20568625.133     -154379.113 6   -120295.12422        19.000           1.750
  24040166.672    -1312164.421 6   -817117.86621        14.250           0.594
 91  5 28 17 28 15.0000000  0  5G18G16G11G19G 2
  20634827.289      510801.725 8    398026.94623        28.000           2.531
  24154459.523     -210535.089 5    -27140.22021         8.750           0.156
  23988627.461    -1129342.010 6   -880004.75921        13.250           0.531
  20567665.273     -159416.538 6   -124220.38522        19.250           1.688
  24030240.977    -1364327.218 6   -857764.13221        14.500           0.563
 91  5 28 17 28 30.0000000  0  5G18G16G11G19G 2
  20638575.086      530501.484 7    413377.40123        27.500           2.594
  24147849.406     -245260.592 5    -54199.05621         7.750           0.188
  23981141.031    -1168693.200 6   -910667.95921        13.250           0.500
  20566716.094     -164401.836 6   -128105.02922        19.750           1.688
  24020320.734    -1416460.099 6   -898387.08621        14.500           0.531
 91  5 28 17 28 45.0000000  0  5G18G16G11G19G 2
  20642342.867      550303.718 7    428807.69823        27.250           2.531
  24141261.141     -279882.620 5    -81177.20421         7.500           0.250
  23973666.586    -1207969.939 6   -941273.16221        13.750           0.500
  20565777.719     -169335.958 6   -131949.79122        19.500           1.688
  24010404.320    -1468563.711 6   -938987.22721        14.250           0.531
 91  5 28 17 29  0.0000000  0  5G18G16G11G19G 2
  20646131.078      570209.872 7    444318.97623        27.750           2.594
  24134688.344     -314399.372 4   -108073.35221         6.750           0.219
  23966207.633    -1247170.404 6   -971818.92321        13.500           0.500
  20564849.148     -174217.528 6   -135753.61122        19.500           1.750
  24000496.367    -1520636.346 6   -979563.22821        14.000           0.469
 91  5 28 17 29 15.0000000  0  5G18G16G11G19G 2
  20649939.508      590222.548 8    459913.26223        28.000           2.656
  24128141.359     -348808.244 4   -134885.41721         7.000           0.250
  23958761.969    -1286291.904 6  -1002303.16621        13.500           0.594
  20563930.328     -179044.194 6   -139514.64322        19.250           1.625
  23990591.813    -1572675.643 6  -1020113.25921        14.000           0.438
 91  5 28 17 29 30.0000000  0  5G18G16G11G19G 2
  20653767.898      610339.237 8    475588.59323        28.250           2.688
  24121614.977     -383111.880 4   -161615.51121         7.000           0.250
  23951333.953    -1325336.390 6  -1032727.38621        14.500           0.500
  20563021.453     -183818.265 6   -143234.69722        19.250           1.688
  23980696.234    -1624683.737 6  -1060638.97321        13.500           0.500
 91  5 28 17 29 45.0000000  0  5G18G16G11G19G 2
  20657615.070      630558.084 8    491343.53323        28.250           2.750
  24115106.438     -417311.377 4   -188264.43321         7.250           0.250
  23943916.195    -1364305.113 6  -1063092.58921        13.250           0.563
  20562122.375     -188541.467 6   -146915.10122        19.250           1.563
  23970804.969    -1676662.067 6  -1101141.50321        13.250           0.469
 91  5 28 17 30  0.0000000  0  5G18G16G11G19G 2
  20661482.227      650882.252 8    507180.53423        28.000           2.750
  24108620.422     -451402.937 4   -214829.26921         7.000           0.281
  23936516.492    -1403194.441 6  -1093395.90321        13.750           0.531
  20561234.289     -193210.544 6   -150553.34022        19.500           1.656
  23960920.523    -1728607.183 6  -1141618.14521        12.750           0.438
 91  5 28 17 30 15.0000000  0  5G18G16G11G19G 2
  20665370.367      671314.235 8    523101.54623        28.000           2.625
  24102151.742     -485384.116 4   -241308.04021         7.250           0.219
  23929130.633    -1442001.535 6  -1123635.15821        13.250           0.625
  20560358.125     -197823.221 6   -154147.63522        19.500           1.594
  23951040.422    -1780516.580 6  -1182066.95421        12.500           0.531
 91  5 28 17 30 30.0000000  0  5G18G16G11G19G 2
  20669278.781      691850.383 8    539103.73223        28.000           2.500
  24095710.469     -519258.018 4   -267703.28121         7.000           0.250
  23921761.781    -1480729.391 6  -1153812.64421        13.750           0.531
  20559489.336     -202382.820 6   -157700.56722        18.500           1.656
  23941169.227    -1832393.376 6  -1222490.35721        12.250           0.531
 91  5 28 17 30 45.0000000  0  5G18G16G11G19G 2
  20673207.422      712493.281 8    555189.09622        28.000           2.438
  24089284.117     -553021.891 5   -294012.76321         7.500           0.281
  23914408.742    -1519375.023 6  -1183926.07921        14.000           0.656
  20558632.203     -206886.917 6   -161210.25222        19.000           1.531
  23931303.563    -1884234.874 6  -1262886.25321        12.000           0.563
 91  5 28 17 31  0.0000000  0  5G18G16G11G19G 2
  20677155.680      733241.648 8    571356.64723        28.000           2.594
  24082881.047     -586677.047 4   -320237.51121         7.250           0.219
  23907068.445    -1557939.417 6  -1213976.20021        14.250           0.656
  20557783.578     -211336.799 6   -164677.68922        19.750           1.688
  23921445.734    -1936042.215 6  -1303255.53321        12.250           0.563
 91  5 28 17 31 15.0000000  0  5G18G16G11G19G 2
  20681123.875      754097.226 8    587607.74523        28.250           2.625
  24076494.336     -620221.060 4   -346375.69021         7.250           0.281
  23899747.195    -1596420.407 6  -1243961.33821        14.750           0.500
  20556948.102     -215730.634 6   -168101.45422        18.500           1.594
  23911592.625    -1987813.307 5  -1343596.55321        11.750           0.563
 91  5 28 17 31 30.0000000  0  5G18G16G11G19G 2
  20685113.164      775057.287 7    603940.25123        27.750           2.625
  24070137.211     -653656.567 5   -372429.29721         7.750           0.281
  23892439.492    -1634820.042 6  -1273883.09221        15.000           0.469
  20556121.430     -220071.107 6   -171483.63822        19.250           1.688
  23901747.766    -2039550.565 6  -1383911.22921        12.250           0.656
 91  5 28 17 31 45.0000000  0  5G18G16G11G19G 2
  20689121.234      796124.557 7    620356.29623        27.250           2.500
  24063789.914     -686980.344 4   -398395.85421         7.000           0.313
  23885147.750    -1673135.236 6  -1303739.05021        15.250           0.594
  20555307.898     -224355.394 6   -174822.04022        19.000           1.688
  23891909.609    -2091251.080 6  -1424197.25521        12.500           0.594
 91  5 28 17 32  0.0000000  0  5G18G16G11G19G 2
  20693149.914      817298.409 7    636855.38923        27.000           2.594
  24057471.984     -720192.919 5   -424275.72921         7.750           0.281
  23877873.977    -1711366.212 6  -1333529.38021        15.000           0.531
  20554502.734     -228584.093 6   -178117.12822        19.500           1.563
  23882079.406    -2142915.176 6  -1464454.91821        13.250           0.656
 91  5 28 17 32 15.0000000  0  5G18G16G11G19G 2
  20697199.195      838576.940 7    653436.04823        26.750           2.656
  24051168.758     -753295.867 4   -450070.22121         7.250           0.281
  23870613.844    -1749514.318 6  -1363255.13421        14.500           0.625
  20553709.195     -232759.189 6   -181370.44922        19.500           1.625
  23872254.250    -2194544.485 6  -1504685.47021        13.750           0.594
 91  5 28 17 32 30.0000000  0  5G18G16G11G19G 2
  20701269.938      859964.215 7    670101.44923        27.000           2.813
  24044897.586     -786284.682 5   -475775.76421         8.250           0.281
  23863371.305    -1787575.060 6  -1392912.80021        14.250           0.625
  20552925.758     -236876.347 7   -184578.62622        20.000           1.656
  23862436.164    -2246134.673 6  -1544885.53421        14.000           0.594
 91  5 28 17 32 45.0000000  0  5G18G16G11G19G 2
  20705360.766      881463.335 7    686853.99623        27.000           2.750
  24038640.391     -819155.870 5   -501389.65021         8.250           0.281
  23856144.492    -1825545.023 6  -1422499.73321        14.250           0.625
  20552154.359     -240932.672 6   -187739.39622        19.500           1.656
  23852628.086    -2297682.383 6  -1585052.51221        14.500           0.563
 91  5 28 17 33  0.0000000  0  5G18G16G11G19G 2
  20709473.031      903067.826 7    703688.64523        27.500           2.813
  24032409.547     -851915.848 5   -526916.88921         8.500           0.250
  23848936.086    -1863430.129 6  -1452020.55721        13.750           0.719
  20551391.523     -244934.611 7   -190857.78722        20.000           1.625
  23842827.719    -2349194.002 6  -1625191.36421        14.750           0.656
 91  5 28 17 33 15.0000000  0  5G18G16G11G19G 2
  20713603.766      924774.858 7    720603.20423        27.500           2.719
  24026193.289     -884567.042 5   -552359.35821         8.500           0.250
  23841741.453    -1901232.603 6  -1481476.98021        13.750           0.625
  20550642.172     -248884.658 6   -193935.74422        19.750           1.688
  23833030.133    -2400671.919 6  -1665303.95921        14.750           0.563
 91  5 28 17 33 30.0000000  0  5G18G16G11G19G 2
  20717753.406      946584.665 7    737597.85023        27.750           2.656
  24020001.977     -917108.857 5   -577716.57721         8.500           0.156
  23834563.414    -1938951.965 6  -1510868.64021        13.500           0.625
  20549898.672     -252782.654 6   -196973.14522        19.750           1.719
  23823238.344    -2452115.793 6  -1705390.03421        14.000           0.594
 91  5 28 17 33 45.0000000  0  5G18G16G11G19G 2
  20721924.805      968503.161 7    754677.18623        27.750           2.719
  24013833.297     -949534.909 5   -602983.62721         8.750           0.219
  23827402.992    -1976581.564 6  -1540190.36421        13.750           0.625
  20549169.039     -256622.700 6   -199965.39122        19.250           1.750
  23813458.609    -2503519.290 6  -1745444.63421        14.000           0.469
 91  5 28 17 34  0.0000000  0  5G18G16G11G19G 2
  20726114.875      990523.505 7    771835.88623        27.750           2.563
  24007676.688     -981852.187 5   -628165.87821         8.750           0.344
  23820258.984    -2014127.979 6  -1569447.26021        14.250           0.688
  20548448.875     -260411.619 6   -202917.79722        18.250           1.688
  23803682.656    -2554889.153 6  -1785473.03021        13.750           0.625
 91  5 28 17 34 15.0000000  0  5G18G16G11G19G 2
  20730324.305     1012645.208 8    789073.57023        28.000           2.563
  24001553.688    -1014060.727 5   -653263.44521         8.750           0.188
  23813130.195    -2051591.340 6  -1598639.43321        14.500           0.688
  20547735.859     -264149.862 6   -205830.71922        19.000           1.719
  23793912.289    -2606225.631 6  -1825475.40021        13.000           0.531
 91  5 28 17 34 30.0000000  0  5G18G16G11G19G 2
  20734553.180     1034866.745 7    806389.04723        27.750           2.594
  23995442.117    -1046161.775 5   -678277.19121         9.000           0.281
  23806016.102    -2088972.876 6  -1627767.84721        14.750           0.781
  20547034.859     -267839.035 6   -208705.39322        18.250           1.813
  23784149.656    -2657530.204 6  -1865452.92221        12.750           0.469
 91  5 28 17 34 45.0000000  0  5G18G16G11G19G 2
  20738800.914     1057188.807 7    823782.84823        27.750           2.563
  23989352.000    -1078154.311 5   -703206.42321         8.500           0.281
  23798918.234    -2126271.124 6  -1656831.36521        15.000           0.688
  20546340.711     -271478.113 6   -211541.04722        18.500           1.750
  23774392.188    -2708801.621 6  -1905404.59721        12.500           0.531
 91  5 28 17 35  0.0000000  0  5G18G16G11G19G 2
  20743067.453     1079614.650 7    841257.52323        27.750           2.531
  23983287.875    -1110034.692 5   -728048.21221         8.500           0.219
  23791836.953    -2163482.278 6  -1685827.01621        15.000           0.594
  20545658.188     -275063.825 6   -214335.10222        19.000           1.594
  23764643.867    -2760036.297 5  -1945327.65621        11.750           0.531
 91  5 28 17 35 15.0000000  0  5G18G16G11G19G 2
  20747355.328     1102144.173 8    858812.98623        28.250           2.563
  23977241.391    -1141802.627 5   -752802.40721         8.250           0.344
  23784772.758    -2200606.071 6  -1714754.60221        14.500           0.688
  20544986.859     -278596.439 6   -217087.79122        19.000           1.656
  23754900.063    -2811234.038 5  -1985221.92321        11.750           0.469
 91  5 28 17 35 30.0000000  0  5G18G16G11G19G 2
  20751661.859     1124775.375 7    876447.67523        27.750           2.594
  23971222.086    -1173459.854 5   -777470.35421         8.500           0.313
  23777724.453    -2237643.948 6  -1743615.22121        14.750           0.625
  20544326.563     -282077.784 6   -219800.53222        18.750           1.656
  23745166.648    -2862396.591 5  -2025088.76621        11.750           0.500
 91  5 28 17 35 45.0000000  0  5G18G16G11G19G 2
  20755989.539     1147513.342 8    894165.55423        28.000           2.625
  23965219.117    -1205000.642 5   -802047.54621         9.000           0.219
  23770694.328    -2274590.323 6  -1772404.55221        14.500           0.594
  20543673.156     -285502.482 6   -222469.12822        19.250           1.688
  23735436.008    -2913518.401 6  -2064923.87321        12.000           0.438
 91  5 28 17 36  0.0000000  0  5G18G16G11G19G 2
  20760334.766     1170351.567 7    911961.56323        27.250           2.594
  23959237.188    -1236431.984 5   -826539.47821         8.750           0.406
  23763678.891    -2311451.597 6  -1801127.57721        14.000           0.719
  20543029.531     -288877.370 6   -225098.91922        19.500           1.500
  23725714.922    -2964606.188 6  -2104732.47621        12.500           0.438
 91  5 28 17 36 15.0000000  0  5G18G16G11G19G 2
  20764701.547     1193295.140 7    929839.66123        27.500           2.625
  23953275.781    -1267748.269 5   -850941.75421         8.500           0.344
  23756683.328    -2348222.183 6  -1829779.94321        14.000           0.594
  20542398.289     -292197.168 6   -227685.77622        19.750           1.500
  23715999.484    -3015654.475 6  -2144510.29421        12.500           0.531
 91  5 28 17 36 30.0000000  0  5G18G16G11G19G 2
  20769087.555     1216344.582 7    947800.25623        27.500           2.625
  23947340.242    -1298948.521 5   -875253.58521         8.250           0.375
  23749703.367    -2384900.871 6  -1858360.69021        14.500           0.625
  20541779.805     -295461.219 6   -230229.19522        19.000           1.594
  23706293.672    -3066662.423 6  -2184256.67321        13.000           0.625
 91  5 28 17 36 45.0000000  0  5G18G16G11G19G 2
  20773492.156     1239494.999 7    965839.53223        26.500           2.719
  23941424.758    -1330036.954 5   -899478.29321         9.250           0.344
  23742739.414    -2421491.963 6  -1886873.17621        13.750           0.656
  20541165.930     -298674.250 7   -232732.85722        20.000           1.656
  23696595.055    -3117634.517 6  -2223975.11321        13.000           0.594
 91  5 28 17 37  0.0000000  0  5G18G16G11G19G 2
  20777916.508     1262747.248 7    983958.15523        25.750           2.625
  23935527.141    -1361012.739 5   -923615.25921         8.750           0.375
  23735794.617    -2457994.205 6  -1915316.43721        14.250           0.625
  20540564.266     -301835.322 7   -235196.03222        20.250           1.594
  23686902.453    -3168569.630 6  -2263664.75021        13.250           0.500
 91  5 28 17 37 15.0000000  0  5G18G16G11G19G 2
  20782361.258     1286104.814 7   1002158.84723        25.250           2.625
  23929656.289    -1391872.199 5   -947661.54121         9.250           0.375
  23728864.063    -2494403.797 6  -1943687.49621        14.750           0.656
  20539973.859     -304941.063 7   -237616.08722        20.000           1.594
  23677217.086    -3219464.125 6  -2303322.74421        14.000           0.563
 91  5 28 17 37 30.0000000  0  5G18G16G11G19G 2
  20786827.156     1309567.784 7   1020441.66523        25.500           2.656
  23923805.313    -1422614.891 5   -971616.85921         8.750           0.313
  23721953.953    -2530720.183 6  -1971985.91721        14.000           0.688
  20539393.063     -307991.352 6   -239992.93922        19.500           1.656
  23667539.125    -3270317.707 6  -2342948.84821        14.250           0.625
 91  5 28 17 37 45.0000000  0  5G18G16G11G19G 2
  20791311.398     1333135.723 7   1038806.27523        25.250           2.500
  23917978.266    -1453240.943 5   -995481.27221         9.500           0.438
  23715061.625    -2566943.405 6  -2000211.74921        14.000           0.625
  20538823.664     -310986.692 6   -242326.97122        19.500           1.719
  23657871.336    -3321130.660 6  -2382543.29521        14.500           0.438
 91  5 28 17 38  0.0000000  0  5G18G16G11G19G 2
  20795815.586     1356805.845 7   1057250.51423        25.250           2.531
  23912171.266    -1483752.774 5  -1019256.67621         9.250           0.469
  23708185.305    -2603075.819 6  -2028366.82521        14.250           0.781
  20538262.750     -313929.659 6   -244620.19722        19.750           1.719
  23648207.375    -3371905.523 6  -2422108.05321        14.500           0.531
 91  5 28 17 38 15.0000000  0  5G18G16G11G19G 2
  20800340.453     1380581.556 7   1075777.02623        25.250           2.688
  23906382.875    -1514146.431 5  -1042940.00921         8.750           0.406
  23701327.367    -2639113.389 6  -2056447.99921        14.000           0.656
  20537713.914     -316816.626 6   -246869.78022        19.750           1.844
  23638554.242    -3422638.255 6  -2461639.98721        14.750           0.563
 91  5 28 17 38 30.0000000  0  5G18G16G11G19G 2
  20804884.305     1404462.150 7   1094385.25723        25.750           2.688
  23900626.289    -1544422.703 5  -1066531.84721         8.750           0.438
  23694488.125    -2675056.289 6  -2084455.38921        13.750           0.781
  20537173.625     -319648.248 7   -249076.23922        20.250           1.781
  23628906.695    -3473329.460 6  -2501139.56621        14.750           0.656
 91  5 28 17 38 45.0000000  0  5G18G16G11G19G 2
  20809449.938     1428453.298 7   1113079.64023        25.500           2.625
  23894887.359    -1574575.579 5  -1090027.56821         9.000           0.531
  23687667.313    -2710898.499 6  -2112384.32321        13.750           0.656
  20536648.602     -322418.765 6   -251235.08822        19.500           1.750
  23619271.578    -3523973.159 6  -2540602.12421        15.250           0.594
 91  5 28 17 39  0.0000000  0  5G18G16G11G19G 2
  20814035.984     1452548.642 7   1131855.21723        26.000           2.500
  23889171.297    -1604611.137 5  -1113431.85121         8.250           0.438
  23680864.828    -2746645.825 6  -2140239.33821        14.250           0.719
  20536130.328     -325134.528 7   -253351.26922        20.250           1.813
  23609641.586    -3574575.569 6  -2580032.51421        15.750           0.656
 91  5 28 17 39 15.0000000  0  5G18G16G11G19G 2
  20818640.039     1476746.853 7   1150710.95122        26.500           2.375
  23883479.703    -1634530.155 5  -1136745.34121         9.000           0.406
  23674079.734    -2782299.140 6  -2168021.08021        14.000           0.719
  20535624.555     -327796.611 6   -255425.62522        19.000           1.813
  23600019.477    -3625137.495 6  -2619431.35921        15.750           0.656
 91  5 28 17 39 30.0000000  0  5G18G16G11G19G 2
  20823265.391     1501050.125 7   1169648.56122        26.500           2.281
  23877812.617    -1664330.513 5  -1159966.38421         9.250           0.406
  23667314.625    -2817856.115 6  -2195727.75821        15.000           0.594
  20535127.844     -330403.163 6   -257456.71222        19.000           1.875
  23590404.461    -3675656.893 6  -2658797.05621        16.000           0.688
 91  5 28 17 39 45.0000000  0  5G18G16G11G19G 2
  20827909.313     1525457.120 7   1188666.99122        26.750           2.438
  23872161.063    -1694013.245 5  -1183095.74821         9.000           0.438
  23660563.453    -2853317.603 6  -2223360.04521        14.000           0.594
  20534643.672     -332955.452 6   -259445.50922        19.000           1.688
  23580801.320    -3726134.752 6  -2698130.39721        15.750           0.594
 91  5 28 17 40  0.0000000  0  5G18G16G11G19G 2
  20832574.047     1549971.020 7   1207768.72122        26.500           2.438
  23866535.430    -1723574.699 5  -1206130.60421         8.250           0.438
  23653836.320    -2888679.782 6  -2250914.94821        14.500           0.625
  20534167.375     -335450.227 6   -261389.49322        19.250           1.906
  23571205.008    -3776567.552 6  -2737428.61021        15.750           0.719
 91  5 28 17 40 15.0000000  0  5G18G16G11G19G 2
  20837256.688     1574578.358 7   1226943.24723        27.000           2.500
  23860926.211    -1753027.838 5  -1229081.05521         8.250           0.406
  23647125.609    -2923955.299 6  -2278402.32121        14.500           0.688
  20533701.898     -337900.475 6   -263298.78222        18.750           1.781
  23561613.102    -3826968.164 6  -2776701.75621        15.500           0.688
 91  5 28 17 40 30.0000000  0  5G18G16G11G19G 2
  20841958.078     1599284.804 7   1246195.01023        26.750           2.531
  23855341.383    -1782367.309 5  -1251942.95021         7.500           0.406
  23640428.938    -2959138.705 6  -2305817.90321        14.500           0.688
  20533246.914     -340300.928 6   -265169.26722        18.500           1.625
  23552027.109    -3877331.205 6  -2815945.61221        15.750           0.563
 91  5 28 17 40 45.0000000  0  5G18G16G11G19G 2
  20846680.117     1624096.396 7   1265528.70322        27.000           2.438
  23849785.531    -1811585.973 5  -1274710.71021         8.250           0.438
  23633752.719    -2994222.932 6  -2333156.21821        15.000           0.688
  20532798.891     -342645.011 6   -266995.82822        18.500           1.656
  23542454.586    -3927649.836 6  -2855154.87721        15.750           0.594
 91  5 28 17 41  0.0000000  0  5G18G16G11G19G 2
  20851422.852     1649013.074 7   1284944.28722        27.000           2.469
  23844250.633    -1840684.153 5  -1297384.58121         8.500           0.406
  23627094.805    -3029207.803 6  -2360417.10121        15.250           0.563
  20532362.609     -344932.854 6   -268778.56722        18.500           1.688
  23532887.539    -3977924.117 6  -2894329.59021        15.500           0.688
 91  5 28 17 41 15.0000000  0  5G18G16G11G19G 2
  20856183.250     1674036.315 7   1304442.90922        26.500           2.438
  23838731.078    -1869659.944 5  -1319963.08321         8.250           0.438
  23620457.055    -3064091.305 6  -2387599.01821        16.000           0.594
  20531939.016     -347162.897 6   -270516.26822        18.500           1.656
  23523328.359    -4028152.183 6  -2933468.28821        13.750           0.531
 91  5 28 17 41 30.0000000  0  5G18G16G11G19G 2
  20860963.242     1699160.675 7   1324020.31222        26.500           2.406
  23833245.313    -1898518.487 5  -1342450.21721         8.250           0.406
  23613836.469    -3098878.446 6  -2414705.82721        15.500           0.719
  20531524.352     -349340.603 6   -272213.18622        18.750           1.531
  23513777.664    -4078339.283 6  -2972575.05621        13.750           0.688
 91  5 28 17 41 45.0000000  0  5G18G16G11G19G 2
  20865764.445     1724389.447 7   1343679.08322        26.750           2.469
  23827778.523    -1927256.117 5  -1364843.15721         8.500           0.500
  23607237.086    -3133565.497 6  -2441734.64921        15.250           0.781
  20531120.266     -351462.591 6   -273866.68822        18.500           1.563
  23504235.617    -4128481.937 6  -3011647.18621        14.000           0.688
 91  5 28 17 42  0.0000000  0  5G18G16G11G19G 2
  20870585.719     1749724.731 7   1363420.85022        26.250           2.313
  23822335.633    -1955870.177 5  -1387139.80921         9.500           0.438
  23600654.148    -3168149.633 6  -2468683.27821        14.500           0.625
  20530728.469     -353526.374 6   -275474.83622        18.750           1.594
  23494703.164    -4178577.386 6  -3050682.53821        14.500           0.656
 91  5 28 17 42 15.0000000  0  5G18G16G11G19G 2
  20875426.836     1775161.765 7   1383241.90522        27.000           2.250
  23816910.023    -1984365.417 5  -1409343.86121         9.250           0.469
  23594092.125    -3202635.475 6  -2495555.31421        14.250           0.688
  20530345.820     -355536.893 6   -277041.47522        18.500           1.594
  23485177.930    -4228630.492 6  -3089684.89521        15.000           0.781
 91  5 28 17 42 30.0000000  0  5G18G16G11G19G 2
  20880286.727     1800700.861 7   1403142.48322        26.750           2.250
  23811508.320    -2012741.666 5  -1431455.20321         9.250           0.406
  23587549.867    -3237022.347 6  -2522350.22821        14.250           0.688
  20529972.586     -357493.970 6   -278566.47022        18.500           1.594
  23475662.164    -4278640.791 6  -3128653.89421        15.250           0.750
 91  5 28 17 42 45.0000000  0  5G18G16G11G19G 2
  20885166.594     1826345.867 7   1423125.58722        26.500           2.344
  23806135.305    -2040994.016 5  -1453470.00621         9.250           0.406
  23581025.836    -3271305.476 6  -2549064.31721        14.000           0.625
  20529612.578     -359392.977 6   -280046.21622        18.250           1.531
  23466154.820    -4328603.432 6  -3167585.76121        15.500           0.688
 91  5 28 17 43  0.0000000  0  5G18G16G11G19G 2
  20890066.367     1852093.164 7   1443188.40022        26.500           2.313
  23800779.117    -2069126.186 5  -1475391.15921         8.500           0.563
  23574519.031    -3305488.514 6  -2575700.39921        14.000           0.719
  20529262.898     -361238.014 6   -281483.90622        18.000           1.594
  23456655.273    -4378522.276 6  -3206483.50521        15.500           0.656
 91  5 28 17 43 15.0000000  0  5G18G16G11G19G 2
  20894986.172     1877943.430 7   1463331.45722        26.250           2.313
  23795446.836    -2097137.308 5  -1497218.00121         8.500           0.406
  23568033.234    -3339570.212 6  -2602257.52221        14.250           0.563
  20528919.563     -363028.368 6   -282878.99222        18.000           1.594
  23447164.836    -4428396.529 6  -3245346.50121        16.000           0.781
 91  5 28 17 43 30.0000000  0  5G18G16G11G19G 2
  20899924.281     1903896.288 7   1483554.44222        25.750           2.375
  23790137.469    -2125027.263 5  -1518950.40021         8.750           0.313
  23561567.414    -3373550.472 6  -2628735.60321        14.500           0.563
  20528587.758     -364764.377 6   -284231.73022        19.000           1.531
  23437681.102    -4478226.226 6  -3284174.77921        15.500           0.750
 91  5 28 17 43 45.0000000  0  5G18G16G11G19G 2
  20904882.500     1929950.716 7   1503856.57823        26.750           2.531
  23784856.664    -2152796.449 5  -1540588.69621         9.750           0.500
  23555120.742    -3407429.470 6  -2655134.77921        14.250           0.563
  20528270.438     -366446.551 6   -285542.51922        18.000           1.688
  23428207.805    -4528011.790 6  -3322968.65721        14.500           0.719
 91  5 28 17 44  0.0000000  0  5G18G16G11G19G 2
  20909859.914     1956106.628 7   1524237.79423        27.000           2.625
  23779594.781    -2180444.580 5  -1562132.69021         9.500           0.500
  23548693.898    -3441206.761 6  -2681454.73021        14.500           0.406
  20527956.984     -368074.944 6   -286811.40622        18.000           1.594
  23418742.313    -4577752.844 6  -3361727.87021        14.250           0.719
 91  5 28 17 44 15.0000000  0  5G18G16G11G19G 2
  20914856.820     1982368.267 7   1544701.39023        26.750           2.500
  23774355.148    -2207967.746 5  -1583579.28021         9.500           0.375
  23542285.430    -3474878.082 6  -2707692.07721        14.750           0.438
  20527660.219     -369645.626 6   -288035.31922        17.750           1.625
  23409286.102    -4627445.407 6  -3400449.29521        14.250           0.656
 91  5 28 17 44 30.0000000  0  5G18G16G11G19G 2
  20919874.164     2008733.857 7   1565245.98822        27.250           2.469
  23769141.930    -2235367.482 5  -1604929.71221         9.500           0.406
  23535896.805    -3508444.696 6  -2733847.85421        14.500           0.563
  20527370.688     -371160.087 6   -289215.42222        18.250           1.625
  23399838.336    -4677090.863 6  -3439134.01521        14.000           0.563
 91  5 28 17 44 45.0000000  0  5G18G16G11G19G 2
  20924910.227     2035198.322 7   1585867.63823        26.750           2.531
  23763950.383    -2262648.379 5  -1626187.54121         9.250           0.344
  23529530.141    -3541911.227 6  -2759925.62821        14.500           0.625
  20527094.086     -372623.399 6   -290355.67122        18.000           1.688
  23390398.680    -4726694.085 6  -3477785.82521        13.750           0.625
 91  5 28 17 45  0.0000000  0  5G18G16G11G19G 2
  20929965.508     2061766.525 7   1606570.11723        26.750           2.563
  23758787.633    -2289805.498 5  -1647348.89821         9.500           0.406
  23523181.578    -3575272.308 6  -2785921.23921        14.500           0.563
  20526824.844     -374030.398 6   -291452.04522        18.000           1.563
  23380970.828    -4776249.885 6  -3516400.69021        13.500           0.625
 91  5 28 17 45 15.0000000  0  5G18G16G11G19G 2
  20935041.109     2088437.872 7   1627352.96923        26.750           2.594
  23753637.352    -2316838.563 5  -1668413.61621         9.500           0.375
  23516852.398    -3608527.979 6  -2811834.71721        13.750           0.625
  20526570.125     -375381.410 6   -292504.78122        18.000           1.531
  23371548.867    -4825758.365 6  -3554978.67621        13.250           0.625
 91  5 28 17 45 30.0000000  0  5G18G16G11G19G 2
  20940135.922     2115210.038 7   1648214.37722        26.250           2.469
  23748522.539    -2343749.418 5  -1689383.09221        10.250           0.469
  23510542.602    -3641679.929 6  -2837667.37421        13.750           0.469
  20526320.938     -376678.537 6   -293515.53622        18.250           1.594
  23362136.383    -4875221.340 6  -3593521.20121        13.500           0.656
 91  5 28 17 45 45.0000000  0  5G18G16G11G19G 2
  20945248.906     2142086.413 7   1669156.99023        25.500           2.594
  23743422.648    -2370534.998 5  -1710254.97021        10.250           0.344
  23504256.297    -3674724.566 6  -2863416.39521        14.250           0.625
  20526086.438     -377918.744 6   -294481.93822        17.500           1.531
  23352731.422    -4924635.512 6  -3632025.69421        13.750           0.656
 91  5 28 17 46  0.0000000  0  5G18G16G11G19G 2
  20950385.672     2169068.829 7   1690182.23223        25.750           2.500
  23738352.414    -2397193.358 5  -1731027.70121        10.500           0.406
  23497989.078    -3707659.643 6  -2889080.06321        14.000           0.656
  20525860.531     -379100.195 6   -295402.55422        18.000           1.531
  23343338.195    -4973998.738 6  -3670490.49821        14.250           0.875
 91  5 28 17 46 15.0000000  0  5G18G16G11G19G 2
  20955537.320     2196149.560 7   1711284.08623        25.750           2.625
  23733297.320    -2423731.428 5  -1751706.71221        10.000           0.344
  23491740.813    -3740492.235 6  -2914663.87221        14.000           0.688
  20525646.961     -380230.211 6   -296283.08722        17.750           1.531
  23333954.016    -5023318.358 6  -3708921.31321        14.250           0.813
 91  5 28 17 46 30.0000000  0  5G18G16G11G19G 2
  20960710.922     2223329.855 7   1732463.52122        25.750           2.438
  23728270.070    -2450147.951 5  -1772291.00421        10.000           0.406
  23485510.789    -3773220.759 6  -2940166.58721        13.750           0.750
  20525443.820     -381307.528 6   -297122.55922        17.250           1.625
  23324577.180    -5072593.036 6  -3747317.10621        14.500           0.844
 91  5 28 17 46 45.0000000  0  5G18G16G11G19G 2
  20965902.039     2250613.123 7   1753723.19823        25.500           2.531
  23723267.594    -2476438.917 5  -1792777.46921         9.750           0.344
  23479304.844    -3805841.350 6  -2965585.19921        14.250           0.688
  20525247.953     -382328.561 6   -297918.17622        18.000           1.563
  23315209.453    -5121819.111 6  -3785675.04321        14.250           0.844
 91  5 28 17 47  0.0000000  0  5G18G16G11G19G 2
  20971113.734     2277997.328 7   1775061.52323        25.250           2.500
  23718288.344    -2502606.336 5  -1813167.65121        10.750           0.375
  23473118.500    -3838355.525 6  -2990920.88421        14.500           0.688
  20525063.656     -383295.256 6   -298671.44222        17.250           1.594
  23305851.828    -5170998.215 6  -3823996.37221        13.750           0.813
 91  5 28 17 47 15.0000000  0  5G18G16G11G19G 2
  20976343.852     2305484.538 7   1796480.10623        25.000           2.531
  23713335.469    -2528647.659 5  -1833459.57021        11.500           0.344
  23466951.875    -3870760.761 6  -3016171.68821        15.000           0.781
  20524890.867     -384205.482 6   -299380.71622        17.750           1.563
  23296501.320    -5220127.974 6  -3862279.24921        13.000           0.719
 91  5 28 17 47 30.0000000  0  5G18G16G11G19G 2
  20981593.469     2333071.339 7   1817976.30023        24.750           2.625
  23708403.859    -2554566.036 5  -1853655.71421        11.000           0.281
  23460806.953    -3903060.080 6  -3041339.97021        15.250           0.750
  20524727.398     -385062.594 6   -300048.59722        18.500           1.500
  23287162.219    -5269211.555 6  -3900526.14021        13.250           0.719
 91  5 28 17 47 45.0000000  0  5G18G16G11G19G 2
  20986861.141     2360754.787 7   1839547.79923        24.750           2.656
  23703492.633    -2580364.240 5  -1873758.16721        10.500           0.406
  23454677.844    -3935255.868 6  -3066427.56921        14.750           0.719
  20524574.656     -385869.499 6   -300677.35922        18.500           1.531
  23277829.484    -5318251.582 6  -3938739.10221        13.500           0.813
 91  5 28 17 48  0.0000000  0  5G18G16G11G19G 2
  20992148.883     2388539.933 7   1861198.54223        25.500           2.719
  23698609.836    -2606036.914 5  -1893762.82821        10.500           0.344
  23448572.563    -3967342.511 6  -3091430.12221        14.500           0.688
  20524432.805     -386620.834 6   -301262.81922        17.500           1.625
  23268505.625    -5367242.549 6  -3976913.82221        13.250           0.656
 91  5 28 17 48 15.0000000  0  5G18G16G11G19G 2
  20997455.508     2416423.232 7   1882925.77023        25.750           2.688
  23693744.648    -2631587.301 5  -1913672.21621        10.000           0.438
  23442488.000    -3999323.138 6  -3116350.06321        14.750           0.750
  20524297.633     -387320.065 6   -301807.67822        18.000           1.594
  23259191.883    -5416187.765 6  -4015052.89721        13.500           0.688
 91  5 28 17 48 30.0000000  0  5G18G16G11G19G 2
  21002780.547     2444406.087 7   1904730.57423        25.500           2.531
  23688905.852    -2657013.721 5  -1933484.98521        10.000           0.500
  23436420.930    -4031196.073 6  -3141186.08921        14.750           0.719
  20524174.188     -387965.918 6   -302310.94622        18.500           1.563
  23249887.898    -5465085.689 6  -4053155.13321        13.750           0.750
 91  5 28 17 48 45.0000000  0  5G18G16G11G19G 2
  21008124.750     2472491.397 7   1926615.20623        25.750           2.500
  23684093.219    -2682312.651 5  -1953198.40121        10.250           0.469
  23430379.383    -4062957.622 6  -3165935.32621        15.750           0.688
  20524062.414     -388555.093 6   -302770.04722        17.750           1.563
  23240592.992    -5513933.007 6  -4091217.93521        13.500           0.688
 91  5 28 17 49  0.0000000  0  5G18G16G11G19G 2
  21013488.547     2500676.095 7   1948577.29122        25.750           2.438
  23679301.867    -2707487.026 5  -1972814.78821        10.000           0.500
  23424356.047    -4094610.606 6  -3190599.96721        16.000           0.719
  20523962.758     -389090.645 6   -303187.36622        17.250           1.563
  23231305.922    -5562732.452 6  -4129243.42721        13.750           0.813
 91  5 28 17 49 15.0000000  0  5G18G16G11G19G 2
  21018871.258     2528963.701 7   1970619.56922        25.500           2.469
  23674533.852    -2732533.416 5  -1992331.43821         9.000           0.469
  23418353.664    -4126150.953 6  -3215176.84621        16.000           0.781
  20523869.891     -389568.942 6   -303560.06622        17.750           1.625
  23222031.047    -5611480.195 6  -4167228.64121        14.500           0.719
 91  5 28 17 49 29.9990000  0  5G18G16G11G19G 2
  21024271.730     2557346.263 7   1992735.83222        25.250           2.344
  23669792.511    -2757455.850 5  -2011751.50521         9.750           0.375
  23412370.128    -4157582.304 6  -3239668.77521        15.750           0.781
  20523787.644     -389995.830 6   -303892.71522        18.000           1.594
  23212763.292    -5660178.993 6  -4205175.72221        14.500           0.719
 91  5 28 17 49 44.9990000  0  5G18G16G11G19G 2
  21029691.355     2585830.357 7   2014931.21122        25.250           2.406
  23665076.565    -2782254.263 5  -2031074.93921        10.500           0.438
  23406411.136    -4188905.415 6  -3264076.37621        14.750           0.625
  20523718.550     -390368.484 6   -304183.10022        18.250           1.563
  23203504.370    -5708832.110 6  -4243087.19921        14.000           0.781
 91  5 28 17 49 59.9990000  0  5G18G16G11G19G 2
  21035132.011     2614414.570 7   2037204.60622        25.750           2.438
  23660378.651    -2806926.496 5  -2050300.02621        10.250           0.375
  23400469.847    -4220117.328 6  -3288397.32021        15.000           0.813
  20523657.620     -390686.394 6   -304430.82822        17.750           1.531
  23194255.276    -5757435.616 6  -4280960.01221        13.500           0.844
 91  5 28 17 50 14.9990000  0  5G18G16G11G19G 2
  21040590.714     2643103.210 7   2059559.36822        25.000           2.469
  23655711.472    -2831468.023 5  -2069423.28921        10.500           0.469
  23394552.612    -4251213.377 6  -3312627.98321        15.250           0.750
  20523608.737     -390945.255 6   -304632.54122        18.000           1.531
  23185016.706    -5805985.106 6  -4318790.73321        14.000           0.844
 91  5 28 17 50 29.9990000  0  6G18G16G11G19G 2G 6
  21046069.855     2671892.731 7   2081992.74122        25.250           2.344
  23651064.815    -2855881.657 5  -2088446.86021        10.000           0.438
  23388656.667    -4282196.411 6  -3336770.58921        14.750           0.656
  20523570.315     -391148.276 6   -304790.74422        18.250           1.531
  23175787.237    -5854483.386 6  -4356581.55721        14.000           0.875
  24342911.565          -0.08615                         8.250
 91  5 28 17 50 44.9990000  0  6G18G16G11G19G 2G 6
  21051565.511     2700779.245 7   2104501.69022        25.500           2.344
  23646441.769    -2880171.415 5  -2107373.93721         8.750           0.469
  23382780.956    -4313070.223 6  -3360828.08021        15.250           0.656
  20523541.847     -391299.449 6                        18.250
  23166567.120    -5902934.344 6  -4394335.50921        14.000           1.000
  24335242.331      -40297.449 4                         7.000
 91  5 28 17 50 59.9990000  0  6G18G16G11G19G 2G 6
  21057082.019     2729766.400 7   2127089.06622        25.500           2.375
  23641842.394    -2904333.426 5  -2126201.46121         8.750           0.344
  23376927.808    -4343830.512 6  -3384797.11221        15.500           0.625
  20523521.253     -391394.837 6                        18.750
  23157357.472    -5951333.929 6  -4432049.42621        14.250           1.063
  24327576.800      -80575.772 5                         7.750
 91  5 28 17 51 14.9990000  0  6G18G16G11G19G 2G 6
  21062616.378     2758851.575 7   2149752.82222        25.250           2.313
  23637267.394    -2928369.575 5  -2144930.93121         9.000           0.438
  23371097.370    -4374479.309 6  -3408679.26221        15.500           0.500
  20523515.073     -391436.887 6                        18.000
  23148157.323    -5999684.435 6  -4469725.10221        14.750           1.063
  24319915.464     -120837.481 4                         7.250
 91  5 28 17 51 29.9990000  0  6G18G16G11G19G 2G 6
  21068169.331     2788031.208 7   2172490.17122        25.250           2.375
  23632725.167    -2952283.172 5  -2163564.86721        10.250           0.406
  23365285.308    -4405019.755 6  -3432476.98621        16.250           0.625
  20523515.065     -391428.808 6                        18.500
  23138965.526    -6047989.108 6  -4507365.06421        14.750           1.125
  24312257.940     -161085.995 5                         7.500
 91  5 28 17 51 44.9990000  0  6G18G16G11G19G 2G 6
  21073740.730     2817305.200 7   2195301.05623        25.000           2.500
  23628184.292    -2976074.460 5  -2182103.52721         9.250           0.500
  23359495.737    -4435451.626 6  -3456190.11421        16.750           0.625
  20523527.214     -391370.740 6                        17.750
  23129781.136    -6096247.728 6  -4544969.14121        14.500           0.969
  24304597.401     -201321.331 4        -0.32931         7.250           0.344
 91  5 28 17 51 59.9990000  0  6G18G16G11G19G 2G 6
  21079329.808     2846677.363 7   2218188.43122        25.250           2.344
  23623687.964    -2999739.052 5  -2200543.45921         9.750           0.469
  23353724.347    -4465770.517 6  -3479815.21721        16.500           0.656
  20523547.276     -391258.774 6                        17.750
  23120607.480    -6144456.009 6  -4582533.99021        14.250           0.938
  24296946.894     -241539.582 5    -31339.15921         7.750           0.250
 91  5 28 17 52 14.9990000  0  6G18G16G11G19G 2G 6
  21084938.284     2876146.770 7   2241151.58222        26.250           2.344
  23619206.628    -3023277.578 5  -2218885.15621         9.250           0.500
  23347976.058    -4495976.887 6  -3503352.63221        16.500           0.688
  20523579.636     -391093.787 6                        18.000
  23111443.956    -6192614.785 6  -4620060.26221        13.750           0.781
  24289295.362     -281741.508 5    -62665.24721         7.750           0.219
 91  5 28 17 52 29.9990000  0  6G18G16G11G19G 2G 6
  21090565.198     2905715.765 7   2264192.33922        26.000           2.250
  23614752.862    -3046687.292 5  -2237126.48821         9.000           0.469
  23342250.503    -4526067.909 6  -3526800.15221        16.500           0.656
  20523621.315     -390873.129 6                        18.500
  23102289.956    -6240721.517 6  -4657545.98121        14.000           0.844
  24281651.198     -321924.654 5    -93976.76621         7.750           0.125
 91  5 28 17 52 44.9990000  0  6G18G16G11G19G 2G 6
  21096209.347     2935381.961 7   2287308.83422        25.500           2.375
  23610323.605    -3069970.484 5  -2255269.21721         9.250           0.406
  23336543.839    -4556045.651 6  -3550159.41221        16.250           0.750
  20523674.933     -390599.333 6   -304363.05122        19.250           1.594
  23093142.894    -6288778.398 6  -4694992.86021        13.750           0.938
  24274006.097     -362091.401 5   -125275.50821         8.250           0.125
 91  5 28 17 52 59.9990000  0  6G18G16G11G19G 2G 6
  21101873.026     2965145.363 7   2310501.07722        25.500           2.375
  23605917.308    -3093127.033 5  -2273313.26321         9.500           0.469
  23330862.425    -4585909.637 6  -3573430.02521        16.500           0.781
  20523738.956     -390272.056 6   -304108.03422        18.500           1.594
  23084008.183    -6336784.977 6  -4732400.54121        13.500           0.875
  24266367.472     -402241.634 5   -156561.35721         8.250           0.188
 91  5 28 17 53 14.9990000  0  6G18G16G11G19G 2G 6
  21107556.675     2995006.286 7   2333769.30922        25.250           2.406
  23601538.480    -3116156.178 5  -2291258.02721         9.500           0.375
  23325203.464    -4615658.972 6  -3596611.30421        16.500           0.719
  20523809.222     -389890.979 6   -303811.09422        19.250           1.625
  23074883.526    -6384740.530 6  -4769768.45721        13.500           0.656
  24258728.386     -442374.736 5   -187833.87421         7.500           0.281
 91  5 28 17 53 29.9990000  0  6G18G16G11G19G 2G 6
  21113256.214     3024962.589 7   2357111.86122        25.500           2.375
  23597176.714    -3139059.929 5  -2309105.08921         9.000           0.406
  23319562.253    -4645295.540 6  -3619704.71321        16.250           0.781
  20523890.737     -389458.253 6   -303473.91722        19.000           1.563
  23065765.253    -6432647.119 6  -4807098.23121        14.250           0.656
  24251095.089     -482493.054 5   -219094.83721         7.500           0.188
 91  5 28 17 53 44.9990000  0  6G18G16G11G19G 2G 6
  21118975.855     3055013.992 7   2380528.52322        25.500           2.406
  23592840.042    -3161838.035 5  -2326854.28121         9.000           0.281
  23313945.292    -4674819.051 6  -3642710.02821        16.250           0.688
  20523982.933     -388973.924 6   -303096.52722        19.250           1.625
  23056659.448    -6480504.771 6  -4844389.87421        14.750           0.719
  24243463.964     -522596.587 4   -250344.30221         6.750           0.281
 91  5 28 17 53 59.9990000  0  6G18G16G11G19G 2G 6
  21124712.855     3085161.789 7   2404020.28722        25.750           2.344
  23588531.612    -3184488.882 5  -2344504.26221         9.500           0.438
  23308346.355    -4704227.867 6  -3665625.96021        15.750           0.813
  20524084.628     -388436.647 6   -302677.87522        18.500           1.594
  23047562.120    -6528311.769 6  -4881642.04721        15.500           0.719
  24235835.050     -562683.992 4   -281581.19921         6.750           0.344
 91  5 28 17 54 14.9990000  0  6G18G16G11G19G 2G 6
  21130467.472     3115405.222 7   2427586.57022        25.750           2.344
  23584245.644    -3207013.377 5  -2362055.80521        10.000           0.406
  23302772.433    -4733522.170 6  -3688452.66621        15.750           0.750
  20524196.589     -387846.750 6   -302218.22822        18.250           1.563
  23038475.855    -6576068.519 6  -4918855.07821        16.000           0.656
  24228210.105     -602755.804 4   -312805.94321         6.250           0.313
 91  5 28 17 54 29.9990000  0  6G18G16G11G19G 2G 6
  21136241.284     3145745.634 7   2451228.42723        25.500           2.531
  23579985.245    -3229409.699 5  -2379507.46321        10.250           0.344
  23297220.464    -4762699.927 6  -3711188.57021        16.000           0.688
  20524318.651     -387202.514 6   -301716.23022        18.500           1.625
  23029397.042    -6623773.232 6  -4956027.54721        16.000           0.625
  24220585.589     -642810.464 3   -344017.30821         5.750           0.344
 91  5 28 17 54 44.9990000  0  6G18G16G11G19G 2G 6
  21142033.042     3176182.904 7   2474945.75922        25.250           2.438
  23575748.480    -3251677.313 5  -2396858.83921         9.500           0.375
  23291689.308    -4791760.834 6  -3733833.41321        16.000           0.750
  20524453.198     -386504.174 6   -301172.07422        18.250           1.563
  23020328.683    -6671425.800 6  -4993159.37521        16.250           0.844
  24212966.339     -682847.924 4   -375215.26021         6.500           0.344
 91  5 28 17 54 59.9990000  0  6G18G16G11G19G 2G 6
  21147843.089     3206715.280 7   2498737.19323        25.250           2.563
  23571532.565    -3273817.989 5  -2414111.30821         9.750           0.375
  23286182.323    -4820706.584 6  -3756388.52121        16.250           0.656
  20524596.472     -385753.855 6   -300587.41322        18.250           1.625
  23011270.448    -6719027.934 6  -5030251.90421        16.000           0.781
  24205352.495     -722870.165 4   -406401.37021         7.250           0.438
 91  5 28 17 55 14.9990000  0  6G18G16G11G19G 2G 6
  21153672.480     3237348.506 7   2522607.21723        25.250           2.500
  23567345.269    -3295825.787 5  -2431260.24921         9.500           0.406
  23280696.183    -4849530.873 6  -3778848.98921        15.750           0.750
  20524749.331     -384945.463 6   -299957.50222        18.500           1.750
  23002222.886    -6766573.450 6  -5067300.32721        16.000           0.813
  24197740.831     -762871.203 4   -437570.95721         7.000           0.406
 91  5 28 17 55 29.9990000  0  6G18G16G11G19G 2G 6
  21159521.472     3268082.206 7   2546555.52722        25.500           2.438
  23563178.245    -3317700.682 5  -2448305.61221         9.000           0.344
  23275235.745    -4878233.387 6  -3801214.57121        16.000           0.781
  20524915.909     -384078.997 6   -299282.33822        17.750           1.719
  22993187.542    -6814062.289 6  -5104304.57221        16.250           0.906
  24190134.370     -802851.104 4   -468724.08721         7.000           0.375
 91  5 28 17 55 44.9990000  0  6G18G16G11G19G 2G 6
  21165388.081     3298916.617 7   2570582.31922        24.750           2.469
  23559048.112    -3339442.236 5  -2465247.07821         9.250           0.531
  23269796.120    -4906813.477 6  -3823484.73921        16.500           0.625
  20525092.136     -383154.089 6   -298561.63522        18.500           1.625
  22984159.355    -6861494.095 6  -5141264.38121        16.000           1.031
  24182530.628     -842809.541 4   -499860.50421         6.500           0.375
 91  5 28 17 55 59.9990000  0  6G18G16G11G19G 2G 6
  21171275.659     3329848.739 7   2594685.24622        25.000           2.438
  23554928.823    -3361053.089 5  -2482086.67721         8.500           0.406
  23264380.026    -4935273.879 6  -3845661.66521        16.500           0.688
  20525275.839     -382173.808 6   -297797.78622        19.750           1.688
  22975145.276    -6908871.648 6  -5178181.91321        16.250           1.094
  24174927.120     -882749.498 3   -530982.50321         6.000           0.375
 91  5 28 17 56 14.9990000  0  6G18G16G11G19G 2G 6
  21177180.761     3360880.735 7   2618866.01223        24.500           2.500
  23550844.714    -3382531.072 5  -2498822.76121         8.750           0.563
  23258987.534    -4963611.841 6  -3867743.16921        17.500           0.656
  20525474.331     -381135.662 6   -296988.84822        18.750           1.594
  22966139.737    -6956192.345 6  -5215055.14021        16.250           1.188
  24167331.472     -922668.650 3   -562088.28921         5.500           0.313
 91  5 28 17 56 29.9990000  0  6G18G16G11G19G 2G 6
  21183103.409     3392004.579 7   2643118.33223        24.250           2.563
  23546782.964    -3403883.833 5  -2515461.26821         9.250           0.406
  23253618.558    -4991834.940 6  -3889735.18321        17.500           0.625
  20525680.831     -380047.534 6   -296140.96022        19.250           1.656
  22957143.519    -7003463.781 6  -5251889.98421        16.000           1.156
  24159739.198     -962574.840 3   -593183.99321         5.750           0.344
 91  5 28 17 56 44.9990000  0  6G18G16G11G19G 2G 6
  21189042.620     3423223.056 7   2667444.39022        24.250           2.469
  23542742.495    -3425108.055 5  -2531999.60821         9.250           0.469
  23248270.425    -5019939.804 6  -3911635.05821        17.250           0.563
  20525899.198     -378906.500 6   -295251.84522        18.750           1.656
  22948156.190    -7050682.904 6  -5288684.06821        15.750           1.094
  24152143.808    -1002465.128 3   -624267.25721         5.750           0.313
 91  5 28 17 56 59.9990000  0  6G18G16G11G19G 2G 6
  21195002.542     3454536.248 7   2691844.25023        24.750           2.531
  23538728.308    -3446203.646 5  -2548437.71221         9.750           0.500
  23242943.394    -5047926.180 6  -3933442.61021        16.500           0.656
  20526125.433     -377712.443 6   -294321.41822        19.000           1.656
  22939181.276    -7097849.665 6  -5325437.35421        15.250           1.219
  24144560.261    -1042339.539 3   -655338.20621         5.750           0.250
 91  5 28 17 57 14.9990000  0  6G18G16G11G19G 2G 6
  21200980.315     3485952.093 7   2716324.10123        24.750           2.531
  23534736.769    -3467162.182 5  -2564769.02721        10.500           0.531
  23237642.347    -5075785.403 6  -3955151.08121        16.750           0.813
  20526365.722     -376457.133 6   -293343.26222        19.000           1.688
  22930217.370    -7144955.509 6  -5362143.15821        14.750           1.313
  24136973.300    -1082189.785 3   -686390.29921         5.750           0.250
 91  5 28 17 57 29.9990000  0  6G18G16G11G19G 2G 6
  21206977.784     3517465.512 7   2740879.99123        24.750           2.656
  23530777.276    -3487988.251 5  -2580997.12021        10.750           0.531
  23232364.589    -5103521.967 6  -3976763.97421        16.750           0.750
  20526614.323     -375145.367 6   -292321.11122        19.000           1.719
  22921265.401    -7192005.028 6  -5398805.07221        15.000           1.125
  24129394.995    -1122020.766 3   -717427.39721         6.000           0.281
 91  5 28 17 57 44.9990000  0  6G18G16G11G19G 2G 6
  21212992.714     3549073.891 7   2765509.87723        24.750           2.563
  23526836.073    -3508684.492 5  -2597124.04721        10.250           0.563
  23227109.151    -5131138.260 6  -3998283.14621        16.750           0.781
  20526874.800     -373779.769 6   -291257.01522        18.750           1.563
  22912322.487    -7239000.806 6  -5435425.11021        15.250           1.094
  24121821.690    -1161835.028 3   -748451.45221         6.000           0.250
 91  5 28 17 57 59.9990000  0  6G18G16G11G19G 2G 6
  21219025.753     3580779.978 7   2790215.89523        24.750           2.656
  23522927.253    -3529248.196 5  -2613147.70321        10.250           0.656
  23221876.308    -5158631.238 6  -4019706.23821        16.250           0.781
  20527143.151     -372357.707 6   -290148.92422        19.000           1.750
  22903389.464    -7285939.943 6  -5472001.02421        16.250           1.094
  24114245.815    -1201629.894 4   -779460.39021         6.250           0.344
 91  5 28 17 58 14.9990000  0  6G18G16G11G19G 2G 6
  21225077.855     3612584.925 7   2814998.94923        24.500           2.656
  23519034.019    -3549677.516 5  -2629066.63621         9.500           0.594
  23216668.753    -5185999.058 6  -4041031.79121        16.000           0.688
  20527428.034     -370877.469 6   -288995.49122        18.750           1.688
  22894469.409    -7332820.608 6  -5508531.37021        16.500           1.094
  24106677.995    -1241403.827 4   -810453.03521         6.250           0.313
 91  5 28 17 58 29.9990000  0  6G18G16G11G19G 2G 6
  21231149.565     3644489.023 7   2839859.25923        24.000           2.563
  23515177.105    -3569971.942 5  -2644880.45421        10.000           0.563
  23211484.511    -5213240.881 6  -4062259.16821        16.250           0.781
  20527718.839     -369338.658 6   -287796.42122        19.250           1.656
  22885559.753    -7379642.242 6  -5545015.72721        17.250           1.031
  24099114.355    -1281156.309 4   -841428.94821         6.250           0.313
 91  5 28 17 58 44.9990000  0  6G18G16G11G19G 2G 6
  21237238.683     3676491.855 7   2864796.50023        24.000           2.563
  23511335.792    -3590132.041 5  -2660589.61421        10.000           0.500
  23206326.347    -5240356.950 6  -4083388.55421        16.750           0.781
  20528024.948     -367741.790 6   -286552.11922        19.000           1.750
  22876660.050    -7426405.243 6  -5581454.38321        16.750           0.969
  24091554.690    -1320887.948 4   -872388.60821         7.000           0.406
 91  5 28 17 58 59.9990000  0  6G18G16G11G19G 2G 6
  21243347.433     3708595.900 7   2889812.60823        23.500           2.625
  23507531.745    -3610154.720 5  -2676191.68021        10.750           0.406
  23201190.745    -5267344.274 6  -4104417.62421        17.750           0.750
  20528342.042     -366084.266 6   -285260.54522        18.500           1.688
  22867773.605    -7473106.831 6  -5617845.20321        17.250           1.000
  24083996.198    -1360596.079 4   -903329.95721         6.500           0.375
 91  5 28 17 59 14.9990000  0  6G18G16G11G19G 2G 6
  21249475.901     3740800.723 7   2914907.25722        24.000           2.438
  23503746.886    -3630039.905 5  -2691686.62321        11.250           0.625
  23196080.394    -5294202.678 6  -4125346.24421        17.750           0.719
  20528666.503     -364365.992 6   -283921.63622        18.500           1.688
  22858897.730    -7519746.740 6  -5654187.95421        17.250           0.938
  24076445.550    -1400280.771 4   -934253.04421         6.500           0.281
 91  5 28 17 59 29.9990000  0  6G18G16G11G19G 2G 6
  21255623.886     3773103.722 7   2940078.40423        24.000           2.500
  23499988.472    -3649789.980 5  -2707076.27721        11.250           0.469
  23190992.589    -5320934.335 6  -4146176.09821        17.500           0.688
  20529005.831     -362589.505 6   -282537.37322        18.000           1.688
  22850032.987    -7566327.496 6  -5690484.61721        17.250           0.938
  24068893.964    -1439944.526 3   -965159.83821         6.000           0.344
 91  5 28 17 59 44.9990000  0  6G18G16G11G19G 2G 6
  21261789.339     3805504.784 7   2965325.96422        23.750           2.406
  23496253.589    -3669405.091 5  -2722360.76921        11.750           0.563
  23185929.378    -5347539.117 6  -4166907.08521        17.250           0.688
  20529353.144     -360754.879 6   -281107.79422        18.500           1.656
  22841180.347    -7612849.154 6  -5726735.22921        17.250           0.875
  24061350.831    -1479587.585 3   -996050.46821         5.750           0.281
 91  5 28 17 59 59.9990000  0  6G18G16G11G19G 2G 6
  21267973.940     3838010.120 7   2990654.78022        23.500           2.438
  23492550.886    -3688878.610 6  -2737534.93221        12.000           0.469
  23180890.651    -5374010.276 6  -4187533.94721        16.500           0.750
  20529714.456     -358855.736 6   -279627.94722        18.750           1.781
  22832340.206    -7659305.053 6  -5762934.59521        17.750           0.938
  24053811.761    -1519203.495 3  -1026919.95521         5.750           0.188
 91  5 28 18  0 14.9990000  0  6G18G16G11G19G 2G 6
  21274179.253     3870617.550 7   3016063.14622        23.750           2.406
  23488870.425    -3708212.494 5  -2752600.28321        11.750           0.500
  23175878.730    -5400349.482 6  -4208057.98121        16.000           0.781
  20530086.628     -356894.126 6   -278099.42722        19.000           1.781
  22823512.417    -7705696.900 6  -5799084.06021        18.250           0.875
  24046280.870    -1558794.111 4  -1057769.77321         6.250           0.250
 91  5 28 18  0 29.9990000  0  6G18G16G11G19G 2G 6
  21280405.222     3903328.434 7   3041552.12622        24.250           2.406
  23485218.230    -3727405.261 5  -2767555.68021        11.500           0.469
  23170894.089    -5426555.149 6  -4228477.96221        16.750           0.844
  20530473.972     -354868.775 6   -276521.23322        17.500           1.656
  22814695.940    -7752023.244 6  -5835182.48821        18.250           0.938
  24038751.995    -1598358.229 4  -1088598.94421         6.750           0.281
 91  5 28 18  0 44.9990000  0  6G18G16G11G19G 2G 6
  21286648.651     3936141.922 7   3067121.05422        24.750           2.344
  23481591.636    -3746457.747 5  -2782401.77021        11.250           0.469
  23165931.198    -5452627.704 6  -4248794.23221        17.000           0.813
  20530868.964     -352780.326 6   -274893.88122        18.250           1.656
  22805894.495    -7798284.804 6  -5871230.42321        18.000           0.938
  24031231.605    -1637896.571 4  -1119408.00821         7.000           0.188
 91  5 28 18  0 59.9990000  0  6G18G16G11G19G 2G 6
  21292913.667     3969060.884 7   3092772.17522        24.250           2.375
  23477993.714    -3765366.149 5  -2797135.58221        11.250           0.531
  23160995.878    -5478563.464 6  -4269003.91321        17.250           0.750
  20531279.237     -350625.465 6   -273214.77122        17.750           1.750
  22797103.909    -7844478.075 6  -5907225.14421        17.750           0.969
  24023709.894    -1677405.803 4  -1150194.41721         7.000           0.250
 91  5 28 18  1 14.9990000  0  6G18G16G11G19G 2G 6
  21299197.800     4002086.714 7   3118506.56622        23.500           2.406
  23474423.542    -3784129.052 5  -2811756.01621        11.750           0.531
  23156088.269    -5504360.802 6  -4289105.73321        17.250           0.781
  20531701.917     -348402.620 6   -271482.69422        19.000           1.719
  22788326.784    -7890601.169 6  -5943165.19321        17.000           1.000
  24016197.245    -1716884.599 4  -1180957.07621         7.000           0.219
 91  5 28 18  1 29.9990000  0  6G18G16G11G19G 2G 6
  21305502.558     4035223.270 7   3144327.23322        23.000           2.313
  23470876.198    -3802742.194 5  -2826259.75821        11.500           0.438
  23151204.151    -5530015.220 6  -4309096.18021        16.250           0.750
  20532142.159     -346107.616 6   -269694.37922        18.500           1.719
  22779564.784    -7936649.935 6  -5979047.30921        16.500           1.094
  24008694.776    -1756328.742 4  -1211692.70721         7.000           0.281
 91  5 28 18  1 44.9990000  0  6G18G16G11G19G 2G 6
  21311828.401     4068459.535 7   3170225.58922        23.250           2.406
  23467368.331    -3821216.341 6  -2840655.19121        12.000           0.438
  23146348.042    -5555537.323 6  -4328983.51721        16.250           0.813
  20532587.237     -343751.401 6   -267858.37222        19.500           1.719
  22770812.698    -7982635.086 6  -6014879.85421        16.250           1.031
  24001190.464    -1795749.068 4  -1242409.81621         6.250           0.156
 91  5 28 18  1 59.9990000  0  6G18G16G11G19G 2G 6
  21318172.901     4101805.778 7   3196209.65122        23.000           2.313
  23463877.269    -3839541.154 5  -2854934.25121        11.500           0.531
  23141518.667    -5580916.539 6  -4348759.51721        16.750           0.875
  20533050.308     -341323.730 6   -265966.68822        19.500           1.750
  22762076.073    -8028546.304 6  -6050654.79021        16.000           1.156
  23993695.464    -1835135.453 4  -1273100.45421         6.750           0.219
 91  5 28 18  2 14.9990000  0  6G18G16G11G19G 2G 6
  21324538.909     4135261.297 7   3222278.85722        22.750           2.188
  23460421.683    -3857716.897 6  -2869097.16621        12.250           0.469
  23136715.620    -5606152.894 6  -4368424.20721        16.750           0.844
  20533525.245     -338824.871 7   -264019.53122        20.000           1.781
  22753352.565    -8074383.898 6  -6086372.36021        16.750           1.125
  23986202.722    -1874488.144 4  -1303764.85721         6.500           0.188
 91  5 28 18  2 29.9990000  0  6G18G16G11G19G 2G 6
  21330927.042     4168828.278 7   3248434.91122        23.500           2.219
  23456992.628    -3875741.244 6  -2883142.09821        12.000           0.438
  23131941.948    -5631243.879 6  -4387975.61121        16.750           0.938
  20534016.417     -336252.534 6   -262015.12122        19.000           1.813
  22744646.300    -8120145.205 6  -6122030.49321        17.000           1.250
  23978727.331    -1913804.928 4  -1334401.25421         7.000           0.250
 91  5 28 18  2 44.9990000  0  6G18G16G11G19G 2G 6
  21337336.886     4202507.172 7   3274678.17522        24.250           2.250
  23453593.073    -3893613.656 6  -2897068.67321        12.000           0.438
  23127194.776    -5656188.736 6  -4407413.15421        16.250           0.938
  20534519.105     -333606.382 6   -259953.18922        19.500           1.750
  22735953.292    -8165829.735 6  -6157628.79721        16.750           1.313
  23971248.987    -1953085.422 4  -1365009.40121         6.750           0.281
 91  5 28 18  2 59.9990000  0  6G18G16G11G19G 2G 6
  21343766.519     4236298.852 7   3301009.32922        24.250           2.219
  23450221.972    -3911332.873 6  -2910875.85821        12.000           0.406
  23122475.987    -5680986.296 6  -4426735.90821        16.000           0.906
  20535037.292     -330885.389 6   -257832.94322        19.000           1.813
  22727273.472    -8211436.181 6  -6193166.24521        17.000           1.375
  23963779.612    -1992328.592 4  -1395588.48521         7.000           0.344
 91  5 28 18  3 14.9990000  0  6G18G16G11G19G 2G 6
  21350219.386     4270205.168 7   3327429.81122        24.500           2.125
  23446875.097    -3928896.880 5  -2924562.08421        11.250           0.469
  23117785.073    -5705634.201 6  -4445942.05321        16.500           0.844
  20535568.019     -328087.524 6   -255652.79222        19.000           1.781
  22718610.206    -8256962.437 6  -6228641.21521        17.000           1.344
  23956321.612    -2031532.432 4  -1426136.88921         7.000           0.281
 91  5 28 18  3 29.9990000  0  6G18G16G11G19G 2G 6
  21356694.511     4304233.202 7   3353945.13722        24.500           2.156
  23443564.855    -3946297.982 5  -2938121.38821        11.750           0.406
  23113126.409    -5730124.507 6  -4465025.40121        16.750           0.875
  20536116.300     -325205.347 6   -253406.94822        19.500           1.750
  22709962.401    -8302400.952 6  -6264047.81821        16.750           1.313
  23948870.276    -2070689.456 4  -1456648.80321         6.500           0.281
 91  5 28 18  3 44.9990000  0  6G18G16G11G19G 2G 6
  21363192.487     4338379.506 7   3380552.62222        24.250           2.094
  23440285.230    -3963539.505 5  -2951556.33721        11.750           0.438
  23108494.940    -5754460.436 6  -4483988.45021        17.000           0.813
  20536680.714     -322242.213 6   -251098.02222        19.750           1.875
  22701332.167    -8347755.045 6  -6299388.63321        16.250           1.344
  23941425.831    -2109803.104 4  -1487126.93621         6.250           0.219
 91  5 28 18  3 59.9990000  0  6G18G16G11G19G 2G 6
  21369712.901     4372642.759 7   3407251.23822        24.500           2.125
  23437029.183    -3980622.638 5  -2964867.86021        11.000           0.406
  23103893.019    -5778642.726 6  -4502831.78221        16.500           0.875
  20537260.440     -319199.128 6   -248726.79422        19.750           1.750
  22692717.651    -8393025.569 6  -6334664.33421        16.000           1.219
  23933993.042    -2148874.415 4  -1517572.05921         6.250           0.313
 91  5 28 18  4 14.9990000  0  6G18G16G11G19G 2G 6
  21376255.558     4407029.115 7   3434045.78122        24.750           2.063
  23433812.784    -3997541.129 5  -2978051.09221        10.750           0.500
  23099320.909    -5802664.990 6  -4521550.41321        16.750           0.844
  20537856.042     -316069.852 6   -246288.40822        19.750           1.844
  22684120.862    -8438206.200 6  -6369869.98121        16.500           1.125
  23926564.425    -2187897.128 4  -1547979.34221         6.250           0.188
 91  5 28 18  4 29.9990000  0  6G18G16G11G19G 2G 6
  21382824.409     4441539.712 7   3460937.13122        25.250           2.031
  23430625.065    -4014293.743 5  -2991105.07721        10.750           0.469
  23094780.644    -5826525.774 6  -4540143.23221        16.750           0.875
  20538468.792     -312853.396 6   -243782.09522        19.000           1.844
  22675540.042    -8483295.623 6  -6405004.56521        16.500           1.250
  23919148.573    -2226870.272 4  -1578348.00521         6.250           0.438
 91  5 28 18  4 44.9990000  0  6G18G16G11G19G 2G 6
  21389413.628     4476170.901 7   3487922.44922        24.500           2.063
  23427471.386    -4030883.421 5  -3004032.10721        11.250           0.375
  23090272.308    -5850228.057 6  -4558612.52721        17.000           0.813
  20539095.972     -309552.771 6   -241210.18622        19.500           1.844
  22666977.003    -8528296.829 6  -6440070.40821        16.250           1.063
  23911739.612    -2265797.000 4  -1608680.49421         6.500           0.250
 91  5 28 18  4 59.9990000  0  6G18G16G11G19G 2G 6
  21396027.026     4510924.963 7   3515003.50022        24.500           2.031
  23424344.269    -4047307.584 5  -3016830.14521        10.750           0.406
  23085789.565    -5873769.235 6  -4576956.30221        16.500           0.938
  20539741.901     -306165.526 6   -238570.78422        18.750           1.875
  22658430.980    -8573207.397 6  -6475065.62621        17.250           1.094
  23904343.995    -2304675.007 3  -1638975.01421         6.000           0.188
 91  5 28 18  5 14.9990000  0  6G18G16G11G19G 2G 6
  21402665.292     4545807.602 7   3542184.75222        24.250           2.219
  23421248.690    -4063560.168 5  -3029494.49221        10.500           0.313
  23081342.706    -5897143.124 6  -4595169.70621        15.750           0.844
  20540402.815     -302685.945 6   -235859.43622        19.500           1.875
  22649902.222    -8618021.278 6  -6509985.50621        18.000           1.125
  23896956.925    -2343498.395 3  -1669226.94921         5.500           0.344
 91  5 28 18  5 29.9990000  0  6G18G16G11G19G 2G 6
  21409324.433     4580804.593 7   3569455.10722        24.500           2.125
  23418187.550    -4079655.735 5  -3042036.49521        10.000           0.406
  23076923.440    -5920363.490 6  -4613263.49021        16.000           1.000
  20541083.253     -299128.007 6   -233087.03522        18.000           1.875
  22641391.292    -8662752.451 6  -6544840.94221        18.750           1.188
  23889578.894    -2382281.298 3  -1699447.37121         6.000           0.313
 91  5 28 18  5 44.9990000  0  6G18G16G11G19G 2G 6
  21416006.917     4615924.737 7   3596821.42922        24.250           2.250
  23415157.894    -4095584.718 5  -3054448.68021         9.750           0.313
  23072535.730    -5943420.822 6  -4631230.23021        16.250           0.906
  20541772.605     -295482.625 6   -230246.49222        19.000           1.875
  22632896.222    -8707391.591 6  -6579624.65821        19.000           1.219
  23882207.511    -2421014.459 4  -1729629.02221         6.500           0.313
 91  5 28 18  5 59.9990000  0  6G18G16G11G19G 2G 6
  21422716.112     4651173.986 7   3624288.34222        24.500           2.094
  23412156.261    -4111340.928 5  -3066726.23621         9.500           0.344
  23068181.230    -5966308.947 6  -4649065.12421        17.000           0.875
  20542486.292     -291743.940 6   -227333.25022        18.250           1.813
  22624420.823    -8751932.597 6  -6614331.90921        19.250           1.188
  23874843.776    -2459691.918 3  -1759767.26521         6.000           0.406
 91  5 28 18  6 14.9990000  0  6G18G16G11G19G 2G 6
  21429447.901     4686553.418 7   3651856.70022        24.250           2.094
  23409195.534    -4126923.277 5  -3078868.32021        10.250           0.281
  23063857.964    -5989026.335 6  -4666766.98321        17.000           0.844
  20543213.980     -287910.586 6   -224346.23422        18.500           1.688
  22615963.870    -8796373.944 6  -6648961.50821        19.000           1.188
  23867495.237    -2498312.553 4  -1789861.24721         6.250           0.344
 91  5 28 18  6 29.9990000  0  6G18G16G11G19G 2G 6
  21436204.019     4722058.127 7   3679522.67222        24.000           2.094
  23406259.503    -4142336.581 5  -3090878.69321        10.250           0.406
  23059566.003    -6011577.747 6  -4684339.51521        17.000           0.906
  20543961.737     -283987.337 6   -221289.16822        18.000           1.844
  22607524.448    -8840720.419 6  -6683517.18021        19.250           1.219
  23860153.784    -2536881.269 3  -1819914.76321         5.750           0.313
 91  5 28 18  6 44.9990000  0  6G18G16G11G19G 2G 6
  21442982.550     4757682.749 7   3707282.09422        23.500           2.188
  23403357.784    -4157585.508 5  -3102760.96721        10.500           0.469
  23055306.050    -6033967.791 6  -4701786.28921        17.250           0.906
  20544723.519     -279979.182 6   -218165.94522        18.250           1.688
  22599102.722    -8884976.821 6  -6718002.66221        18.750           1.313
  23852828.542    -2575402.950 4  -1849931.62521         6.750           0.344
 91  5 28 18  6 59.9990000  0  6G18G16G11G19G 2G 6
  21449784.542     4793429.277 7   3735136.50722        23.500           2.094
  23400488.659    -4172667.893 5  -3114513.46921        10.000           0.406
  23051077.237    -6056194.128 6  -4719105.51521        17.750           0.969
  20545504.175     -275884.111 6   -214974.99022        18.250           1.656
  22590697.222    -8929140.862 6  -6752416.17021        17.750           1.438
  23845503.300    -2613875.575 4  -1879910.27721         6.500           0.438
 91  5 28 18  7 14.9990000  0  6G18G16G11G19G 2G 6
  21456610.550     4829293.350 7   3763082.51222        23.750           2.031
  23397646.417    -4187588.070 5  -3126139.58921         9.250           0.406
  23046877.761    -6078260.791 6  -4736300.30821        18.000           0.969
  20546298.019     -271706.309 6   -211719.56622        18.750           1.688
  22582311.081    -8973216.744 6  -6786760.98022        18.000           1.500
  23838192.745    -2652303.416 4  -1909854.01721         6.500           0.375
 91  5 28 18  7 29.9990000  0  6G18G16G11G19G 2G 6
  21463457.167     4865273.388 7   3791118.86822        23.500           2.156
  23394842.823    -4202347.485 5  -3137640.42921         9.500           0.313
  23042708.823    -6100168.914 6  -4753371.56721        18.500           0.906
  20547109.167     -267447.427 6   -208400.96322        18.000           1.719
  22573939.097    -9017205.865 6  -6821038.19621        18.000           1.469
  23830888.112    -2690687.899 4  -1939763.95321         6.500           0.375
 91  5 28 18  7 44.9990000  0  6G18G16G11G19G 2G 6
  21470326.300     4901371.683 7   3819247.38022        24.000           2.250
  23392056.862    -4216943.479 5  -3149013.92521         8.750           0.438
  23038570.081    -6121915.821 6  -4770317.20321        18.000           0.906
  20547935.081     -263104.798 6   -205017.10022        19.000           1.719
  22565586.323    -9061105.640 6  -6855245.78021        17.250           1.375
  23823591.948    -2729026.614 4  -1969638.24521         6.750           0.344
 91  5 28 18  7 59.9990000  0  6G18G16G11G19G 2G 6
  21477217.581     4937583.795 7   3847464.58022        23.750           2.125
  23389312.987    -4231380.448 5  -3160263.51421         8.750           0.438
  23034462.776    -6143505.394 6  -4787140.24421        18.000           0.844
  20548779.253     -258682.464 6   -201571.13322        18.250           1.719
  22557248.730    -9104920.009 6  -6889386.81121        17.250           1.438
  23816303.472    -2767323.748 4  -1999480.12921         7.000           0.406
 91  5 28 18  8 14.9990000  0  6G18G16G11G19G 2G 6
  21484129.823     4973907.996 7   3875769.12022        24.000           2.156
  23386593.269    -4245659.432 5  -3171389.99121         8.000           0.406
  23030383.909    -6164938.841 6  -4803841.62321        17.750           0.844
  20549632.347     -254181.874 6   -198064.18422        19.250           1.719
  22548928.659    -9148650.446 6  -6923462.44321        17.500           1.344
  23809020.901    -2805580.689 4  -2029290.71021         7.000           0.469
 91  5 28 18  8 29.9990000  0  6G18G16G11G19G 2G 6
  21491062.823     5010340.901 7   3904158.35922        24.250           1.938
  23383902.144    -4259783.672 5  -3182395.87521         7.500           0.281
  23026333.581    -6186219.159 6  -4820423.68921        17.250           0.781
  20550502.011     -249606.332 6   -194498.83122        19.000           1.781
  22540620.839    -9192300.052 6  -6957475.08921        17.250           1.313
  23801753.058    -2843800.904 5  -2059072.66421         8.000           0.344
 91  5 28 18  8 44.9990000  0  6G18G16G11G19G 2G 6
  21498016.011     5046876.047 7   3932627.26822        24.750           1.875
  23381248.284    -4273759.373 5  -3193286.03721         7.750           0.375
  23022311.831    -6207352.493 6  -4836891.21521        16.750           0.938
  20551386.003     -244962.321 6   -190880.12722        18.750           1.750
  22532329.315    -9235874.937 6  -6991429.52021        17.000           1.406
  23794485.065    -2881990.530 4  -2088830.80321         7.250           0.406
 91  5 28 18  8 59.9990000  0  6G18G16G11G19G 2G 6
  21504986.472     5083514.121 7   3961176.38522        24.250           1.844
  23378614.542    -4287585.893 5  -3204059.94021         7.750           0.375
  23018317.667    -6228337.676 6  -4853243.29121        16.500           1.000
  20552283.073     -240248.921 6   -187207.35222        18.750           1.813
  22524050.511    -9279374.012 6  -7025324.86321        17.000           1.406
  23787223.964    -2920148.840 4  -2118564.52421         7.250           0.469
 91  5 28 18  9 14.9990000  0  6G18G16G11G19G 2G 6
  21511977.823     5120249.288 7   3989801.15022        24.250           1.813
  23376022.894    -4301268.524 5  -3214721.71421         8.500           0.469
  23014350.933    -6249180.007 6  -4869484.05621        16.250           0.875
  20553193.526     -235471.476 6   -183484.67422        18.750           1.719
  22515787.011    -9322802.699 6  -7059165.36721        17.000           1.469
  23779966.769    -2958281.266 5  -2148278.07021         7.500           0.469
 91  5 28 18  9 29.9990000  0  6G18G16G11G19G 2G 6
  21518987.120     5157080.468 7   4018500.74022        24.500           1.875
  23373435.495    -4314808.121 5  -3225272.04821         8.000           0.313
  23010413.870    -6269880.171 6  -4885614.05121        16.500           0.844
  20554115.190     -230630.890 6   -179712.80422        18.750           1.750
  22507535.456    -9366161.766 6  -7092951.62422        16.750           1.500
  23772715.112    -2996388.811 5  -2177972.23921         8.000           0.438
 91  5 28 18  9 44.9990000  0  6G18G16G11G19G 2G 6
  21526015.573     5194012.501 7   4047278.91522        24.500           1.875
  23370894.714    -4328199.637 5  -3235707.00421         9.000           0.375
  23006502.206    -6290433.038 6  -4901629.26921        16.000           0.906
  20555048.722     -225722.398 6   -175888.01522        18.750           1.719
  22499298.933    -9409446.049 6  -7126679.60421        17.250           1.375
  23765465.901    -3034466.581 4  -2207643.21521         7.250           0.375
 91  5 28 18  9 59.9990000  0  6G18G16G11G19G 2G 6
  21533061.003     5231035.954 7   4076128.32522        24.250           2.031
  23368365.644    -4341452.289 5  -3246033.73221         9.250           0.344
  23002616.980    -6310847.472 6  -4917536.60921        15.750           0.875
  20555993.581     -220755.089 6   -172017.39522        18.500           1.844
  22491073.792    -9452664.862 6  -7160356.56921        18.000           1.469
  23758225.722    -3072523.693 4  -2237298.09421         7.250           0.375
 91  5 28 18 10 14.9990000  0  6G18G16G11G19G 2G 6
  21540122.628     5268151.179 7   4105049.23622        23.750           1.813
  23365869.683    -4354565.850 5  -3256252.09021         9.000           0.313
  22998757.800    -6331123.079 6  -4933335.78321        15.500           1.000
  20556949.628     -215728.794 6   -168100.82022        18.750           1.813
  22482862.659    -9495817.767 6  -7193982.19221        18.500           1.375
  23750986.487    -3110560.024 4  -2266936.74821         7.250           0.406
 91  5 28 18 10 29.9990000  0  6G18G16G11G19G 2G 6
  21547202.472     5305356.031 7   4134039.98922        24.000           2.000
  23363405.190    -4367541.870 5  -3266363.25621         8.250           0.188
  22994926.011    -6351261.080 6  -4949027.71921        15.750           0.875
  20557917.151     -210644.904 6   -164139.36022        18.750           1.781
  22474663.706    -9538906.092 6  -7227557.48221        18.750           1.281
  23743757.245    -3148577.080 5  -2296560.39121         7.500           0.313
 91  5 28 18 10 44.9990000  0  6G18G16G11G19G 2G 6
  21554298.745     5342642.845 7   4163094.60822        23.500           1.969
  23360958.964    -4380387.577 5  -3276372.90321         7.500           0.344
  22991120.136    -6371268.811 6  -4964618.15721        16.750           0.969
  20558894.847     -205510.984 6   -160138.91422        19.000           1.688
  22466474.058    -9581937.261 6  -7261088.24321        19.000           1.313
  23736521.644    -3186582.435 4  -2326174.92621         7.000           0.406
 91  5 28 18 10 59.9990000  0  6G18G16G11G19G 2G 6
  21561411.253     5380025.364 7   4192223.80222        23.500           2.000
  23358543.565    -4393089.139 5  -3286270.24721         8.000           0.313
  22987339.456    -6391132.241 6  -4980096.14521        16.500           0.938
  20559883.831     -200313.303 6   -156088.78922        18.750           1.750
  22458298.761    -9624897.448 6  -7294563.68621        19.500           1.219
  23729292.839    -3224562.314 4  -2355769.59821         7.000           0.375
 91  5 28 18 11 14.9990000  0  6G18G16G11G19G 2G 6
  21568541.409     5417494.245 7   4221420.29722        23.000           1.844
  23356146.315    -4405655.947 5  -3296062.56421         8.000           0.406
  22983584.972    -6410860.443 6  -4995468.77221        16.250           1.031
  20560882.269     -195061.094 6   -151996.17822        19.000           1.781
  22450135.956    -9667795.775 7  -7327990.93821        20.000           1.281
  23722073.011    -3262525.968 5  -2385351.64221         8.000           0.375
 91  5 28 18 11 29.9990000  0  6G18G16G11G19G 2G 6
  21575686.964     5455047.341 7   4250682.41822        23.000           1.938
  23353789.151    -4418089.558 5  -3305751.09621         9.250           0.375
  22979856.401    -6430454.823 6  -5010737.11121        15.750           1.000
  20561895.878     -189756.012 6   -147862.35522        18.250           1.750
  22441985.136    -9710633.734 7  -7361371.14321        20.000           1.281
  23714850.464    -3300475.099 5  -2414922.36821         8.500           0.344
 91  5 28 18 11 44.9990000  0  6G18G16G11G19G 2G 6
  21582851.128     5492688.502 7   4280013.16322        22.500           1.875
  23351443.784    -4430386.076 5  -3315332.78621         8.500           0.313
  22976155.362    -6449911.099 6  -5025897.83421        16.000           0.906
  20562912.073     -184393.949 6   -143684.13922        19.250           1.781
  22433844.433    -9753407.121 7  -7394701.03321        20.000           1.344
  23707632.183    -3338405.789 5  -2444478.74221         8.750           0.313
 91  5 28 18 11 59.9990000  0  6G18G16G11G19G 2G 6
  21590028.433     5530408.451 7   4309405.29222        22.500           1.938
  23349130.339    -4442554.544 5  -3324814.72221         8.750           0.406
  22972476.901    -6469238.335 6  -5040958.01021        16.750           0.844
  20563945.933     -178984.273 6   -139468.82022        18.500           1.844
  22425716.198    -9796125.039 6  -7427987.70221        19.750           1.375
  23700413.487    -3376327.181 5  -2474027.86021         8.500           0.313
 91  5 28 18 12 14.9990000  0  6G18G16G11G19G 2G 6
  21597223.112     5568219.388 7   4338868.31722        22.000           1.875
  23346840.737    -4454582.527 5  -3334187.18521         8.500           0.375
  22968826.894    -6488423.901 6  -5055907.80021        17.500           0.875
  20564983.612     -173514.476 6   -135206.65122        19.750           1.656
  22417600.589    -9838774.907 6  -7461221.33921        19.500           1.406
  23693201.620    -3414226.887 5  -2503560.09021         8.000           0.375
 91  5 28 18 12 29.9990000  0  6G18G16G11G19G 2G 6
  21604433.386     5606103.528 7   4368388.37722        22.000           1.875
  23344571.112    -4466487.434 5  -3343463.74021         8.750           0.313
  22965199.011    -6507485.018 6  -5070760.62621        17.750           0.906
  20566033.355     -168002.024 6   -130911.24922        19.000           1.781
  22409493.503    -9881374.231 6  -7494415.59321        19.500           1.375
  23685989.956    -3452122.384 5  -2533089.01821         7.750           0.281
 91  5 28 18 12 44.9990000  0  6G18G16G11G19G 2G 6
  21611658.026     5644070.658 7   4397973.12622        22.250           2.000
  23342334.870    -4478259.748 5  -3352636.97821         8.500           0.313
  22961597.089    -6526411.771 6  -5085508.74521        16.750           0.906
  20567092.151     -162437.357 6   -126575.15622        19.500           1.781
  22401398.769    -9923913.264 6  -7527562.86721        19.250           1.406
  23678782.933    -3490004.013 5  -2562607.16421         7.500           0.406
 91  5 28 18 12 59.9990000  0  6G18G16G11G19G 2G 6
  21618897.214     5682111.071 7   4427614.96122        22.750           1.875
  23340116.042    -4489908.702 5  -3361714.08621         8.500           0.344
  22958019.206    -6545213.174 6  -5100159.17521        17.000           0.875
  20568162.167     -156829.777 6   -122205.63122        18.750           1.875
  22393313.675    -9966401.064 6  -7560670.21321        19.000           1.406
  23671571.269    -3527881.113 4  -2592121.73921         6.750           0.438
 91  5 28 18 13 14.9990000  0  6G18G16G11G19G 2G 6
  21626150.112     5720225.284 7   4457314.30722        23.250           1.906
  23337927.089    -4501433.456 5  -3370694.40821         8.750           0.219
  22954465.448    -6563888.299 6  -5114711.22521        17.000           0.938
  20569233.675     -151178.485 6   -117802.04322        19.000           1.781
  22385240.714   -10008836.796 6  -7593736.98921        19.750           1.406
  23664367.706    -3565753.063 4  -2621632.31621         6.750           0.438
 91  5 28 18 13 29.9990000  0  6G18G16G11G19G 2G 6
  21633419.589     5758424.515 7   4487079.90122        23.500           1.938
  23335753.972    -4512822.560 5  -3379569.04021         8.000           0.344
  22950937.753    -6582425.696 6  -5129155.94521        16.250           0.938
  20570320.940     -145472.001 6   -113355.44322        19.000           1.906
  22377174.995   -10051208.860 6  -7626754.15721        19.500           1.469
  23657156.534    -3603608.345 4  -2651129.89621         7.000           0.375
 91  5 28 18 13 44.9990000  0  6G18G16G11G19G 2G 6
  21640705.159     5796714.653 7   4516916.33022        23.250           1.875
  23333617.511    -4524069.941 5  -3388333.24821         7.750           0.344
  22947437.370    -6600818.998 6  -5143488.38021        16.000           1.000
  20571417.409     -139704.133 6   -108861.01322        19.500           1.969
  22369125.300   -10093511.002 6  -7659716.84321        19.750           1.438
  23649962.987    -3641440.894 5  -2680609.78621         8.000           0.500
 91  5 28 18 13 59.9990000  0  6G18G16G11G19G 2G 6
  21648006.870     5835081.051 7   4546812.18522        23.250           1.938
  23331502.894    -4535190.103 5  -3396998.29521         8.250           0.313
  22943961.870    -6619082.386 6  -5157719.59721        16.000           0.875
  20572525.776     -133889.512 6   -104330.14322        18.000           1.844
  22361087.495   -10135757.794 7  -7692636.39821        20.000           1.438
  23642767.870    -3679265.258 5  -2710083.29921         8.500           0.469
 91  5 28 18 14 14.9990000  0  6G18G16G11G19G 2G 6
  21655320.440     5873517.945 7   4576762.96822        23.500           1.906
  23329409.089    -4546188.320 5  -3405568.36221         8.250           0.313
  22940511.175    -6637221.216 6  -5171853.74921        16.250           0.906
  20573637.222     -128033.734 6    -99767.21222        19.250           1.750
  22353056.628   -10177954.534 6  -7725516.95422        19.500           1.531
  23635570.534    -3717087.004 5  -2739554.77821         9.000           0.500
 91  5 28 18 14 29.9990000  0  6G18G16G11G19G 2G 6
  21662648.995     5912025.911 7   4606769.13122        22.750           1.813
  23327339.698    -4557063.702 5  -3414042.68121         8.250           0.250
  22937083.011    -6655234.413 6  -5185890.00621        16.500           0.906
  20574760.745     -122135.707 6    -95171.35522        18.750           1.844
  22345036.315   -10220100.222 6  -7758357.72122        19.750           1.688
  23628376.409    -3754905.280 5  -2769023.55221         9.500           0.438
 91  5 28 18 14 44.9990000  0  6G18G16G11G19G 2G 6
  21669990.511     5950609.302 7   4636834.06622        22.750           1.781
  23325293.550    -4567812.197 5  -3422418.12221         8.250           0.313
  22933678.636    -6673117.521 6  -5199824.90321        16.250           0.969
  20575890.722     -116191.206 6    -90539.28822        18.750           1.781
  22337026.175   -10262190.476 6  -7791155.29922        19.250           1.563
  23621178.667    -3792715.811 5  -2798486.28221         9.000           0.406
 91  5 28 18 14 59.9990000  0  6G18G16G11G19G 2G 6
  21677347.620     5989268.828 7   4666958.32722        23.000           1.813
  23323271.269    -4578432.314 5  -3430693.55621         8.250           0.313
  22930301.565    -6690869.054 6  -5213657.25821        16.500           0.969
  20577034.269     -110199.108 6    -85870.13422        18.250           1.844
  22329027.573   -10304223.840 6  -7823908.54322        18.750           1.594
  23613985.698    -3830517.353 5  -2827942.00421         8.750           0.500
 91  5 28 18 15 14.9990000  0  6G18G16G11G19G 2G 6
  21684717.636     6027998.964 7   4697137.62422        23.000           1.750
  23321276.222    -4588929.640 5  -3438873.27521         8.250           0.375
  22926948.183    -6708494.301 6  -5227391.22121        16.750           1.063
  20578180.995     -104164.873 6    -81168.14422        19.500           1.781
  22321039.808   -10346205.727 6  -7856621.67422        19.250           1.875
  23606789.815    -3868315.368 5  -2857394.98221         7.750           0.406
 91  5 28 18 15 29.9990000  0  6G18G16G11G19G 2G 6
  21692102.464     6066808.035 7   4727378.42222        22.250           1.781
  23319298.503    -4599295.583 5  -3446950.64621         7.750           0.250
  22923619.581    -6725984.394 6  -5241019.86921        17.500           0.969
  20579338.964      -98079.631 6    -76426.40722        19.000           1.688
  22313062.269   -10388127.444 6  -7889287.91622        19.750           1.594
  23599600.901    -3906101.335 5  -2886838.54421         7.750           0.531
 91  5 28 18 15 44.9990000  0  6G18G16G11G19G 2G 6
  21699502.456     6105695.573 7   4757680.36022        22.000           1.781
  23317351.214    -4609530.504 5  -3454925.92321         7.750           0.344
  22920317.105    -6743339.473 6  -5254543.30321        17.750           1.000
  20580506.597      -91943.923 6    -71645.34422        19.500           1.844
  22305095.089   -10429989.228 6  -7921907.45822        19.750           1.688
  23592414.550    -3943875.496 5  -2916272.93121         8.000           0.375
 91  5 28 18 15 59.9990000  0  6G18G16G11G19G 2G 6
  21706917.605     6144661.661 7   4788043.50722        22.250           1.875
  23315439.292    -4619633.800 5  -3462798.65021         8.500           0.375
  22917040.823    -6760559.027 6  -5267961.14221        18.250           0.938
  20581683.159      -85757.331 6    -66824.64122        19.250           1.844
  22297139.862   -10471790.750 6  -7954480.04722        19.750           1.719
  23585225.089    -3981637.690 5  -2945697.99421         7.500           0.406
 91  5 28 18 16 14.9990000  0  6G18G16G11G19G 2G 6
  21714347.542     6183702.542 7   4818464.92622        21.750           1.750
  23313531.011    -4629609.244 5  -3470571.73921         8.000           0.281
  22913788.519    -6777646.608 6  -5281276.13721        18.000           0.906
  20582868.901      -79523.562 6    -61967.16822        19.000           1.781
  22289196.940   -10513535.557 7  -7987008.44022        20.250           1.625
  23578041.425    -4019391.594 4  -2975116.58421         7.250           0.469
 91  5 28 18 16 29.9990000  0  6G18G16G11G19G 2G 6
  21721791.480     6222820.540 7   4848946.43122        21.750           1.781
  23311661.151    -4639454.160 5  -3478243.12021         8.500           0.313
  22910562.409    -6794599.414 6  -5294486.11321        17.500           1.063
  20584064.940      -73239.953 6    -57070.86422        19.250           1.781
  22281265.417   -10555220.885 7  -8019490.48722        20.500           1.625
  23570858.448    -4057134.528 5  -3004526.63221         7.500           0.375
 91  5 28 18 16 44.9990000  0  6G18G16G11G19G 2G 6
  21729250.222     6262018.100 7   4879489.94622        21.500           1.750
  23309809.339    -4649166.121 5  -3485810.87921         8.500           0.344
  22907363.167    -6811414.520 6  -5307588.79221        17.750           1.063
  20585270.964      -66903.910 6    -52133.70122        19.250           1.813
  22273344.503   -10596843.689 7  -8051923.81622        21.250           1.594
  23563682.839    -4094863.850 5  -3033926.09121         8.000           0.500
 91  5 28 18 16 59.9990000  0  6G18G16G11G19G 2G 6
  21736723.105     6301286.258 7   4910088.47022        21.250           1.656
  23307989.214    -4658753.938 5  -3493281.90521         8.750           0.281
  22904186.831    -6828100.508 6  -5320590.85521        17.500           0.969
  20586485.737      -60524.093 6    -47162.43322        18.750           1.906
  22265434.089   -10638412.619 7  -8084315.16622        22.000           1.594
  23556503.276    -4132588.321 5  -3063321.75121         8.500           0.500
 91  5 28 18 17 14.9990000  0  6G18G16G11G19G 2G 6
  21744209.472     6340627.597 7   4940744.01822        21.250           1.594
  23306191.558    -4668214.742 5  -3500653.96221         9.500           0.281
  22901037.253    -6844654.441 6  -5333490.02821        17.750           0.844
  20587707.565      -54097.799 6    -42154.94522        19.000           1.969
  22257534.683   -10679924.950 7  -8116662.41922        22.500           1.750
  23549323.480    -4170305.276 5  -3092711.56121         8.000           0.469
 91  5 28 18 17 29.9990000  0  6G18G16G11G19G 2G 6
  21751711.112     6380048.837 7   4971461.82322        20.750           1.500
  23304413.362    -4677541.379 5  -3507921.49021         9.250           0.344
  22897914.769    -6861069.171 6  -5346280.72521        18.250           0.969
  20588942.065      -47618.029 6    -37105.78722        18.500           1.875
  22249647.659   -10721373.524 7  -8148959.99122        23.250           1.594
  23542147.425    -4208007.667 5  -3122090.00021         7.750           0.406
 91  5 28 18 17 44.9990000  0  6G18G16G11G19G 2G 6
  21759227.214     6419544.866 7   5002237.90222        21.250           1.531
  23302665.511    -4686738.678 5  -3515088.20121         9.500           0.281
  22894815.730    -6877349.457 6  -5358966.66921        17.500           0.969
  20590183.112      -41089.702 6    -32018.79922        19.000           1.875
  22241770.940   -10762763.157 7  -8181211.62722        22.250           1.656
  23534977.581    -4245700.488 5  -3151461.01421         8.000           0.313
 91  5 28 18 17 59.9990000  0  6G18G16G11G19G 2G 6
  21766757.003     6459116.867 7   5033073.18822        21.250           1.594
  23300936.980    -4695805.425 5  -3522153.19521         9.000           0.313
  22891744.026    -6893493.464 6  -5371546.41321        18.250           1.000
  20591438.722      -34511.261 6    -26892.75222        18.000           1.938
  22233906.237   -10804092.277 7  -8213416.11222        22.000           1.625
  23527809.503    -4283382.224 5  -3180823.38021         8.000           0.344
 91  5 28 18 18 14.9990000  0  6G18G16G11G19G 2G 6
  21774302.605     6498769.803 7   5063971.53822        21.000           1.500
  23299233.112    -4704736.658 5  -3529112.61021         8.250           0.281
  22888699.464    -6909496.176 6  -5384016.06121        18.250           1.031
  20592696.964      -27877.875 6    -21723.89522        19.250           1.938
  22226053.269   -10845356.089 7  -8245569.70922        21.250           1.500
  23520636.894    -4321048.047 5  -3210173.35321         7.750           0.313
 91  5 28 18 18 29.9990000  0  6G18G16G11G19G 2G 6
  21781862.456     6538495.750 7   5094926.76722        21.500           1.656
  23297559.698    -4713540.004 5  -3535972.37521         8.500           0.344
  22885678.823    -6925364.980 6  -5396381.36421        18.250           1.063
  20593969.776      -21197.002 6    -16518.03422        18.750           1.875
  22218212.503   -10886561.841 7  -8277678.05422        20.750           1.656
  23513471.901    -4358705.426 5  -3239516.75221         8.250           0.438
 91  5 28 18 18 44.9990000  0  6G18G16G11G19G 2G 6
  21789437.190     6578299.084 7   5125942.30222        21.500           1.594
  23295910.401    -4722210.814 5  -3542728.85821         8.750           0.344
  22882685.597    -6941095.111 6  -5408638.61221        18.000           1.031
  20595249.542      -14464.073 6    -11271.60422        19.000           1.906
  22210382.972   -10927704.836 7  -8309737.50222        21.000           1.688
  23506313.222    -4396349.786 5  -3268849.98221         8.500           0.438
 91  5 28 18 18 59.9990000  0  6G18G16G11G19G 2G 6
  21797025.495     6618176.432 7   5157015.51422        21.750           1.594
  23294286.472    -4730752.277 5  -3549384.54221         9.000           0.313
  22879717.394    -6956689.489 6  -5420790.07221        17.750           1.000
  20596540.073       -7682.350 6     -5987.15722        18.250           2.031
  22202564.800   -10968788.296 7  -8341750.56122        20.750           1.656
  23499146.925    -4433984.465 5  -3298175.66521         8.000           0.406
 91  5 28 18 19 14.9990000  0  6G18G16G11G19G 2G 6
  21804627.940     6658131.039 7   5188148.93222        21.750           1.688
  23292687.237    -4739160.690 5  -3555936.55221         8.250           0.375
  22876777.214    -6972144.396 6  -5432832.85621        18.250           1.094
  20597840.339        -848.136 6      -661.80622        18.750           1.875
  22194761.151   -11009808.473 7  -8373714.31322        20.750           1.594
  23491988.394    -4471605.860 5  -3327491.01021         8.500           0.469
 91  5 28 18 19 29.9990000  0  6G18G16G11G19G 2G 6
  21812245.198     6698159.517 7   5219339.90722        22.000           1.594
  23291109.542    -4747439.342 5  -3562387.45121         8.000           0.375
  22873861.815    -6987462.975 6  -5444769.41621        18.000           1.000
  20599152.034        6035.199 6      4701.81422        18.250           1.969
  22186964.331   -11050768.560 7  -8405631.24022        20.500           1.813
  23484832.917    -4509217.250 5  -3356798.54621         8.500           0.406
 91  5 28 18 19 44.9990000  0  6G18G16G11G19G 2G 6
  21819875.917     6738260.163 7   5250587.12222        22.000           1.594
  23289563.519    -4755589.761 5  -3568738.44221         9.250           0.438
  22870972.292    -7002646.573 6  -5456600.78721        18.000           0.938
  20600469.253       12966.292 6     10102.65422        18.500           1.875
  22179180.987   -11091669.848 6  -8437502.34722        19.750           1.719
  23477678.542    -4546820.202 5  -3386099.51921         8.750           0.469
 91  5 28 18 19 59.9990000  0  6G18G16G11G19G 2G 6
  21827521.105     6778432.904 7   5281890.51922        22.000           1.531
  23288031.917    -4763611.888 5  -3574989.46321         9.000           0.438
  22868107.644    -7017694.857 6  -5468326.72221        17.250           1.031
  20601799.581       19945.198 6     15540.74722        18.250           1.969
  22171408.308   -11132511.887 7  -8469327.28322        20.000           1.625
  23470520.003    -4584414.484 5  -3415393.74521         8.250           0.438
 91  5 28 18 20 14.9990000  0  6G18G16G11G19G 2G 6
  21835180.542     6818685.154 7   5313255.86222        21.500           1.563
  23286534.792    -4771498.173 5  -3581134.61521         9.000           0.375
  22865270.011    -7032599.974 6  -5479941.09821        17.000           1.031
  20603136.417       26979.545 6     21022.04322        18.750           1.844
  22163649.253   -11173287.051 7  -8501100.11822        20.250           1.531
  23463371.284    -4621992.463 5  -3444675.25421         8.250           0.469
 91  5 28 18 20 29.9990000  0  6G18G16G11G19G 2G 6
  21842854.581     6859012.720 7   5344679.88822        21.250           1.656
  23285057.940    -4779252.873 5  -3587177.23521         8.750           0.375
  22862461.495    -7047365.846 6  -5491446.96321        17.250           1.063
  20604487.565       34065.240 6     26543.34622        17.500           1.969
  22155903.651   -11213999.526 7  -8532824.09322        21.250           1.594
  23456228.253    -4659558.388 5  -3473947.38521         9.250           0.375
 91  5 28 18 20 44.9990000  0  6G18G16G11G19G 2G 6
  21850542.542     6899409.475 7   5376157.84022        21.500           1.625
  23283607.425    -4786881.299 5  -3593121.45821         8.500           0.344
  22859677.987    -7061998.030 6  -5502848.65821        17.750           1.000
  20605842.526       41196.822 6     32100.40722        18.500           1.906
  22148167.065   -11254654.897 7  -8564503.58622        22.000           1.531
  23449077.183    -4697117.755 5  -3503214.40721         8.500           0.344
 91  5 28 18 20 59.9990000  0  6G18G16G11G19G 2G 6
  21858242.940     6939880.218 7   5407693.43722        21.250           1.688
  23282181.823    -4794378.775 5  -3598963.64921         8.750           0.281
  22856920.386    -7076491.337 6  -5514142.14821        18.000           0.969
  20607208.026       48379.282 6     37697.11822        18.500           1.875
  22140441.862   -11295247.966 7  -8596134.53422        22.000           1.563
  23441933.761    -4734665.741 5  -3532472.54521         8.500           0.375
 91  5 28 18 21 14.9990000  0  6G18G16G11G19G 2G 6
  21865959.800     6980430.488 7   5439291.00522        21.250           1.625
  23280776.487    -4801739.717 5  -3604699.46021         8.250           0.313
  22854190.183    -7090839.973 6  -5525322.90921        18.000           0.938
  20608586.292       55618.192 6     43337.81122        18.000           2.031
  22132730.698   -11335772.912 7  -8627712.39222        22.500           1.656
  23434790.800    -4772196.566 5  -3561717.33021         8.250           0.313
 91  5 28 18 21 29.9990000  0  6G18G16G11G19G 2G 6
  21873688.940     7021049.314 7   5470941.98622        20.750           1.500
  23279402.730    -4808974.349 5  -3610336.84121         8.750           0.344
  22851484.120    -7105054.515 6  -5536399.18521        17.750           1.063
  20609972.526       62902.868 6     49014.17022        18.000           2.125
  22125030.855   -11376240.336 7  -8659245.42822        22.500           1.688
  23427644.003    -4809720.997 5  -3590957.13521         7.500           0.281
 91  5 28 18 21 44.9990000  0  6G18G16G11G19G 2G 6
  21881433.722     7061745.444 7   5502653.21222        21.250           1.625
  23278053.487    -4816073.892 5  -3615868.95321         8.750           0.375
  22848806.722    -7119125.844 6  -5547363.86221        17.750           1.000
  20611369.448       70242.342 6     54733.22022        18.750           1.969
  22117341.698   -11416641.193 7  -8690726.58522        21.500           1.781
  23420507.917    -4847230.112 4  -3620184.95221         7.250           0.250
 91  5 28 18 21 59.9990000  0  6G18G16G11G19G 2G 6
  21889192.401     7102511.103 7   5534418.61022        21.000           1.594
  23276724.136    -4823046.114 5  -3621301.86621         8.500           0.375
  22846154.487    -7133061.273 6  -5558222.64321        17.500           1.094
  20612776.081       77628.952 6     60489.00322        18.500           2.031
  22109665.526   -11456982.947 7  -8722161.68722        21.500           1.844
  23413370.901    -4884731.491 4  -3649406.80721         7.250           0.313
 91  5 28 18 22 14.9990000  0  6G18G16G11G19G 2G 6
  21896961.831     7143339.135 7   5566232.60922        21.000           1.594
  23275420.175    -4829897.931 5  -3626640.96021         8.750           0.438
  22843528.792    -7146867.458 6  -5568980.70221        18.000           1.094
  20614187.644       85055.931 6     66276.24422        18.500           2.000
  22101997.480   -11497272.421 7  -8753556.05022        21.250           1.781
  23406236.487    -4922231.921 5  -3678627.88021         8.500           0.375
 91  5 28 18 22 29.9990000  0  6G18G16G11G19G 2G 6
  21904746.136     7184249.417 7   5598110.70622        20.750           1.656
  23274142.987    -4836609.493 5  -3631870.74921         8.750           0.438
  22840929.112    -7160524.252 6  -5579622.36821        17.500           1.063
  20615614.612       92543.405 6     72110.62622        18.000           1.938
  22094345.058   -11537489.382 7  -8784893.91722        22.250           1.656
  23399107.362    -4959711.479 5  -3707832.72021         8.500           0.344
 91  5 28 18 22 44.9990000  0  6G18G16G11G19G 2G 6
  21912546.292     7225237.985 7   5630049.80622        21.500           1.656
  23272890.612    -4843184.315 5  -3636993.99421         9.000           0.281
  22838356.636    -7174035.180 6  -5590150.35521        17.250           1.156
  20617048.745      100087.469 6     77989.10222        18.500           2.031
  22086704.839   -11577637.396 7  -8816178.06822        21.500           1.563
  23391980.644    -4997173.823 5  -3737024.13421         9.250           0.406
 91  5 28 18 22 59.9990000  0  6G18G16G11G19G 2G 6
  21920361.175     7266307.721 7   5662052.14922        21.000           1.531
  23271667.315    -4849619.448 5  -3642008.40521         8.250           0.344
  22835814.089    -7187397.207 6  -5600562.32421        17.500           0.938
  20618495.159      107690.971 6     83913.89222        18.250           1.906
  22079079.362   -11617713.496 7  -8847406.18122        22.000           1.594
  23384850.808    -5034616.055 5  -3766199.88721         9.000           0.406
 91  5 28 18 23 14.9990000  0  6G18G16G11G19G 2G 6
  21928190.480     7307447.721 7   5694109.24522        21.000           1.625
  23270468.667    -4855925.737 5  -3646922.42621         8.000           0.344
  22833299.855    -7200620.819 6  -5610866.43921        17.750           0.906
  20619950.675      115343.544 6     89876.91622        18.250           2.031
  22071464.948   -11657728.195 7  -8878586.45422        22.250           1.531
  23377730.862    -5072048.896 5  -3795368.28421         8.750           0.438
 91  5 28 18 23 29.9990000  0  6G18G16G11G19G 2G 6
  21936031.956     7348663.604 7   5726225.46622        20.250           1.563
  23269295.839    -4862097.154 5  -3651731.36221         9.000           0.344
  22830810.526    -7213699.972 6  -5621057.99321        18.500           1.063
  20621419.870      123050.959 6     95882.67522        18.500           1.938
  22063862.300   -11697675.536 7  -8909714.23722        21.750           1.563
  23370607.581    -5109466.451 5  -3824524.78821         8.500           0.313
 91  5 28 18 23 44.9990000  0  6G18G16G11G19G 2G 6
  21943889.323     7389951.931 7   5758398.13822        21.000           1.500
  23268145.605    -4868136.613 5  -3656437.42721         9.750           0.281
  22828349.003    -7226637.549 6  -5631139.22821        18.250           1.031
  20622895.144      130810.359 6    101928.94422        18.500           2.000
  22056272.683   -11737558.476 7  -8940791.82322        21.000           1.656
  23363489.987    -5146871.712 5  -3853671.73121         8.750           0.344
 91  5 28 18 23 59.9990000  0  6G18G16G11G19G 2G 6
  21951763.417     7431324.714 7   5790636.62921        21.250           1.438
  23267020.315    -4874032.363 5  -3661031.53221         9.750           0.313
  22825914.019    -7239421.373 6  -5641100.65321        18.000           0.969
  20624386.550      138633.852 6    108025.15522        17.250           2.000
  22048698.315   -11777364.844 7  -8971809.75322        21.250           1.719
  23356374.628    -5184252.685 5  -3882799.74021         8.000           0.313
 91  5 28 18 24 14.9990000  0  6G18G16G11G19G 2G 6
  21959651.839     7472780.944 7   5822940.14222        20.500           1.500
  23265926.464    -4879785.316 5  -3665514.35221         9.750           0.281
  22823511.276    -7252052.172 6  -5650942.83121        18.000           1.063
  20625884.237      146520.453 6    114170.54122        18.750           1.906
  22041137.815   -11817095.182 7  -9002768.43322        21.000           1.875
  23349264.550    -5221610.141 5  -3911909.41021         8.250           0.438
 91  5 28 18 24 29.9990000  0  6G18G16G11G19G 2G 6
  21967555.308     7514316.023 7   5855305.08521        20.750           1.438
  23264857.026    -4885399.797 5  -3669889.27821         9.250           0.344
  22821136.620    -7264534.110 6  -5660669.02021        18.250           1.094
  20627399.222      154465.743 6    120361.65822        17.500           2.000
  22033590.097   -11856753.868 7  -9033671.27522        20.750           1.906
  23342164.144    -5258948.502 5  -3941004.19421         8.500           0.406
 91  5 28 18 24 44.9990000  0  6G18G16G11G19G 2G 6
  21975471.862     7555912.560 7   5887717.92622        20.500           1.531
  23263810.987    -4890893.182 5  -3674169.83921         9.250           0.406
  22818786.644    -7276884.090 6  -5670292.38321        18.250           1.031
  20628916.378      162452.800 6    126585.31522        18.500           2.000
  22026054.605   -11896357.938 7  -9064531.56722        21.000           1.969
  23335058.292    -5296284.887 5  -3970097.46221         8.500           0.406
 91  5 28 18 24 59.9990000  0  6G18G16G11G19G 2G 6
  21983399.714     7597579.086 7   5920185.29921        20.250           1.438
  23262793.261    -4896256.266 5  -3678348.87121         8.750           0.469
  22816462.980    -7289093.185 6  -5679805.96821        18.250           1.000
  20630447.034      170490.491 6    132848.43822        17.750           2.000
  22018530.839   -11935898.549 7  -9095342.39822        21.250           1.938
  23327960.151    -5333610.466 5  -3999182.29621         9.000           0.375
 91  5 28 18 25 14.9990000  0  6G18G16G11G19G 2G 6
  21991343.800     7639330.185 7   5952718.57121        20.500           1.313
  23261801.589    -4901474.439 5  -3682415.00221         8.750           0.500
  22814169.589    -7301146.621 6  -5689198.25721        18.000           1.000
  20631987.073      178593.346 6    139162.34122        17.750           2.000
  22011022.323   -11975360.976 7  -9126092.32222        21.000           1.813
  23320857.706    -5370910.651 5  -4028247.36321         8.500           0.344
 91  5 28 18 25 29.9990000  0  6G18G16G11G19G 2G 6
  21999305.534     7681155.547 7   5985309.72021        20.750           1.469
  23260833.628    -4906557.766 5  -3686376.03321         8.000           0.375
  22811903.347    -7313054.102 6  -5698476.81921        18.500           1.031
  20633543.362      186751.425 6    145519.26922        16.750           1.938
  22003524.019   -12014754.942 7  -9156788.89622        21.000           1.719
  23313765.925    -5408195.297 5  -4057300.31821         8.750           0.281
 91  5 28 18 25 44.9990000  0  6G18G16G11G19G 2G 6
  22007275.269     7723045.531 7   6017951.21821        20.250           1.469
  23259884.487    -4911516.200 4  -3690239.78221         7.250           0.406
  22809664.417    -7324825.363 6  -5707649.23321        19.000           1.031
  20635101.448      194954.909 6    151911.57622        17.500           1.938
  21996039.269   -12054090.093 7  -9187439.64722        21.750           1.813
  23306671.105    -5445474.274 5  -4086348.84821         8.500           0.313
 91  5 28 18 25 59.9990000  0  6G18G16G11G19G 2G 6
  22015260.526     7765000.455 7   6050643.31622        20.250           1.500
  23258971.003    -4916348.978 5  -3694005.61121         8.500           0.250
  22807450.698    -7336459.259 6  -5716714.60921        19.750           1.031
  20636671.230      203204.916 6    158340.13922        17.250           1.969
  21988564.995   -12093365.486 7  -9218043.83622        21.000           1.688
  23299572.480    -5482746.486 5  -4115392.10321         8.500           0.219
 91  5 28 18 26 14.9990000  0  6G18G16G11G19G 2G 6
  22023258.159     7807033.969 7   6083396.65222        20.000           1.531
  23258076.831    -4921042.113 5  -3697662.60721         9.000           0.344
  22805265.378    -7347941.505 6  -5725661.82021        18.750           1.031
  20638252.651      211515.536 6    164815.93222        18.000           1.938
  21981105.675   -12132566.871 7  -9248590.35122        21.250           1.719
  23292484.878    -5519998.002 5  -4144419.25221         8.500           0.344
 91  5 28 18 26 29.9990000  0  6G18G16G11G19G 2G 6
  22031270.980     7849139.389 7   6116206.01521        20.000           1.438
  23257206.503    -4925602.442 5  -3701216.12021         9.250           0.281
  22803107.933    -7359278.965 6  -5734496.19621        18.750           1.031
  20639847.034      219879.860 6    171333.56622        17.250           2.031
  21973658.097   -12171700.987 7  -9279084.45422        21.000           1.750
  23285402.073    -5557235.628 5  -4173435.57721         9.000           0.406
 91  5 28 18 26 44.9990000  0  6G18G16G11G19G 2G 6
  22039295.620     7891313.263 6   6149068.72522        19.750           1.500
  23256366.800    -4930032.833 5  -3704668.37821         9.500           0.406
  22800975.573    -7370474.740 6  -5743220.17921        18.750           0.969
  20641446.284      228294.703 6    177890.56822        18.250           1.906
  21966222.636   -12210771.091 7  -9309528.66722        20.500           1.813
  23278317.050    -5594462.636 5  -4202443.61821         9.000           0.313
 91  5 28 18 26 59.9990000  0  6G18G16G11G19G 2G 6
  22047334.042     7933556.397 6   6181985.40022        19.750           1.500
  23255549.417    -4934332.706 5  -3708018.92921         9.000           0.344
  22798874.917    -7381527.771 7  -5751832.93121        20.250           0.875
  20643058.972      236761.024 6    184487.68922        18.000           1.938
  21958801.675   -12249776.288 7  -9339922.30222        20.250           1.875
  23271234.753    -5631678.123 5  -4231442.67621         8.750           0.375
 91  5 28 18 27 14.9990000  0  6G18G16G11G19G 2G 6
  22055386.034     7975871.637 6   6214958.27221        19.750           1.469
  23254754.378    -4938498.457 5  -3711264.97121         9.250           0.406
  22796800.120    -7392434.448 7  -5760331.64621        20.750           1.031
  20644678.855      245282.166 6    191127.52522        18.250           2.000
  21951391.347   -12288712.726 7  -9370262.35722        20.250           1.844
  23264150.347    -5668878.597 5  -4260430.03021         7.500           0.469
 91  5 28 18 27 29.9990000  0  6G18G16G11G19G 2G 6
  22063452.253     8018256.583 7   6247985.45322        20.500           1.594
  23253987.690    -4942532.754 5  -3714408.60221         9.250           0.406
  22794749.683    -7403196.970 7  -5768718.04221        20.000           0.969
  20646311.980      253856.077 6    197808.47922        17.000           1.844
  21943994.855   -12327582.652 7  -9400550.58822        20.500           1.750
  23257077.511    -5706066.436 5  -4289407.54721         7.750           0.375
 91  5 28 18 27 44.9990000  0  6G18G16G11G19G 2G 6
  22071530.909     8060707.310 7   6281063.89121        20.500           1.469
  23253244.636    -4946439.325 5  -3717452.69921         8.250           0.406
  22792728.558    -7413818.998 6  -5776994.94621        19.750           0.938
  20647950.386      262478.878 6    204527.53522        17.750           1.875
  21936610.136   -12366389.854 7  -9430789.93922        20.500           1.719
  23250004.589    -5743245.416 5  -4318378.13221         8.000           0.406
 91  5 28 18 27 59.9990000  0  6G18G16G11G19G 2G 6
  22079622.120     8103224.063 7   6314193.77522        20.250           1.500
  23252514.589    -4950217.620 5  -3720396.83821         7.500           0.406
  22790735.011    -7424299.705 6  -5785161.72421        19.500           0.844
  20649603.464      271151.303 6    211285.25022        17.500           2.063
  21929238.339   -12405133.506 7  -9460979.77022        20.750           1.781
  23242931.300    -5780414.792 5  -4347341.25421         8.250           0.438
 91  5 28 18 28 14.9990000  0  6G18G16G11G19G 2G 6
  22087721.956     8145796.459 7   6347367.01521        20.000           1.469
  23251824.081    -4953877.813 5  -3723248.96421         8.000           0.438
  22788764.956    -7434649.408 6  -5793226.42321        19.250           0.906
  20651258.714      279862.996 6    218073.56722        17.750           1.938
  21921875.698   -12443824.002 7  -9491128.18822        21.000           1.719
  23235854.253    -5817584.996 5  -4376305.02221         8.500           0.313
 91  5 28 18 28 29.9990000  0  6G18G16G11G19G 2G 6
  22095837.901     8188439.491 7   6380595.30422        20.000           1.500
  23251158.425    -4957404.783 5  -3725997.27321         9.250           0.469
  22786823.722    -7444852.758 6  -5801177.09021        19.250           0.906
  20652926.464      288629.059 6    224904.24422        18.000           1.906
  21914526.253   -12482445.987 7  -9521223.22322        21.000           1.781
  23228789.675    -5854740.854 5  -4405257.61321         9.500           0.281
 91  5 28 18 28 44.9990000  0  6G18G16G11G19G 2G 6
  22103964.933     8231153.821 6   6413879.14522        19.750           1.500
  23250513.058    -4960797.878 5  -3728641.22921         9.750           0.406
  22784909.776    -7454908.514 6  -5809012.74521        18.750           0.875
  20654605.808      297450.744 6    231778.27122        18.000           1.938
  21907188.628   -12520998.244 7  -9551263.91822        20.750           1.844
  23221717.901    -5891881.236 5  -4434198.15321         8.750           0.344
 91  5 28 18 28 59.9990000  0  6G18G16G11G19G 2G 6
  22112107.230     8273934.493 6   6447214.68321        19.750           1.406
  23249894.542    -4964062.197 5  -3731184.87521        10.000           0.375
  22783022.667    -7464821.537 6  -5816737.17521        19.000           0.938
  20656294.542      306322.982 6    238691.69122        18.250           1.875
  21899865.542   -12559485.698 7  -9581254.12322        20.500           1.750
  23214653.714    -5929011.097 5  -4463130.47521         8.750           0.313
 91  5 28 18 29 14.9990000  0  6G18G16G11G19G 2G 6
  22120261.081     8316783.358 7   6480603.35121        20.000           1.406
  23249289.745    -4967195.172 5  -3733626.14921         9.000           0.438
  22781164.940    -7474589.478 6  -5824348.55721        19.000           0.969
  20657993.175      315248.088 6    245646.30622        18.500           1.938
  21892553.769   -12597905.952 7  -9611191.96022        20.250           1.875
  23207586.714    -5966128.260 5  -4492052.93021         8.000           0.344
 91  5 28 18 29 29.9990000  0  6G18G16G11G19G 2G 6
  22128427.386     8359701.188 6   6514045.77221        19.750           1.406
  23248725.081    -4970195.534 5  -3735964.08621         9.000           0.375
  22779333.558    -7484211.120 6  -5831845.94521        18.750           1.000
  20659702.972      324227.262 6    252643.05822        17.750           1.875
  21885254.315   -12636257.771 7  -9641076.46822        20.500           1.813
  23200527.128    -6003231.525 5  -4520964.53121         7.500           0.344
 91  5 28 18 29 44.9990000  0  6G18G16G11G19G 2G 6
  22136607.323     8402687.010 7   6547541.17021        20.000           1.313
  23248178.300    -4973064.509 5  -3738199.68521         8.750           0.438
  22777531.425    -7493687.188 6  -5839229.89721        19.250           1.000
  20661420.511      333259.599 6    259681.22322        18.250           1.875
  21877971.034   -12674541.975 7  -9670908.29322        21.250           1.906
  23193469.558    -6040321.815 5  -4549866.02621         8.250           0.313
 91  5 28 18 29 59.9990000  0  6G18G16G11G19G 2G 6
  22144800.698     8445741.954 7   6581090.42321        20.750           1.438
  23247653.870    -4975801.156 5  -3740332.15821         8.500           0.313
  22775755.323    -7503016.177 6  -5846499.24721        19.000           0.875
  20663150.417      342346.585 6    266761.97722        17.500           1.938
  21870698.808   -12712757.148 7  -9700686.32822        21.250           1.906
  23186411.206    -6077397.729 5  -4578756.33521         8.250           0.375
 91  5 28 18 30 14.9990000  0  6G18G16G11G19G 2G 6
  22153007.011     8488863.642 7   6614691.69221        20.500           1.375
  23247162.792    -4978407.456 5  -3742363.04921         9.000           0.438
  22774005.980    -7512200.247 6  -5853655.66921        18.500           0.906
  20664887.862      351485.852 6    273883.46522        17.750           1.844
  21863438.980   -12750905.432 7  -9730412.24822        21.500           2.000
  23179366.761    -6114461.564 5  -4607637.23921         8.750           0.375
 91  5 28 18 30 29.9990000  0  6G18G16G11G19G 2G 6
  22161225.987     8532055.569 7   6648347.68521        20.250           1.313
  23246692.808    -4980879.649 5  -3744289.44821         9.000           0.469
  22772287.300    -7521235.434 6  -5860696.07221        18.750           0.813
  20666642.276      360681.372 6    281048.79322        17.250           1.906
  21856193.136   -12788982.840 7  -9760082.93122        20.750           2.063
  23172318.847    -6151509.448 5  -4636505.68121         8.750           0.313
 91  5 28 18 30 44.9990000  0  6G18G16G11G19G 2G 6
  22169459.730     8575317.641 7   6682058.33721        20.250           1.313
  23246244.956    -4983217.721 5  -3746111.34221         9.250           0.438
  22770596.097    -7530121.516 6  -5867620.30021        18.750           0.906
  20668397.737      369933.268 6    288258.04622        18.250           1.875
  21848961.097   -12826989.123 7  -9789698.18722        20.250           1.875
  23165264.784    -6188541.341 5  -4665361.67621         9.000           0.281
 91  5 28 18 30 59.9990000  0  6G18G16G11G19G 2G 6
  22177705.214     8618648.391 6   6715822.50221        19.250           1.219
  23245828.026    -4985422.871 5  -3747829.67021         9.750           0.469
  22768934.417    -7538859.641 6  -5874429.23521        18.250           0.844
  20670170.792      379240.337 6    295510.28622        17.500           1.906
  21841742.636   -12864925.357 7  -9819258.87122        20.750           1.719
  23158223.980    -6225558.388 5  -4694206.10021         9.000           0.375
 91  5 28 18 31 14.9990000  0  6G18G16G11G19G 2G 6
  22185962.011     8662046.025 6   6749638.78021        18.500           1.125
  23245429.362    -4987496.996 5  -3749445.89521         9.000           0.500
  22767298.011    -7547451.422 6  -5881124.14421        18.250           1.063
  20671951.784      388600.917 6    302804.22522        18.250           1.938
  21834535.956   -12902793.306 7  -9848766.35122        21.750           1.813
  23151181.026    -6262562.276 5  -4723040.29321         9.500           0.375
 91  5 28 18 31 29.9990000  0  6G18G16G11G19G 2G 6
  22194233.745     8705511.103 6   6783507.60721        18.750           1.188
  23245059.362    -4989439.144 5  -3750959.27321         8.250           0.469
  22765691.745    -7555895.807 6  -5887704.19821        18.500           1.125
  20673744.112      398015.876 6    310140.53522        17.750           1.938
  21827342.784   -12940591.934 7  -9878219.82122        22.250           2.000
  23144143.464    -6299552.070 5  -4751863.49621         9.500           0.250
 91  5 28 18 31 44.9990000  0  6G18G16G11G19G 2G 6
  22202518.136     8749045.855 6   6817430.73421        18.750           1.219
  23244718.597    -4991247.006 5  -3752368.02821         8.500           0.406
  22764113.183    -7564190.167 6  -5894167.33721        18.500           1.063
  20675544.105      407487.650 6    317521.12422        18.000           2.031
  21820164.761   -12978318.750 7  -9907617.31922        22.750           2.000
  23137104.425    -6336525.367 5  -4780673.85021         9.500           0.344
 91  5 28 18 31 59.9990000  0  6G18G16G11G19G 2G 6
  22210814.737     8792649.088 6   6851407.22721        18.750           1.313
  23244399.433    -4992921.641 5  -3753672.95221         8.500           0.344
  22762563.948    -7572335.456 6  -5900514.31521        19.250           1.063
  20677359.456      417015.263 6    324945.22222        17.750           1.875
  21812997.269   -13015974.661 7  -9936959.57222        22.250           2.156
  23130076.597    -6373483.099 5  -4809472.05421         9.500           0.219
 91  5 28 18 32 14.9990000  0  6G18G16G11G19G 2G 6
  22219127.276     8836326.796 6   6885441.75221        19.000           1.281
  23244108.425    -4994457.224 5  -3754869.52721         9.000           0.375
  22761044.784    -7580325.429 6  -5906740.27021        19.500           1.031
  20679182.628      426604.759 6    332417.54322        18.250           2.000
  21805847.464   -13053553.480 7  -9966241.74422        21.500           2.125
  23123044.183    -6410419.302 5  -4838253.49621        10.000           0.344
 91  5 28 18 32 29.9990000  0  6G18G16G11G19G 2G 6
  22227452.034     8880073.889 6   6919530.33621        19.250           1.219
  23243837.370    -4995858.393 5  -3755961.36121         8.500           0.313
  22759551.925    -7588164.584 6  -5912848.70521        18.750           1.031
  20681019.589      436251.901 6    339934.78022        18.000           1.938
  21798709.690   -13091059.400 7  -9995467.11022        21.000           2.188
  23116019.284    -6447338.418 5  -4867021.59421        10.250           0.375
 91  5 28 18 32 44.9990000  0  6G18G16G11G19G 2G 6
  22235789.940     8923887.775 6   6953670.97421        19.000           1.219
  23243601.105    -4997127.288 5  -3756950.11821         8.750           0.313
  22758088.214    -7595855.121 6  -5918841.34021        18.500           1.031
  20682865.784      445954.287 6    347495.06722        18.750           1.938
  21791586.315   -13128494.847 7 -10024637.56622        20.750           1.969
  23108998.292    -6484242.611 5  -4895778.11821        10.250           0.469
 91  5 28 18 32 59.9990000  0  6G18G16G11G19G 2G 6
  22244139.284     8967764.967 6   6987860.94121        18.750           1.188
  23243385.534    -4998267.339 5  -3757838.50821         8.750           0.438
  22756653.519    -7603400.396 6  -5924720.77821        18.750           1.031
  20684724.948      455708.487 6    355095.72622        17.750           1.938
  21784475.417   -13165863.288 7 -10053755.81022        21.000           1.969
  23101972.558    -6521135.573 5  -4924525.82721        10.250           0.500
 91  5 28 18 33 14.9990000  0  6G18G16G11G19G 2G 6
  22252500.370     9011704.145 6   7022099.20121        18.500           1.250
  23243190.308    -4999279.974 5  -3758627.59021         8.750           0.344
  22755242.675    -7610801.579 6  -5930487.94521        18.500           1.094
  20686587.706      465513.266 6    362735.80122        18.500           1.906
  21777376.620   -13203165.746 7 -10082822.63822        21.750           1.969
  23094960.495    -6558018.379 5  -4953265.65921        10.750           0.219
 91  5 28 18 33 29.9990000  0  6G18G16G11G19G 2G 6
  22260875.464     9055715.627 6   7056393.80721        18.000           1.219
  23243023.105    -5000154.552 5  -3759309.08521         8.750           0.438
  22753864.980    -7618047.880 6  -5936134.41621        18.750           1.094
  20688463.230      475379.375 6    370423.66222        18.750           1.938
  21770293.847   -13240391.427 7 -10111829.65122        22.500           1.969
  23087942.987    -6594880.475 5  -4981989.34521        10.250           0.375
 91  5 28 18 33 44.9990000  0  6G18G16G11G19G 2G 6
  22269263.667     9099793.129 6   7090739.85621        18.000           1.219
  23242881.167    -5000897.288 5  -3759887.86821         8.750           0.375
  22752513.964    -7625145.234 6  -5941664.82921        18.500           1.031
  20690353.644      485300.985 6    378154.77822        18.500           1.938
  21763222.425   -13277546.299 7 -10140781.48322        22.250           2.125
  23080930.675    -6631727.800 5  -5010701.52421        10.750           0.469
 91  5 28 18 33 59.9990000  0  6G18G16G11G19G 2G 6
  22277662.542     9143930.511 6   7125132.56621        18.000           1.188
  23242761.776    -5001514.123 5  -3760368.53521         8.250           0.406
  22751192.464    -7632099.534 6  -5947083.76421        19.250           1.031
  20692250.308      495271.867 6    385924.28622        18.500           2.031
  21756164.456   -13314636.235 7 -10169682.71922        22.250           1.969
  23073914.472    -6668566.281 5  -5039406.80021        10.750           0.469
 91  5 28 18 34 14.9990000  0  6G18G16G11G19G 2G 6
  22286074.245     9188134.350 6   7159577.06021        17.750           1.375
  23242673.183    -5001998.190 5  -3760745.76721         8.750           0.406
  22749897.878    -7638903.657 6  -5952385.68421        19.000           1.063
  20694157.003      505299.139 6    393737.73122        18.250           2.031
  21749119.667   -13351654.144 7 -10198527.82722        21.000           1.906
  23066914.526    -6705388.851 5  -5068099.70621        11.000           0.406
 91  5 28 18 34 29.9990000  0  6G18G16G11G19G 2G 6
  22294496.855     9232399.233 6   7194069.11121        17.500           1.313
  23242604.394    -5002355.443 5  -3761024.14921         8.500           0.469
  22748628.362    -7645562.921 6  -5957574.71821        18.500           1.000
  20696077.753      515377.573 6    401591.04322        18.250           2.031
  21742087.987   -13388605.218 7 -10227320.84822        21.250           1.938
  23059907.792    -6742200.869 5  -5096784.38321        11.000           0.438
 91  5 28 18 34 44.9990000  0  6G18G16G11G19G 2G 6
  22302933.347     9276729.036 6   7228611.76121        17.250           1.375
  23242558.542    -5002581.167 5  -3761200.05421         9.000           0.375
  22747390.987    -7652073.085 6  -5962647.56621        19.250           1.094
  20698004.214      525511.251 6    409487.40822        17.750           2.031
  21735070.183   -13425485.315 7                        21.500
  23052906.940    -6778998.294 5                        11.000
 91  5 28 18 34 59.9990000  0  6G18G16G11G19G 2G 6
  22311382.698     9321130.077 6   7263209.91521        17.250           1.313
  23242546.769    -5002669.010 5                         8.750
  22746181.183    -7658427.704 6  -5967599.21321        19.000           1.063
  20699945.823      535706.515 6    417431.75122        17.750           1.969
  21728067.792   -13462288.027 7                        22.250
  23045908.339    -6815774.728 5                        11.250
 91  5 28 18 35 14.9990000  0  6G18G16G11G19G 2G 6
  22319844.597     9365596.631 6   7297859.11421        16.750           1.344
  23242550.862    -5002624.800 5                         8.250
  22745001.151    -7664631.828 6  -5972433.59421        19.000           1.094
  20701895.909      545958.245 6    425420.09822        18.250           1.906
  21721077.737   -13499018.413 7                        22.500
  23038912.714    -6852535.294 5                        11.250
 91  5 28 18 35 29.9990000  0  6G18G16G11G19G 2G 6
  22328317.565     9410123.034 6   7332554.95521        17.000           1.219
  23242585.644    -5002453.876 5                         8.500
  22743847.909    -7670690.902 6  -5977154.94921        19.250           1.031
  20703857.050      556261.012 6    433448.21522        18.000           1.938
  21714100.761   -13535681.808 7 -10341925.90522        22.500           2.094
  23031917.011    -6889285.540 5  -5211395.71121        11.000           0.500
 91  5 28 18 35 44.9990000  0  6G18G16G11G19G 2G 6
  22336800.276     9454707.135 6   7367295.76521        16.500           1.219
  23242641.433    -5002158.331 5                         8.500
  22742722.034    -7676606.873 6  -5981764.79621        19.000           1.063
  20705826.253      566612.799 6    441514.52622        18.250           2.094
  21707137.886   -13572280.183 7 -10370444.10122        22.500           2.094
  23024925.034    -6926027.485 5  -5240025.75721        11.250           0.438
 91  5 28 18 35 59.9990000  0  6G18G16G11G19G 2G 6
  22345295.011     9499350.809 6   7402082.98221        16.000           1.063
  23242720.933    -5001736.384 5  -3760541.82821         8.750           0.375
  22741624.058    -7682377.566 6  -5986261.43321        19.250           1.125
  20707806.300      577015.771 6    449620.72922        18.000           2.031
  21700185.636   -13608811.232 7 -10398909.83422        22.250           2.000
  23017935.917    -6962759.010 5  -5268647.70821        11.250           0.406
 91  5 28 18 36 14.9990000  0  6G18G16G11G19G 2G 6
  22353804.612     9544064.656 6   7436924.88521        16.500           1.219
  23242822.753    -5001176.959 5  -3760105.91921         8.500           0.375
  22740554.815    -7687991.784 6  -5990636.14021        19.000           1.063
  20709796.878      587481.134 6    457775.55022        17.750           1.969
  21693248.081   -13645263.871 7 -10427314.47022        22.000           2.000
  23010950.987    -6999468.880 5  -5297252.77421        11.000           0.344
 91  5 28 18 36 29.9990000  0  6G18G16G11G19G 2G 6
  22362325.659     9588838.643 6   7471813.64521        16.250           1.313
  23242957.034    -5000489.783 5  -3759570.46921         8.500           0.406
  22739515.581    -7693459.371 6  -5994896.60021        19.500           1.156
  20711802.565      597998.956 6    465971.24822        17.250           2.156
  21686323.151   -13681647.957 7 -10455665.68622        21.750           2.125
  23003967.081    -7036167.070 5  -5325848.73821        11.000           0.406
 91  5 28 18 36 44.9990000  0  6G18G16G11G19G 2G 6
  22370858.370     9633673.863 6   7506750.11921        16.250           1.125
  23243112.386    -4999673.909 5  -3758934.74521         8.500           0.375
  22738502.972    -7698779.004 6  -5999041.77021        19.500           1.094
  20713810.831      608570.459 6    474208.77322        18.250           2.031
  21679413.917   -13717962.249 7 -10483962.51822        22.000           2.250
  22996988.472    -7072852.345 5  -5354434.63821        11.000           0.469
 91  5 28 18 36 59.9990000  0  6G18G16G11G19G 2G 6
  22379400.394     9678564.585 6   7541729.84021        16.500           1.125
  23243297.776    -4998734.759 5  -3758202.96121         9.000           0.344
  22737519.503    -7703955.994 7  -6003075.79421        20.000           1.063
  20715833.745      619190.174 6    482483.85722        17.250           2.031
  21672515.292   -13754211.991 7 -10512209.05022        22.250           2.375
  22990006.980    -7109530.002 5  -5383014.61621        11.250           0.375
 91  5 28 18 37 14.9990000  0  6G18G16G11G19G 2G 6
  22387955.331     9723521.125 6   7576760.85121        16.500           1.156
  23243494.847    -4997662.075 5  -3757367.10021         8.250           0.281
  22736562.019    -7708980.062 6  -6006990.65821        19.750           1.188
  20717863.175      629868.554 6    490804.66122        17.750           2.094
  21665632.284   -13790386.720 7 -10540397.12822        23.000           2.281
  22983030.605    -7146189.778 5  -5411580.65521        11.250           0.438
 91  5 28 18 37 29.9990000  0  6G18G16G11G19G 2G 6
  22396522.573     9768542.592 6   7611842.45621        16.750           1.094
  23243723.636    -4996456.673 5  -3756427.83421         8.250           0.406
  22735634.019    -7713851.699 6  -6010786.73521        19.500           1.156
  20719907.081      640605.150 6    499170.82622        17.500           2.000
  21658761.245   -13826486.980 7 -10568527.17522        23.000           2.250
  22976061.878    -7182832.234 5  -5440133.19421        11.000           0.469
 91  5 28 18 37 44.9990000  0  6G18G16G11G19G 2G 6
  22405103.089     9813634.231 6   7646978.73821        16.750           1.156
  23243982.269    -4995113.226 5  -3755381.00421         7.750           0.375
  22734737.886    -7718565.421 6  -6014459.76821        19.250           1.156
  20721961.222      651405.355 6    507586.55822        17.750           2.031
  21651907.761   -13862507.187 7 -10596594.83822        23.500           2.375
  22969088.769    -7219452.033 5  -5468668.06821        10.500           0.563
 91  5 28 18 37 59.9990000  0  6G18G16G11G19G 2G 6
  22413695.440     9858782.031 6   7682158.77821        17.000           1.219
  23244259.034    -4993645.576 5  -3754237.39521         8.000           0.406
  22733866.745    -7723134.786 6  -6018020.31121        18.750           1.125
  20724029.214      662255.363 6    516041.09922        16.500           2.000
  21645065.815   -13898461.164 7 -10624610.90422        24.250           2.281
  22962123.581    -7256062.776 5  -5497195.88821        10.250           0.500
 91  5 28 18 38 14.9990000  0  6G18G16G11G19G 2G 6
  22422298.878     9903991.743 6   7717387.07221        17.250           1.094
  23244559.855    -4992047.658 5  -3752992.29621         8.000           0.406
  22733026.831    -7727553.676 6  -6021463.59021        19.000           1.094
  20726101.894      673161.245 6    524539.17422        18.000           1.938
  21638237.761   -13934342.746 7 -10652570.55822        23.500           2.188
  22955158.394    -7292658.417 5  -5525711.93521        10.500           0.500
 91  5 28 18 38 29.9990000  0  6G18G16G11G19G 2G 6
  22430912.776     9949265.073 6   7752664.93521        16.500           1.000
  23244891.964    -4990318.017 5  -3751644.52921         8.250           0.406
  22732214.980    -7731820.289 6  -6024788.22521        18.750           1.125
  20728188.276      684125.117 6    533082.43822        17.500           1.938
  21631424.605   -13970149.848 7 -10680472.18022        24.750           2.156
  22948199.995    -7329236.995 5  -5554214.70421        10.750           0.500
 91  5 28 18 38 44.9990000  0  6G18G16G11G19G 2G 6
  22439539.612     9994599.456 6   7787990.37621        16.250           1.031
  23245250.690    -4988458.546 5  -3750195.61421         9.000           0.438
  22731430.120    -7735936.791 6  -6027995.88921        18.250           1.031
  20730286.065      695144.725 6    541669.13922        18.000           1.969
  21624624.230   -14005884.655 7 -10708317.46722        24.250           2.219
  22941238.151    -7365800.795 5  -5582705.95621        11.000           0.500
 91  5 28 18 38 59.9990000  0  6G18G16G11G19G 2G 6
  22448178.745    10039993.087 6   7823361.98121        16.500           1.031
  23245628.198    -4986470.793 5  -3748646.72021         8.750           0.469
  22730678.089    -7739904.535 6  -6031087.63121        18.500           0.969
  20732395.386      706218.564 6    550298.09222        17.000           1.969
  21617837.409   -14041548.603 7 -10736107.54522        24.250           2.281
  22934286.792    -7402351.241 5  -5611186.80821        11.000           0.531
 91  5 28 18 39 14.9990000  0  6G18G16G11G19G 2G 6
  22456827.808    10085440.561 6   7858775.53421        16.750           1.063
  23246026.198    -4984360.416 5  -3747002.31021         9.000           0.438
  22729949.331    -7743728.468 6  -6034067.32821        18.250           1.000
  20734509.081      717341.612 6    558965.38322        17.750           1.875
  21611062.972   -14077146.595 7 -10763846.22522        23.500           2.250
  22927331.925    -7438893.418 5  -5639661.21321        11.500           0.438
 91  5 28 18 39 29.9990000  0  6G18G16G11G19G 2G 6
  22465488.761    10130957.302 6   7894243.07221        16.500           1.000
  23246455.230    -4982112.054 5  -3745250.33521         9.000           0.375
  22729251.589    -7747393.313 6  -6036923.04821        18.500           1.031
  20736639.753      728529.206 6    567682.97422        17.750           1.875
  21604304.433   -14112663.288 7 -10791521.55122        22.750           2.375
  22920382.769    -7475412.080 5  -5668117.29921        11.250           0.500
 91  5 28 18 39 44.9990000  0  6G18G16G11G19G 2G 6
  22474161.331    10176533.216 6   7929756.71321        16.250           1.063
  23246901.245    -4979735.658 5  -3743398.62121         8.500           0.375
  22728581.972    -7750908.894 6  -6039662.46521        18.250           1.063
  20738777.644      739771.502 6    576443.19622        18.000           1.969
  21597558.980   -14148108.458 7 -10819141.13922        23.000           2.250
  22913436.464    -7511916.955 5  -5696562.62321        11.000           0.531
 91  5 28 18 39 59.9990000  0  6G18G16G11G19G 2G 6
  22482846.128    10222167.765 6   7965316.04521        16.750           1.188
  23247384.175    -4977231.316 5  -3741447.20321         8.750           0.406
  22727942.136    -7754274.911 6  -6042285.33821        18.250           1.063
  20740929.065      751068.775 6    585246.25122        17.000           1.938
  21590828.855   -14183481.878 7 -10846704.81922        23.500           2.406
  22906491.409    -7548407.956 5  -5724997.14821        11.000           0.563
 91  5 28 18 40 14.9990000  0  6G18G16G11G19G 2G 6
  22491547.433    10267892.368 6   8000945.54221        16.750           1.250
  23247892.167    -4974567.553 5  -3739371.54821         8.500           0.313
  22727336.339    -7757459.970 6  -6044767.19821        18.750           0.938
  20743093.855      762452.364 6    594116.57122        18.000           1.906
  21584116.636   -14218752.199 7 -10874188.16822        23.500           2.469
  22899555.745    -7584853.529 5  -5753396.27321        11.250           0.625
 91  5 28 18 40 29.9990000  0  6G18G16G11G19G 2G 6
  22500262.112    10313686.672 6   8036629.34921        16.750           1.250
  23248424.370    -4971764.929 5  -3737187.70221         8.500           0.344
  22726760.722    -7760484.204 6  -6047123.75421        18.250           1.063
  20745273.792      773902.027 6    603038.37122        17.000           1.906
  21577420.480   -14253939.410 7 -10901606.75322        24.250           2.344
  22892628.198    -7621273.957 5  -5781775.80521        11.750           0.563
 91  5 28 18 40 44.9990000  0  6G18G16G11G19G 2G 6
  22508985.534    10359529.829 6   8072351.23021        16.750           1.219
  23248979.151    -4968844.282 5  -3734911.89321         8.500           0.313
  22726211.175    -7763368.435 6  -6049371.20321        18.000           1.000
  20747459.370      785397.078 6    611995.53422        17.750           1.844
  21570736.386   -14289064.222 7 -10928976.71922        24.500           2.438
  22885697.073    -7657689.948 5  -5810151.86821        11.500           0.656
 91  5 28 18 40 59.9990000  0  6G18G16G11G19G 2G 6
  22517720.808    10405432.662 6   8108119.60521        16.750           1.250
  23249558.284    -4965794.106 5  -3732535.15021         8.250           0.313
  22725691.355    -7766100.943 6  -6051500.43821        18.000           1.094
  20749657.753      796949.171 6    620997.14922        18.250           1.813
  21564066.245   -14324115.079 7 -10956289.05722        25.000           2.438
  22878772.245    -7694089.905 5  -5838515.44221        11.750           0.625
 91  5 28 18 41 14.9990000  0  6G18G16G11G19G 2G 6
  22526466.995    10451393.818 6   8143933.42621        17.000           1.156
  23250166.745    -4962615.871 5  -3730058.62821         8.500           0.438
  22725201.167    -7768683.264 6  -6053512.63421        18.500           0.969
  20751866.808      808556.718 6    630041.98422        17.500           1.906
  21557410.605   -14359093.469 7 -10983544.93123        25.000           2.500
  22871850.183    -7730475.366 5  -5866867.72121        11.750           0.563
 91  5 28 18 41 29.9990000  0  6G18G16G11G19G 2G 6
  22535223.300    10497410.007 6   8179790.13421        17.000           1.219
  23250791.667    -4959312.740 5  -3727484.76321         8.500           0.500
  22724736.558    -7771118.300 6  -6055410.06121        18.000           0.969
  20754086.261      820216.934 6    639127.84822        17.750           1.906
  21550767.659   -14394002.117 7 -11010746.45623        24.750           2.688
  22864922.605    -7766849.264 5  -5895210.98621        11.250           0.500
 91  5 28 18 41 44.9990000  0  6G18G16G11G19G 2G 6
  22543990.128    10543479.605 6   8215688.45521        16.750           1.250
  23251446.362    -4955886.232 5  -3724814.80021         8.750           0.438
  22724302.425    -7773407.257 6  -6057193.67021        18.000           1.000
  20756315.042      831928.602 6    648253.81022        18.000           1.906
  21544138.456   -14428842.012 7 -11037894.41123        25.000           2.625
  22858004.339    -7803212.783 5  -5923546.16421        11.750           0.625
 91  5 28 18 41 59.9990000  0  6G18G16G11G19G 2G 6
  22552766.706    10589594.773 6   8251622.29721        17.000           1.094
  23252118.237    -4952344.299 5  -3722054.87621         9.250           0.406
  22723892.972    -7775557.876 6  -6058869.48421        17.750           1.031
  20758552.940      843683.921 6    657413.78622        17.000           1.906
  21537519.206   -14463621.021 7 -11064994.91823        24.250           2.688
  22851088.370    -7839573.698 6  -5951879.32521        12.750           0.594
 91  5 28 18 42 14.9990000  0  6G18G16G11G19G 2G 6
  22561551.972    10635769.825 6   8287602.79321        17.250           1.125
  23252820.276    -4948672.100 5  -3719193.44621         9.750           0.313
  22723511.831    -7777555.377 6  -6060425.98421        17.500           1.219
  20760799.190      855497.634 6    666619.25922        17.250           1.969
  21530915.120   -14498324.346 7 -11092036.44823        24.250           2.656
  22844173.909    -7875917.215 6  -5980198.93721        13.500           0.531
 91  5 28 18 42 29.9990000  0  6G18G16G11G19G 2G 6
  22570349.058    10682001.033 6   8323627.05621        16.750           1.000
  23253542.300    -4944873.557 5  -3716233.55921         9.500           0.406
  22723160.815    -7779403.516 6  -6061866.08821        17.750           1.063
  20763057.917      867366.031 6    675867.34622        17.000           1.969
  21524326.042   -14532955.611 7 -11119021.83423        24.250           2.563
  22837257.909    -7912247.180 6  -6008507.98121        13.500           0.625
 91  5 28 18 42 44.9990000  0  6G18G16G11G19G 2G 6
  22579158.347    10728290.811 6   8359696.94821        17.000           0.969
  23254289.308    -4940946.196 5  -3713173.29921         8.750           0.313
  22722837.776    -7781099.511 6  -6063187.64921        18.000           1.156
  20765327.237      879291.802 6    685160.13922        17.500           1.906
  21517749.034   -14567512.127 7 -11145948.97023        24.500           2.563
  22830346.370    -7948560.796 6  -6036804.27421        12.500           0.656
 91  5 28 18 42 59.9990000  0  6G18G16G11G19G 2G 6
  22587978.097    10774642.181 6   8395814.82821        16.250           0.969
  23255064.605    -4936886.517 5  -3710009.95221         8.500           0.250
  22722544.058    -7782639.874 6  -6064387.93321        17.750           1.188
  20767611.261      891278.523 6    694500.43122        17.000           1.938
  21511189.636   -14601990.561 7 -11172815.26422        24.500           2.438
  22823437.737    -7984854.613 6  -6065085.14921        12.500           0.688
 91  5 28 18 43 14.9990000  0  6G18G16G11G19G 2G 6
  22596809.605    10821055.035 6   8431980.62821        17.000           1.000
  23255859.378    -4932694.479 5  -3706743.44721         9.000           0.313
  22722280.714    -7784024.589 6  -6065466.93121        17.750           1.063
  20769900.464      903326.415 6    703888.38022        18.250           1.938
  21504643.683   -14636390.426 7 -11199620.34223        24.000           2.531
  22816532.886    -8021128.574 6  -6093350.54321        12.250           0.625
 91  5 28 18 43 29.9990000  0  6G18G16G11G19G 2G 6
  22605654.667    10867528.701 6   8468193.81121        16.500           0.906
  23256682.417    -4928370.879 5  -3703374.42521         9.250           0.281
  22722044.230    -7785253.826 6  -6066424.78421        17.500           1.094
  20772206.480      915435.033 6    713323.65222        18.000           1.906
  21498111.362   -14670712.005 7 -11226364.40923        23.500           2.563
  22809638.440    -8057382.859 6  -6121600.61221        12.750           0.656
 91  5 28 18 43 44.9990000  0  6G18G16G11G19G 2G 6
  22614509.636    10914065.200 6   8504455.95621        16.250           0.938
  23257530.206    -4923913.806 5  -3699901.37021         9.750           0.375
  22721843.105    -7786325.561 6  -6067259.90221        18.000           1.063
  20774520.534      927606.669 6    722808.02722        18.000           1.875
  21491594.355   -14704953.134 7 -11253045.78922        23.000           2.406
  22802741.855    -8093615.425 6  -6149833.75821        13.000           0.688
 91  5 28 18 43 59.9990000  0  6G18G16G11G19G 2G 6
  22623376.245    10960655.264 6   8540759.84421        15.750           0.844
  23258408.284    -4919332.603 5  -3696331.62721        10.750           0.438
  22721667.370    -7787248.708 6  -6067979.24521        18.250           1.156
  20776848.323      939832.223 6    732334.41722        17.500           1.938
  21485094.042   -14739122.834 7 -11279671.50722        23.500           2.375
  22795848.089    -8129835.165 6  -6178056.90421        13.000           0.656
 91  5 28 18 44 14.9990000  0  6G18G16G11G19G 2G 6
  22632253.558    11007314.869 6   8577117.91921        15.000           0.813
  23259299.894    -4914610.930 5  -3692652.43621        10.000           0.469
  22721522.151    -7788006.993 6  -6068570.12821        18.250           1.063
  20779186.683      952127.908 6    741915.45422        17.500           1.906
  21478607.378   -14773204.818 7 -11306228.88122        24.250           2.406
  22788963.706    -8166025.888 6  -6206257.44621        13.500           0.656
 91  5 28 18 44 29.9990000  0  6G18G16G11G19G 2G 6
  22641140.276    11054016.760 6   8613508.93921        14.750           0.813
  23260222.620    -4909775.817 5  -3688884.82121        10.750           0.531
  22721406.542    -7788627.510 6  -6069053.64321        18.500           1.094
  20781534.417      964466.860 6    751530.20622        16.750           1.938
  21472132.667   -14807226.104 7 -11332738.96122        24.000           2.344
  22782076.269    -8202214.603 6  -6234456.42721        13.500           0.688
 91  5 28 18 44 44.9990000  0  6G18G16G11G19G 2G 6
  22650038.683    11100773.524 6   8649942.71821        14.750           0.844
  23261165.440    -4904814.680 5  -3685019.02221        10.750           0.531
  22721314.440    -7789097.373 6  -6069419.77521        18.250           1.188
  20783893.300      976861.839 6    761188.61422        17.000           1.938
  21465674.323   -14841173.801 7 -11359191.69322        24.250           2.438
  22775194.409    -8238388.376 6  -6262643.76721        13.750           0.594
 91  5 28 18 44 59.9990000  0  6G18G16G11G19G 2G 6
  22658946.214    11147580.421 6   8686415.56621        14.750           0.813
  23262127.362    -4899731.867 5  -3681058.41921        10.250           0.469
  22721255.503    -7789420.901 6  -6069671.87321        18.750           1.125
  20786261.792      989308.556 6    770887.34322        16.500           1.969
  21459225.769   -14875052.110 7 -11385590.36323        23.750           2.500
  22768312.401    -8274551.658 6  -6290822.92921        13.500           0.688
 91  5 28 18 45 14.9990000  0  6G18G16G11G19G 2G 6
  22667862.526    11194438.593 6   8722928.35521        15.000           0.906
  23263117.995    -4894526.220 5  -3677002.08421         9.250           0.438
  22721221.222    -7789596.738 6                        19.000
  20788640.386     1001808.477 6    780627.52022        17.250           2.063
  21452793.159   -14908859.395 7 -11411933.68022        23.500           2.469
  22761433.956    -8310702.907 6  -6318992.71121        14.000           0.688
 91  5 28 18 45 29.9990000  0  6G18G16G11G19G 2G 6
  22676790.894    11241351.743 6   8759483.99021        15.000           0.844
  23264136.581    -4889194.222 5  -3672847.33021         9.750           0.438
  22721217.448    -7789621.069 6                        18.500
  20791033.355     1014365.379 6    790412.09822        16.500           2.000
  21446373.706   -14942591.979 7 -11438218.79723        23.250           2.500
  22754557.636    -8346838.436 6  -6347150.23421        13.500           0.688
 91  5 28 18 45 44.9990000  0  6G18G16G11G19G 2G 6
  22685730.128    11288328.137 6   8796088.89721        15.000           0.969
  23265176.355    -4883727.730 5  -3668587.75121        10.250           0.531
  22721243.065    -7789485.537 6                        19.000
  20793432.620     1026987.716 6    800247.67022        17.500           2.031
  21439970.690   -14976241.550 7 -11464439.22423        23.500           2.563
  22747684.862    -8382949.800 6  -6375288.93621        13.000           0.781
 91  5 28 18 45 59.9990000  0  6G18G16G11G19G 2G 6
  22694677.651    11335356.331 6   8832734.17721        15.000           1.031
  23266244.480    -4878137.510 5  -3664231.75721        11.500           0.469
  22721296.792    -7789200.850 6                        18.750
  20795845.120     1039664.692 6    810125.81622        18.000           1.906
  21433581.300   -15009818.672 7 -11490603.19823        23.000           2.500
  22740813.714    -8419047.720 6  -6403417.15421        13.500           0.813
 91  5 28 18 46 14.9990000  0  6G18G16G11G19G 2G 6
  22703636.956    11382437.378 6   8869420.64621        15.000           1.000
  23267327.050    -4872422.601 5  -3659778.59721        10.000           0.406
  22721379.628    -7788766.063 6  -6069161.63121        19.250           1.094
  20798268.722     1052397.394 6    820047.39122        17.750           1.938
  21427205.386   -15043322.225 7 -11516709.85622        22.750           2.438
  22733950.081    -8455131.158 6  -6431534.10021        14.250           0.688
 91  5 28 18 46 29.9990000  0  6G18G16G11G19G 2G 6
  22712609.995    11429574.053 6   8906150.45621        15.500           0.938
  23268440.722    -4866580.176 5  -3655226.08121        10.750           0.313
  22721489.230    -7788178.216 6  -6068703.57821        18.750           1.156
  20800702.690     1065188.815 6    830014.71422        17.750           1.969
  21420844.401   -15076749.230 7 -11542756.85922        22.250           2.469
  22727085.776    -8491197.153 6  -6459637.46421        14.250           0.750
 91  5 28 18 46 44.9990000  0  6G18G16G11G19G 2G 6
  22721589.050    11476763.946 6   8942921.74421        15.000           0.906
  23269572.308    -4860612.648 5  -3650576.08321         9.750           0.375
  22721631.347    -7787439.230 6  -6068127.74921        19.000           1.063
  20803147.886     1078036.888 6    840026.18522        17.750           1.938
  21414497.636   -15110101.717 7 -11568745.79222        22.000           2.250
  22720226.917    -8527247.636 6  -6487728.72421        15.000           0.656
 91  5 28 18 46 59.9990000  0  6G18G16G11G19G 2G 6
  22730576.558    11524006.619 6   8979734.14621        15.000           0.969
  23270733.300    -4854520.282 5  -3645828.81421         9.750           0.531
  22721800.573    -7786549.258 6  -6067434.27321        19.250           1.125
  20805603.839     1090941.607 6    850081.79222        17.500           2.094
  21408165.550   -15143379.689 7 -11594676.66823        22.000           2.563
  22713367.565    -8563282.649 6  -6515807.93721        14.750           0.750
 91  5 28 18 47 14.9990000  0  6G18G16G11G19G 2G 6
  22739579.761    11571307.456 6   9016591.88221        14.750           0.906
  23271921.901    -4848297.565 5  -3640979.97421        10.500           0.375
  22721999.003    -7785502.847 6  -6066618.90621        19.500           1.219
  20808069.565     1103908.602 6    860185.93422        17.750           2.000
  21401848.167   -15176577.578 7 -11620545.13423        22.250           2.688
  22706513.417    -8599296.833 6  -6543870.91521        14.000           0.781
 91  5 28 18 47 29.9990000  0  6G18G16G11G19G 2G 6
  22748590.526    11618662.086 6   9053491.52521        14.750           0.906
  23273131.776    -4841948.819 5  -3636032.90921        10.500           0.438
  22722229.011    -7784303.869 6  -6065684.63921        19.750           1.031
  20810550.831     1116933.822 6    870335.43422        18.000           2.031
  21395544.769   -15209699.321 7 -11646354.26623        22.250           2.594
  22699665.933    -8635293.989 6  -6571920.62821        14.000           0.750
 91  5 28 18 47 44.9990000  0  6G18G16G11G19G 2G 6
  22757610.300    11666061.856 6   9090426.34421        14.750           0.813
  23274355.972    -4835482.797 5  -3630994.48121         9.750           0.406
  22722482.378    -7782960.910 6  -6064638.18721        19.500           1.156
  20813037.565     1130008.814 6    880523.72222        18.250           2.063
  21389253.987   -15242753.323 7 -11672110.61623        22.250           2.594
  22692816.394    -8671282.685 6  -6599963.75121        14.500           0.625
 91  5 28 18 47 59.9990000  0  6G18G16G11G19G 2G 6
  22766641.683    11713520.165 6   9127406.77821        14.750           0.875
  23275614.097    -4828885.895 5  -3625854.06421        10.250           0.469
  22722768.815    -7781460.295 6  -6063468.87521        19.750           1.125
  20815538.370     1143147.319 6    890761.49322        18.250           2.094
  21382980.722   -15275725.813 7 -11697803.45222        22.250           2.375
  22685972.058    -8707249.286 6  -6627989.65521        14.750           0.688
 91  5 28 18 48 14.9990000  0  6G18G16G11G19G 2G 6
  22775681.300    11761023.546 6   9164422.33321        14.500           0.875
  23276891.855    -4822171.634 5  -3620622.18821        10.500           0.500
  22723083.253    -7779815.161 7  -6062186.96121        20.500           1.188
  20818047.862     1156336.147 6    901038.48122        18.500           2.000
  21376718.683   -15308629.846 7 -11723442.95022        21.750           2.313
  22679129.894    -8743206.848 6  -6656008.51521        14.750           0.875
 91  5 28 18 48 29.9990000  0  6G18G16G11G19G 2G 6
  22784729.253    11808572.905 6   9201473.71821        14.000           0.938
  23278196.269    -4815338.540 5  -3615297.72521        10.750           0.500
  22723423.948    -7778024.444 7  -6060791.60721        20.750           1.125
  20820566.862     1169576.546 6    911355.66222        18.500           2.094
  21370470.151   -15341464.221 7 -11749028.16122        21.500           2.281
  22672288.987    -8779154.220 6  -6684019.42721        14.750           0.781
 91  5 28 18 48 44.9990000  0  6G18G16G11G19G 2G 6
  22793785.933    11856169.627 6   9238562.00521        13.750           1.000
  23279516.409    -4808385.564 5  -3609879.85621        10.500           0.563
  22723793.105    -7776086.724 7  -6059281.71121        21.000           1.188
  20823097.276     1182869.866 6    921714.07622        18.500           2.031
  21364235.675   -15374227.464 7 -11774557.95222        22.000           2.375
  22665449.683    -8815089.835 6  -6712021.19121        14.500           0.750
 91  5 28 18 48 59.9990000  0  6G18G16G11G19G 2G 6
  22802851.972    11903806.450 6   9275681.53721        13.750           0.938
  23280862.355    -4801319.860 5  -3604374.12721        10.250           0.406
  22724187.355    -7774008.902 7  -6057662.64321        20.500           1.188
  20825639.073     1196209.215 6    932108.36222        17.500           1.969
  21358013.112   -15406926.522 7 -11800037.72522        22.000           2.469
  22658612.972    -8851020.650 6  -6740019.21121        14.500           0.656
 91  5 28 18 49 14.9990000  0  6G18G16G11G19G 2G 6
  22811927.815    11951496.039 6   9312842.17921        13.500           0.875
  23282227.347    -4794128.343 5  -3598770.38721         9.750           0.656
  22724612.347    -7771777.884 7  -6055924.19621        20.000           1.156
  20828183.940     1209607.901 6    942548.87422        18.250           2.125
  21351806.972   -15439548.197 7 -11825457.19623        23.000           2.531
  22651777.323    -8886933.447 6  -6768003.19121        14.000           0.813
 91  5 28 18 49 29.9990000  0  6G18G16G11G19G 2G 6
  22821011.573    11999229.877 6   9350037.30821        13.500           0.844
  23283618.534    -4786819.603 5  -3593075.29721         9.750           0.563
  22725064.276    -7769402.069 6  -6054072.91921        19.750           1.188
  20830745.917     1223057.400 6    953028.99022        17.500           2.156
  21345611.901   -15472100.816 7 -11850822.86423        23.000           2.500
  22644944.526    -8922836.601 6  -6795979.65621        14.250           0.719
 91  5 28 18 49 44.9990000  0  6G18G16G11G19G 2G 6
  22830104.605    12047017.299 6   9387274.19521        13.250           0.844
  23285035.597    -4779384.573 5  -3587281.79021        10.000           0.438
  22725544.206    -7766872.051 6  -6052101.48721        19.500           1.156
  20833314.370     1236567.325 6    963556.19022        18.250           2.125
  21339433.120   -15504574.869 7 -11876127.30423        23.250           2.500
  22638114.980    -8958720.664 6  -6823941.24321        14.000           0.781
 91  5 28 18 49 59.9990000  0  6G18G16G11G19G 2G 6
  22839208.925    12094858.574 6   9424553.03721        13.750           0.750
  23286472.003    -4771822.424 5  -3581389.21921         9.750           0.438
  22726055.894    -7764187.397 6  -6050009.56121        19.750           1.156
  20835898.784     1250138.232 6    974130.90822        18.000           2.188
  21333266.058   -15536969.762 7 -11901370.06423        22.750           2.531
  22631291.448    -8994585.105 6  -6851887.54521        13.750           0.688
 91  5 28 18 50 14.9990000  0  6G18G16G11G19G 2G 6
  22848321.605    12142749.844 6   9461870.83521        14.000           0.781
  23287936.761    -4764136.941 5  -3575400.55921        10.000           0.531
  22726595.737    -7761351.414 6  -6047799.72021        19.500           1.156
  20838490.355     1263766.735 6    984750.50422        18.250           2.031
  21327117.550   -15569288.824 7 -11926553.72822        22.500           2.469
  22624472.183    -9030433.250 6  -6879821.16021        14.500           0.781
 91  5 28 18 50 29.9990000  0  6G18G16G11G19G 2G 6
  22857447.448    12190696.305 6   9499231.64921        14.750           0.625
  23289422.917    -4756323.148 5  -3569311.91621        10.000           0.438
  22727165.808    -7758358.734 6  -6045467.77821        19.750           1.094
  20841099.167     1277458.292 6    995419.23922        17.250           2.094
  21320982.511   -15601526.654 7 -11951674.09723        22.500           2.500
  22617651.659    -9066259.770 6  -6907737.92221        13.500           0.594
 91  5 28 18 50 44.9990000  0  6G18G16G11G19G 2G 6
  22866581.253    12238701.378 6   9536638.15221        14.500           0.656
  23290933.042    -4748377.370 5  -3563120.43821        10.750           0.438
  22727766.636    -7755205.507 6  -6043010.72721        19.750           1.125
  20843714.214     1291216.773 6   1006140.11822        18.250           2.219
  21314864.433   -15633679.302 7 -11976728.09622        23.500           2.406
  22610841.737    -9102060.680 6  -6935634.72621        13.000           0.719
 91  5 28 18 50 59.9990000  0  6G18G16G11G19G 2G 6
  22875727.815    12286757.917 6   9574084.75021        14.250           0.656
  23292468.925    -4740306.843 5  -3556831.74321        10.500           0.500
  22728396.534    -7751898.986 7  -6040434.23321        20.000           1.125
  20846344.019     1305034.944 6   1016907.50722        17.750           2.031
  21308760.464   -15665753.793 7 -12001721.20223        23.750           2.531
  22604031.597    -9137843.081 6  -6963517.09221        12.750           0.781
 91  5 28 18 51 14.9990000  0  6G18G16G11G19G 2G 6
  22884877.675    12334847.402 6   9611557.01421        14.250           0.688
  23294025.440    -4732130.104 5  -3550460.28021        10.250           0.563
  22729050.175    -7748457.571 6  -6037752.62621        19.500           1.125
  20848982.292     1318894.368 6   1027707.04022        18.500           2.094
  21302669.089   -15697768.489 7 -12026667.71622        23.500           2.344
  22597222.472    -9173625.466 6  -6991399.45821        13.000           0.781
 91  5 28 18 51 29.9990000  0  6G18G16G11G19G 2G 6
  22894035.558    12382973.851 6   9649058.08121        14.250           0.719
  23295603.909    -4723842.724 5  -3544002.61021        10.000           0.500
  22729730.214    -7744876.708 6  -6034962.36621        19.750           1.031
  20851630.839     1332799.762 6   1038542.39722        17.250           2.063
  21296587.956   -15729718.861 7 -12051564.10122        22.750           2.375
  22590414.675    -9209403.134 6  -7019278.14221        13.500           0.844
 91  5 28 18 51 44.9990000  0  6G18G16G11G19G 2G 6
  22903202.487    12431151.620 6   9686599.13321        14.000           0.688
  23297200.308    -4715430.881 5  -3537447.94921         9.250           0.469
  22730440.878    -7741142.168 7  -6032052.35621        20.000           1.156
  20854284.089     1346765.690 6   1049424.91822        18.250           2.094
  21290523.370   -15761590.537 7 -12076399.15522        23.000           2.406
  22583609.198    -9245161.692 6  -7047141.93921        13.750           0.813
 91  5 28 18 51 59.9990000  0  6G18G16G11G19G 2G 6
  22912380.019    12479380.730 6   9724180.19521        13.500           0.781
  23298829.175    -4706894.132 5  -3530795.98021         9.750           0.438
  22731180.800    -7737253.522 6  -6029022.26021        19.750           1.188
  20856956.620     1360792.464 6   1060354.84922        18.000           2.094
  21284474.386   -15793383.186 7 -12101172.63622        23.250           2.469
  22576812.558    -9280900.741 6  -7074990.53021        14.250           0.813
 91  5 28 18 52 14.9990000  0  6G18G16G11G19G 2G 6
  22921569.315    12527657.787 6   9761798.60321        13.500           0.875
  23300473.800    -4698235.545 5  -3524049.04921         9.250           0.469
  22731950.519    -7733213.910 6  -6025874.52621        19.750           1.063
  20859633.683     1374877.112 6   1071329.88122        18.250           2.063
  21278438.534   -15825099.654 7 -12125886.75622        23.750           2.375
  22570012.690    -9316623.255 6  -7102826.24521        13.750           0.750
 91  5 28 18 52 29.9990000  0  6G18G16G11G19G 2G 6
  22930765.034    12575985.587 6   9799456.56421        14.000           0.906
  23302146.440    -4689452.522 5  -3517205.17421         9.750           0.406
  22732747.151    -7729020.406 6  -6022606.87221        19.500           1.188
  20862328.253     1389022.482 6   1082352.22922        17.750           2.031
  21272418.612   -15856736.777 7 -12150539.05222        23.750           2.469
  22563216.019    -9352326.262 6  -7130646.76021        13.750           0.750
 91  5 28 18 52 44.9990000  0  6G18G16G11G19G 2G 6
  22939970.495    12624360.689 6   9837151.37021        13.750           0.875
  23303843.534    -4680548.406 5  -3510266.92221        10.500           0.375
  22733575.753    -7724676.172 7  -6019221.76921        20.000           1.094
  20865027.269     1403225.526 6   1093419.52122        18.000           2.094
  21266412.456   -15888297.920 7 -12175132.13923        23.000           2.625
  22556425.581    -9388012.910 6  -7158454.53321        13.500           0.750
 91  5 28 18 52 59.9990000  0  6G18G16G11G19G 2G 6
  22949185.011    12672782.277 6   9874882.41621        13.750           0.781
  23305557.089    -4671523.989 5  -3503234.94821         9.750           0.375
  22734430.464    -7720181.690 7  -6015719.59221        20.500           1.219
  20867744.370     1417485.758 6   1104531.37522        17.750           1.938
  21260421.261   -15919783.306 7 -12199666.18423        23.500           2.688
  22549638.440    -9423683.662 6  -7186249.91521        13.500           0.844
 91  5 28 18 53 14.9990000  0  6G18G16G11G19G 2G 6
  22958408.925    12721251.304 6   9912650.41621        14.000           0.844
  23307298.284    -4662378.043 5  -3496108.25921         9.750           0.406
  22735315.425    -7715535.863 7  -6012099.48021        20.500           1.063
  20870466.948     1431804.346 6   1115688.70522        18.500           2.156
  21254444.198   -15951191.955 7 -12224140.44523        24.000           2.656
  22542853.222    -9459337.348 6  -7214031.99221        13.000           0.813
 91  5 28 18 53 29.9990000  0  6G18G16G11G19G 2G 6
  22967640.128    12769762.998 6   9950451.66821        13.750           0.750
  23309064.792    -4653115.676 5  -3488890.88021        10.500           0.406
  22736226.980    -7710743.547 7  -6008365.23321        20.250           1.063
  20873200.206     1446176.607 6   1126887.85322        18.250           2.063
  21248481.198   -15982528.341 7 -12248558.39423        24.250           2.625
  22536067.276    -9494978.585 6  -7241804.37021        12.500           0.688
 91  5 28 18 53 44.9990000  0  6G18G16G11G19G 2G 6
  22976881.737    12818329.600 6   9988295.70221        13.500           0.813
  23310851.050    -4643724.227 5  -3481572.88821        11.000           0.469
  22737170.222    -7705792.050 7  -6004506.93821        20.250           1.063
  20875949.448     1460615.293 6   1138138.76622        18.000           2.094
  21242533.862   -16013779.694 7 -12272910.09023        24.250           2.688
  22529293.558    -9530594.679 6  -7269557.14821        13.000           0.813
 91  5 28 18 53 59.9990000  0  6G18G16G11G19G 2G 6
  22986133.886    12866947.522 6  10026179.72521        13.750           0.719
  23312661.925    -4634207.242 5  -3474157.07321        10.750           0.344
  22738141.933    -7700684.714 7  -6000527.21021        21.000           1.000
  20878708.972     1475117.306 6   1149439.01122        17.500           2.031
  21236600.948   -16044949.328 7 -12297198.10523        23.750           2.500
  22522519.448    -9566188.867 6  -7297292.86821        13.000           0.781
 91  5 28 18 54 14.9990000  0  6G18G16G11G19G 2G 6
  22995393.097    12915606.349 6  10064095.62521        14.250           0.625
  23314495.784    -4624575.306 5  -3466651.71821        10.500           0.531
  22739140.628    -7695431.711 7  -5996433.98821        20.500           1.063
  20881478.620     1489672.408 6   1160780.63622        18.000           2.031
  21230683.909   -16076047.312 7 -12321430.29123        23.750           2.563
  22515748.769    -9601771.266 6  -7325019.40021        12.750           0.750
 91  5 28 18 54 29.9990000  0  6G18G16G11G19G 2G 6
  23004661.034    12964308.811 6  10102045.52521        14.000           0.625
  23316349.964    -4614825.506 5  -3459054.49321        10.750           0.625
  22740168.550    -7690030.244 7  -5992225.07221        20.500           1.031
  20884260.698     1504283.462 6   1172165.85522        18.000           1.938
  21224780.659   -16107070.782 7 -12345604.41223        23.750           2.594
  22508979.745    -9637338.898 6  -7352734.42021        12.500           0.781
 91  5 28 18 54 44.9990000  0  6G18G16G11G19G 2G 6
  23013935.948    13013052.642 6  10140027.66121        14.000           0.688
  23318224.894    -4604959.994 5  -3451367.13421        10.750           0.469
  22741224.112    -7684482.126 7  -5987901.88321        20.250           0.906
  20887050.011     1518948.653 6   1183593.26022        18.250           1.906
  21218890.808   -16138021.571 7 -12369721.90223        24.250           2.500
  22502215.198    -9672893.588 6  -7380439.35021        13.000           0.688
 91  5 28 18 54 59.9990000  0  6G18G16G11G19G 2G 6
  23023219.651    13061842.116 6  10178045.37021        14.000           0.719
  23320125.800    -4594974.484 5  -3443586.23521        11.000           0.469
  22742308.894    -7678782.967 7  -5983460.99221        20.000           1.000
  20889852.769     1533672.458 6   1195066.34422        17.500           1.875
  21213015.597   -16168895.196 7 -12393779.26423        23.750           2.656
  22495452.690    -9708430.947 6  -7408130.78421        13.250           0.781
 91  5 28 18 55 14.9990000  0  6G18G16G11G19G 2G 6
  23032513.448    13110678.072 6  10216099.29121        13.750           0.719
  23322048.269    -4584868.224 5  -3435711.25521        10.500           0.375
  22743422.612    -7672932.004 7  -5978901.81021        20.500           1.031
  20892666.276     1548455.772 6   1206585.78922        18.250           1.969
  21207155.917   -16199690.579 7 -12417775.65323        24.250           2.719
  22488692.784    -9743949.961 6  -7435807.93421        13.000           0.875
 91  5 28 18 55 29.9990000  0  6G18G16G11G19G 2G 6
  23041816.706    13159566.074 6  10254193.77321        13.750           0.625
  23323997.737    -4574635.290 5  -3427737.58121        10.250           0.406
  22744566.011    -7666923.164 7  -5974219.61621        20.750           1.000
  20895495.480     1563304.738 6   1218156.39122        17.250           1.844
  21201312.276   -16230401.594 7 -12441706.30723        24.250           2.781
  22481936.214    -9779444.393 6  -7463465.92521        12.750           0.719
 91  5 28 18 55 44.9990000  0  6G18G16G11G19G 2G 6
  23051127.394    13208488.998 6  10292315.45321        14.000           0.625
  23325966.636    -4564292.853 5  -3419678.59421        10.250           0.531
  22745736.269    -7660773.535 7  -5969427.72021        20.750           0.969
  20898325.800     1578202.399 6   1229764.94422        18.250           1.875
  21195480.519   -16261045.075 7 -12465584.32623        24.000           2.781
  22475185.136    -9814931.306 6  -7491118.05821        12.750           0.750
 91  5 28 18 55 59.9990000  0  6G18G16G11G19G 2G 6
  23060445.683    13257457.925 6  10330472.98921        14.000           0.625
  23327957.206    -4553829.617 5  -3411525.46221        10.750           0.563
  22746935.253    -7654471.796 7  -5964517.29321        20.250           0.969
  20901172.925     1593160.315 6   1241420.44222        17.750           1.813
  21189665.722   -16291609.726 7 -12489400.92923        25.000           2.813
  22468433.323    -9850399.239 6  -7518755.40021        12.250           0.750
 91  5 28 18 56 14.9990000  0  6G18G16G11G19G 2G 6
  23069770.542    13306467.018 6  10368661.81921        14.000           0.594
  23329970.511    -4543251.696 5  -3403282.96021        10.500           0.500
  22748162.339    -7648023.534 7  -5959492.69321        20.250           0.906
  20904030.097     1608172.886 6   1253118.53522        18.750           1.750
  21183861.440   -16322101.088 7 -12513160.42323        24.750           2.938
  22461689.964    -9885853.736 6  -7546382.27321        12.500           0.750
 91  5 28 18 56 29.9990000  0  6G18G16G11G19G 2G 6
  23079106.964    13355523.455 6  10406887.55321        14.000           0.688
  23332007.855    -4532552.002 5  -3394945.56921        10.250           0.500
  22749418.667    -7641421.469 6  -5954348.24021        19.750           1.000
  20906898.112     1623247.495 6   1264864.96822        18.000           1.875
  21178074.894   -16352511.814 7 -12536857.08023        25.250           2.969
  22454948.370    -9921287.459 6  -7573992.96021        12.250           0.844
 91  5 28 18 56 44.9990000  0  6G18G16G11G19G 2G 6
  23088449.597    13404619.900 6  10445144.44921        14.000           0.688
  23334062.401    -4521737.738 5  -3386518.89821        10.000           0.406
  22750701.612    -7634672.524 6  -5949089.34221        19.500           0.969
  20909777.112     1638377.357 6   1276654.45822        18.750           1.844
  21172301.972   -16382848.739 7 -12560496.23623        25.500           3.031
  22448206.003    -9956707.162 6  -7601592.71921        12.500           0.781
 91  5 28 18 56 59.9990000  0  6G18G16G11G19G 2G 6
  23097800.105    13453757.177 6  10483433.17021        13.750           0.594
  23336144.214    -4510807.688 5  -3378002.02021        10.000           0.406
  22752014.417    -7627775.951 6  -5943715.40721        19.250           0.969
  20912668.753     1653563.310 6   1288487.65222        18.250           1.969
  21166544.386   -16413110.820 7 -12584077.06923        25.500           3.031
  22441469.901    -9992111.926 6  -7629180.82621        13.250           0.781
 91  5 28 18 57 14.9990000  0  6G18G16G11G19G 2G 6
  23107157.972    13502934.792 6  10521753.32921        13.500           0.563
  23338245.417    -4499762.458 5  -3369395.37321         9.750           0.500
  22753355.253    -7620731.948 6  -5938226.60021        19.250           0.813
  20915566.214     1668805.260 6   1300364.47922        18.500           1.875
  21160799.440   -16443298.066 7 -12607599.58623        25.000           2.938
  22434736.433   -10027501.813 6  -7656757.35721        13.000           0.875
 91  5 28 18 57 29.9990000  0  6G18G16G11G19G 2G 6
  23116526.323    13552159.791 6  10560110.38421        13.500           0.531
  23340370.605    -4488595.154 5  -3360693.62021        10.000           0.469
  22754725.495    -7613533.544 7  -5932617.47521        20.000           1.031
  20918481.237     1684110.265 6   1312290.44522        18.000           1.906
  21155069.886   -16473403.592 7 -12631058.43423        24.750           2.875
  22428002.433   -10062869.925 6  -7684316.91221        12.750           0.813
 91  5 28 18 57 44.9990000  0  6G18G16G11G19G 2G 6
  23125900.401    13601419.450 6  10598494.46321        13.000           0.688
  23342516.409    -4477318.215 5  -3351906.42921        10.000           0.438
  22756120.980    -7606192.944 6  -5926897.54021        19.750           0.969
  20921402.440     1699466.138 6   1324256.04622        18.250           1.875
  21149354.331   -16503439.498 7 -12654463.02523        25.250           2.813
  22421277.597   -10098228.171 6  -7711868.78221        12.750           0.781
 91  5 28 18 57 59.9990000  0  6G18G16G11G19G 2G 6
  23135283.019    13650721.374 6  10636911.47721        12.750           0.719
  23344684.761    -4465924.255 5  -3343028.06821        10.250           0.469
  22757547.315    -7598702.663 6  -5921060.97321        19.750           1.031
  20924338.175     1714880.509 6   1336267.22322        17.500           1.844
  21143652.706   -16533398.061 7 -12677807.36123        25.000           2.813
  22414550.636   -10133569.030 6  -7739407.10921        12.750           0.875
 91  5 28 18 58 14.9990000  0  6G18G16G11G19G 2G 6
  23144672.323    13700064.716 6  10675360.75521        12.500           0.688
  23346874.464    -4454413.797 5  -3334058.92521        10.750           0.438
  22759001.370    -7591063.052 6  -5915108.04821        19.750           1.031
  20927279.901     1730353.149 6   1348323.81522        18.750           1.906
  21137966.659   -16563279.698 7 -12701091.75023        25.250           2.875
  22407829.105   -10168892.730 6  -7766932.04421        12.500           0.844
 91  5 28 18 58 29.9990000  0  6G18G16G11G19G 2G 6
  23154067.964    13749444.751 6  10713838.62021        12.000           0.750
  23349085.276    -4442791.545 5  -3325002.67521        10.750           0.344
  22760481.894    -7583278.781 6  -5909042.40421        19.250           1.000
  20930234.222     1745879.751 6   1360422.44722        18.750           1.969
  21132294.495   -16593089.085 7 -12724319.83423        24.500           3.031
  22401108.862   -10204203.723 6  -7794447.08521        13.000           0.844
 91  5 28 18 58 44.9990000  0  6G18G16G11G19G 2G 6
  23163471.050    13798860.299 5  10752344.16321        11.750           0.656
  23351323.245    -4431058.498 5  -3315860.07321        11.500           0.438
  22761990.448    -7575350.797 6  -5902864.77221        19.500           1.000
  20933198.831     1761459.204 6   1372562.26322        18.750           1.969
  21126635.558   -16622826.691 7 -12747491.98423        24.500           3.031
  22394391.448   -10239502.917 6  -7821952.94321        13.250           0.781
 91  5 28 18 58 59.9990000  0  6G18G16G11G19G 2G 6
  23172882.081    13848314.549 5  10790879.85921        11.250           0.656
  23353573.753    -4419211.403 5  -3306628.59021        10.250           0.375
  22763527.261    -7567275.582 6  -5896572.41621        19.000           1.000
  20936174.862     1777095.139 6   1384746.08722        17.750           1.969
  21120991.784   -16652488.885 7 -12770605.36723        24.500           3.125
  22387679.362   -10274786.625 6  -7849446.74121        14.250           0.813
 91  5 28 18 59 14.9990000  0  6G18G16G11G19G 2G 6
  23182301.237    13897810.759 5  10829448.25221        11.750           0.625
  23355847.542    -4407247.570 5  -3297306.16521         9.500           0.500
  22765091.940    -7559050.065 6  -5890162.93921        19.000           1.000
  20939162.026     1792791.038 6   1396976.63922        18.250           1.969
  21115360.175   -16682072.722 7 -12793657.70223        24.250           3.094
  22380967.230   -10310051.575 6  -7876925.92021        14.500           0.750
 91  5 28 18 59 29.9990000  0  6G18G16G11G19G 2G 6
  23191728.175    13947347.111 5  10868047.93221        11.750           0.688
  23358151.151    -4395168.441 5  -3287893.89421         9.250           0.469
  22766686.964    -7550675.570 6  -5883637.38521        19.250           1.000
  20942159.659     1808545.490 6   1409252.82022        18.000           1.844
  21109746.003   -16711579.256 7 -12816649.79723        25.250           3.094
  22374259.425   -10345299.047 6  -7904391.47021        14.250           0.781
 91  5 28 18 59 44.9990000  0  6G18G16G11G19G 2G 6
  23201161.792    13996922.234 5  10906677.82021        11.750           0.594
  23360465.964    -4382975.552 5  -3278392.99421        10.000           0.500
  22768308.042    -7542153.522 6  -5876996.85121        19.000           1.063
  20945166.573     1824357.100 6   1421573.54022        18.000           1.938
  21104145.237   -16741009.733 7 -12839582.63923        24.750           3.094
  22367558.206   -10380530.277 6  -7931844.36421        14.500           0.688
 91  5 28 18 59 59.9990000  0  6G18G16G11G19G 2G 6
  23210603.323    14046540.467 5  10945341.28821        11.500           0.750
  23362811.542    -4370664.205 5  -3268799.77921        11.000           0.531
  22769958.105    -7533479.360 6  -5870237.79121        18.750           1.063
  20948191.097     1840230.540 6   1433942.43222        17.750           1.906
  21098561.175   -16770359.517 7 -12862452.59223        25.250           3.094
  22360857.136   -10415740.521 6  -7959280.91421        14.250           0.844
 91  5 28 19  0 14.9990000  0  6G18G16G11G19G 2G 6
  23220051.894    14096194.655 5  10984032.77521        11.750           0.625
  23365178.503    -4358241.593 5  -3259119.86521        11.250           0.406
  22771638.917    -7524660.149 6  -5863365.70121        19.250           1.063
  20951218.683     1856158.981 6   1446354.18922        17.500           1.906
  21092990.355   -16799635.481 7 -12885265.03023        24.750           3.063
  22354158.339   -10450936.824 6  -7986706.59321        14.500           0.750
 91  5 28 19  0 29.9990000  0  6G18G16G11G19G 2G 6
  23229509.425    14145884.190 6  11022751.80721        12.500           0.688
  23367559.565    -4345708.335 5  -3249353.73021        10.750           0.406
  22773343.440    -7515696.039 6  -5856380.69621        19.500           1.063
  20954259.214     1872142.279 6   1458808.68622        17.500           1.750
  21087432.480   -16828837.632 7 -12908019.94223        24.250           3.000
  22347462.550   -10486119.191 6  -8014121.42621        15.000           0.844
 91  5 28 19  0 44.9990000  0  6G18G16G11G19G 2G 6
  23238971.448    14195611.568 6  11061500.33821        12.250           0.688
  23369964.800    -4333061.906 5  -3239499.41821        10.250           0.406
  22775077.214    -7506584.553 6  -5849280.85721        19.000           1.094
  20957314.167     1888183.137 6   1471308.03622        17.750           2.031
  21081890.956   -16857963.469 7 -12930715.39223        24.750           3.000
  22340769.784   -10521284.995 6  -8041523.34021        14.750           0.813
 91  5 28 19  0 59.9990000  0  6G18G16G11G19G 2G 6
  23248440.519    14245376.171 6  11100277.86521        12.000           0.656
  23372392.261    -4320302.539 5  -3229557.09521        10.250           0.469
  22776838.948    -7497326.119 6  -5842066.52121        19.250           0.906
  20960378.378     1904281.251 6   1483852.00722        18.500           1.875
  21076362.206   -16887013.325 7 -12953351.63923        24.750           2.875
  22334082.948   -10556434.519 6  -8068912.57221        14.750           0.750
 91  5 28 19  1 14.9990000  0  6G18G16G11G19G 2G 6
  23257918.300    14295176.439 6  11139083.18821        12.000           0.625
  23374841.956    -4307432.323 5  -3219528.40021         9.750           0.406
  22778629.597    -7487922.276 6  -5834738.86521        19.000           1.000
  20963451.261     1920435.220 6   1496439.50222        18.750           1.906
  21070849.112   -16915988.546 7 -12975929.72723        25.500           2.906
  22327395.495   -10591568.964 6  -8096290.05621        14.250           0.781
 91  5 28 19  1 29.9990000  0  6G18G16G11G19G 2G 6
  23267402.620    14345016.552 5  11177919.53921        11.750           0.688
  23377316.136    -4294447.043 5  -3209410.02021         9.500           0.281
  22780446.237    -7478368.609 6  -5827294.47221        18.750           0.906
  20966541.323     1936649.607 6   1509074.07222        17.750           2.000
  21065350.542   -16944884.449 7 -12998446.01623        25.500           2.813
  22320712.058   -10626683.927 6  -8123652.35221        14.000           0.813
 91  5 28 19  1 44.9990000  0  6G18G16G11G19G 2G 6
  23276893.667    14394893.213 6  11216784.38921        12.250           0.688
  23379807.323    -4281349.851 5  -3199204.47121         9.000           0.469
  22782292.065    -7468668.001 6  -5819735.58121        18.250           1.000
  20969633.339     1952921.535 6   1521753.47322        19.000           2.000
  21059866.409   -16973704.013 7 -13020902.81223        25.250           2.906
  22314034.370   -10661782.176 6  -8151001.61721        14.500           0.875
 91  5 28 19  1 59.9990000  0  6G18G16G11G19G 2G 6
  23286392.065    14444805.026 6  11255676.62121        12.250           0.594
  23382323.151    -4268141.778 5  -3188912.49021         9.250           0.344
  22784166.261    -7458821.771 6  -5812063.22221        18.250           0.969
  20972743.214     1969249.897 6   1534476.85722        18.000           2.094
  21054396.253   -17002448.374 7 -13043301.00523        25.250           2.906
  22307359.980   -10696864.895 6  -8178338.79021        15.000           0.906
 91  5 28 19  2 14.9990000  0  6G18G16G11G19G 2G 6
  23295896.800    14494751.948 6  11294596.22721        12.250           0.625
  23384855.683    -4254823.002 5  -3178534.26921         9.000           0.469
  22786067.980    -7448830.002 6  -5804277.45421        18.250           1.031
  20975857.222     1985634.796 6   1547244.29422        18.250           2.063
  21048940.784   -17031117.466 7 -13065640.54723        25.750           3.031
  22300687.761   -10731931.935 6  -8205663.75321        15.000           0.906
 91  5 28 19  2 29.9990000  0  6G18G16G11G19G 2G 6
  23305408.245    14544733.096 6  11333542.48121        12.250           0.500
  23387411.089    -4241394.447 5  -3168070.51021         9.000           0.438
  22787995.323    -7438693.341 6  -5796378.77221        18.250           0.938
  20978988.315     2002075.556 6   1560055.25922        18.000           2.094
  21043499.339   -17059711.806 7 -13087921.84223        26.250           2.938
  22294015.573   -10766983.841 6  -8232976.91921        14.500           0.875
 91  5 28 19  2 44.9990000  0  6G18G16G11G19G 2G 6
  23314926.362    14594749.140 6  11372515.93921        12.250           0.594
  23389987.628    -4227855.809 5  -3157520.95821         9.000           0.469
  22789953.737    -7428411.092 6  -5788366.65621        18.750           1.000
  20982126.472     2018573.120 6   1572910.48422        18.000           2.094
  21038072.542   -17088230.472 7 -13110144.17723        26.500           2.938
  22287348.651   -10802019.777 6  -8260277.64421        15.000           0.875
 91  5 28 19  2 59.9990000  0  6G18G16G11G19G 2G 6
  23324450.620    14644797.780 6  11411514.79221        12.250           0.625
  23392584.370    -4214208.827 5  -3146886.99621         9.250           0.438
  22791937.698    -7417985.285 6  -5780242.67421        18.500           0.906
  20985282.245     2035125.797 6   1585808.65022        17.000           1.969
  21032658.862   -17116675.371 7 -13132309.03423        26.250           2.781
  22280683.214   -10837041.382 6  -8287567.20521        15.000           0.875
 91  5 28 19  3 14.9990000  0  6G18G16G11G19G 2G 6
  23333980.612    14694882.384 6  11450541.66421        12.000           0.625
  23395200.933    -4200450.175 5  -3136166.01721         9.500           0.438
  22793949.401    -7407412.187 6  -5772003.92821        18.250           0.938
  20988437.855     2051737.411 6   1598752.74422        18.000           1.969
  21027260.808   -17145042.584 7 -13154413.35023        25.750           2.844
  22274025.620   -10872044.979 6  -8314842.73721        15.250           0.906
 91  5 28 19  3 29.9990000  0  6G18G16G11G19G 2G 6
  23343519.933    14745004.140 6  11489597.49121        12.000           0.625
  23397842.433    -4186578.909 5  -3125357.28821        10.500           0.531
  22795990.675    -7396690.800 6  -5763649.62421        18.000           1.031
  20991611.120     2068409.101 6   1611743.65222        17.750           2.031
  21021877.003   -17173331.041 7 -13176456.29623        25.250           2.906
  22267366.933   -10907029.313 6  -8342103.24321        15.250           0.844
 91  5 28 19  3 44.9990000  0  6G18G16G11G19G 2G 6
  23353063.315    14795163.138 5  11528682.34121        11.750           0.563
  23400503.315    -4172594.842 5  -3114460.65321        10.500           0.375
  22798058.683    -7385820.785 6  -5755179.49921        17.750           0.969
  20994793.503     2085141.258 6   1624781.68322        18.500           2.125
  21016510.378   -17201540.316 7 -13198437.54223        25.250           2.875
  22260712.495   -10941993.861 6  -8369348.34621        15.000           0.844
 91  5 28 19  3 59.9990000  0  6G18G16G11G19G 2G 6
  23362616.370    14845357.237 5  11567794.53421        11.750           0.563
  23403182.808    -4158499.901 5  -3103477.63521        10.000           0.438
  22800154.847    -7374804.042 6  -5746595.04821        17.750           0.938
  20997992.558     2101931.948 6   1637865.31822        17.500           2.063
  21011156.901   -17229672.136 7 -13220358.43423        25.500           2.844
  22254064.323   -10976940.423 6  -8396579.42121        14.750           0.875
 91  5 28 19  4 14.9990000  0  6G18G16G11G19G 2G 6
  23372173.261    14895586.830 6  11606934.39321        12.250           0.563
  23405889.253    -4144293.606 5  -3092407.83021        10.500           0.344
  22802279.081    -7363640.010 6  -5737895.83521        17.500           0.969
  21001195.394     2118782.000 6   1650995.20722        18.250           2.125
  21005818.448   -17257725.723 7 -13242218.37323        25.000           2.938
  22247415.472   -11011868.119 6  -8423795.80421        15.500           0.875
 91  5 28 19  4 29.9990000  0  6G18G16G11G19G 2G 6
  23381736.855    14945849.724 5  11646100.20721        11.750           0.500
  23408611.644    -4129978.344 5  -3081253.12121         9.250           0.438
  22804431.792    -7352330.760 6  -5729083.46321        17.000           0.969
  21004412.355     2135689.421 6   1664169.79722        18.000           2.063
  21000493.323   -17285703.154 7 -13264018.96323        24.500           2.750
  22240774.159   -11046778.991 6  -8450999.08721        16.750           0.813
 91  5 28 19  4 44.9990000  0  6G18G16G11G19G 2G 6
  23391307.644    14996144.796 5  11685291.07321        11.500           0.438
  23411356.222    -4115555.197 5  -3070014.36321         8.500           0.406
  22806608.120    -7340877.383 6  -5720158.77621        16.750           0.969
  21007640.526     2152653.359 6   1677388.42822        18.250           2.094
  20995185.917   -17313605.348 7 -13285760.92823        25.500           2.844
  22234130.792   -11081674.056 6  -8478190.04621        16.750           0.844
 91  5 28 19  4 59.9990000  0  6G18G16G11G19G 2G 6
  23400886.323    15046475.571 5  11724509.77521        11.250           0.469
  23414122.417    -4101020.760 5  -3058688.87521         8.750           0.313
  22808817.120    -7329276.213 6  -5711118.93221        16.500           1.031
  21010882.167     2169677.752 6   1690654.17022        17.500           2.031
  20989890.112   -17341428.391 7 -13307441.22023        25.500           2.906
  22227499.300   -11116549.254 6  -8505365.52321        17.500           0.938
 91  5 28 19  5 14.9990000  0  6G18G16G11G19G 2G 6
  23410471.136    15096840.645 5  11763755.20521        11.000           0.594
  23416911.698    -4086375.975 5  -3047277.41121         8.500           0.406
  22811053.612    -7317528.365 6  -5701964.78921        17.500           0.969
  21014132.855     2186761.691 6   1703966.30922        18.000           2.094
  20984611.776   -17369173.192 7 -13329060.54023        26.250           2.969
  22220863.214   -11151405.531 6  -8532526.25821        17.000           0.906
 91  5 28 19  5 29.9990000  0  6G18G16G11G19G 2G 6
  23420060.409    15147239.500 5  11803026.95221        11.000           0.375
  23419718.940    -4071621.743 5  -3035780.64421         9.000           0.375
  22813316.886    -7305634.426 6  -5692696.81821        17.500           0.969
  21017394.644     2203904.595 6   1717324.39822        17.500           2.094
  20979345.636   -17396840.131 7 -13350619.18723        25.500           2.875
  22214234.276   -11186243.219 6  -8559672.50721        17.250           1.000
 91  5 28 19  5 44.9990000  0  6G18G16G11G19G 2G 6
  23429658.636    15197672.807 5  11842325.55021        10.750           0.469
  23422546.511    -4056757.125 5  -3024197.87521         8.500           0.344
  22815609.597    -7293593.460 6  -5683314.28121        17.750           1.063
  21020665.870     2221107.566 6   1730729.28722        17.750           2.000
  20974096.753   -17424428.123 7 -13372116.31323        25.750           2.813
  22207611.105   -11221061.392 6  -8586803.54721        17.500           1.063
 91  5 28 19  5 59.9990000  0  6G18G16G11G19G 2G 6
  23439259.808    15248132.115 5  11881644.39321        10.750           0.438
  23425394.011    -4041790.867 5  -3012535.90521         9.500           0.438
  22817924.581    -7281413.754 6  -5673823.64321        17.250           1.000
  21023951.347     2238362.454 6   1744174.63422        18.000           2.125
  20968859.831   -17451945.505 7 -13393558.42723        25.500           2.781
  22200986.105   -11255868.020 6  -8613925.59721        17.500           0.969
 91  5 28 19  6 14.9990000  0  6G18G16G11G19G 2G 6
  23448868.464    15298613.937 5  11920980.79321        10.500           0.625
  23428262.800    -4026726.191 5  -3000797.24221         9.500           0.438
  22820269.065    -7269098.704 6  -5664227.53221        17.500           1.094
  21027241.831     2255666.075 6   1757657.95322        17.750           2.000
  20963637.323   -17479395.537 7 -13414948.06223        25.750           2.813
  22194362.558   -11290666.472 6  -8641041.27121        17.000           0.938
 91  5 28 19  6 29.9990000  0  6G18G16G11G19G 2G 6
  23458480.886    15349132.864 5  11960346.09721        10.250           0.500
  23431151.651    -4011548.728 5  -2988970.69121         9.000           0.313
  22822641.558    -7256633.798 6  -5654514.65621        17.250           1.063
  21030548.409     2273033.245 6   1771190.79122        18.250           2.125
  20958428.784   -17506763.399 7 -13436273.66623        25.250           2.781
  22187745.409   -11325441.861 6  -8668138.97321        16.500           1.000
 91  5 28 19  6 44.9990000  0  6G18G16G11G19G 2G 6
  23468101.214    15399686.657 5  11999738.55921        10.000           0.531
  23434060.550    -3996260.543 5  -2977057.86121         8.500           0.500
  22825042.714    -7244020.606 6  -5644686.23221        17.500           1.000
  21033864.667     2290462.274 6   1784771.83222        18.500           2.063
  20953234.448   -17534050.538 7 -13457536.36923        24.250           2.813
  22181132.144   -11360195.666 6  -8695219.85521        16.500           1.000
 91  5 28 19  6 59.9990000  0  6G18G16G11G19G 2G 6
  23477725.550    15450266.889 5  12039151.63321        10.250           0.531
  23436990.198    -3980870.241 5  -2965065.47621         9.000           0.438
  22827468.370    -7231267.787 6  -5634748.99921        17.500           1.125
  21037193.065     2307944.852 6   1798394.60222        18.000           1.969
  20948056.464   -17561265.449 7 -13478742.78123        24.500           2.938
  22174521.315   -11394936.299 6  -8722290.48021        15.750           0.969
 91  5 28 19  7 14.9990000  0  6G18G16G11G19G 2G 6
  23487357.472    15500877.627 5  12078588.48921        10.000           0.500
  23439939.159    -3965373.452 5  -2952990.10721         8.750           0.313
  22829923.222    -7218371.092 6  -5624699.67021        17.500           1.031
  21040530.042     2325485.348 6   1812062.49922        19.000           1.938
  20942891.808   -17588403.724 7 -13499889.48123        24.000           2.813
  22167914.050   -11429659.316 6  -8749347.37621        15.750           1.063
 91  5 28 19  7 29.9990000  0  6G18G16G11G19G 2G 6
  23496994.667    15551526.914 5  12118055.36221         9.750           0.438
  23442913.472    -3949762.217 5  -2940825.56821         9.000           0.313
  22832404.503    -7205322.385 6  -5614531.88121        17.500           1.031
  21043880.933     2343092.028 6   1825781.96822        18.500           1.969
  20937742.464   -17615457.067 7 -13520969.99923        23.750           2.781
  22161312.269   -11464356.514 6  -8776384.15921        16.500           0.938
 91  5 28 19  7 44.9990000  0  6G18G16G11G19G 2G 6
  23506640.183    15602206.083 5  12157545.52921         9.750           0.563
  23445896.839    -3934045.305 5  -2928578.65021         8.250           0.406
  22834916.222    -7192130.119 6  -5604252.23521        17.750           1.094
  21047242.112     2360756.612 6   1839546.56122        18.750           1.938
  20932609.245   -17642433.798 7 -13541990.82423        23.500           2.719
  22154714.050   -11499035.922 6  -8803407.07221        16.500           0.969
 91  5 28 19  7 59.9990000  0  6G18G16G11G19G 2G 6
  23516289.597    15652915.701 5  12197059.42421        10.250           0.500
  23448911.675    -3918221.971 5  -2916248.83321         8.750           0.375
  22837455.292    -7178793.633 6  -5593860.19821        18.000           0.969
  21050617.636     2378479.886 6   1853356.88022        17.750           1.875
  20927491.417   -17669333.211 7 -13562951.39323        24.500           2.656
  22148116.925   -11533696.915 6  -8830415.63621        16.000           1.094
 91  5 28 19  8 14.9990000  0  6G18G16G11G19G 2G 6
  23525945.214    15703656.311 5  12236597.47021        10.250           0.469
  23451943.542    -3902291.901 5  -2903835.83421         9.000           0.344
  22840019.675    -7165312.261 6  -5583355.25621        17.750           0.875
  21053999.269     2396262.598 6   1867213.51422        18.750           1.938
  20922388.167   -17696154.382 7 -13583851.00523        25.000           2.688
  22141523.878   -11568338.496 6  -8857409.07021        15.500           1.156
 91  5 28 19  8 29.9990000  0  6G18G16G11G19G 2G 6
  23535605.651    15754424.213 5  12276156.77621         9.750           0.438
  23454993.003    -3886258.534 5  -2891342.36821         9.500           0.438
  22842611.386    -7151689.599 6  -5572740.21521        17.250           1.031
  21057396.980     2414101.510 6   1881113.94222        18.500           1.813
  20917298.081   -17722900.718 7 -13604692.30523        25.000           2.750
  22134935.144   -11602963.954 6  -8884389.94121        16.250           1.094
 91  5 28 19  8 44.9990000  0  6G18G16G11G19G 2G 6
  23545272.683    15805222.974 5  12315740.13021         9.750           0.438
  23458068.081    -3870118.335 5  -2878765.63021         9.750           0.313
  22845232.753    -7137921.923 6  -5562012.18121        17.000           0.844
  21060798.472     2432000.426 6   1895061.12822        18.500           1.719
  20912223.706   -17749568.411 7 -13625472.32223        24.250           2.750
  22128350.401   -11637569.442 6  -8911355.25621        16.750           1.125
 91  5 28 19  8 59.9990000  0  6G18G16G11G19G 2G 6
  23554945.808    15856054.589 5  12355349.09221         9.750           0.500
  23461158.964    -3853869.363 5  -2866104.16021         9.750           0.438
  22847880.323    -7124007.050 6  -5551169.46421        17.000           0.969
  21064217.417     2449961.617 6   1909056.83722        17.500           1.750
  20907165.597   -17776155.042 7 -13646189.17223        24.750           2.656
  22121767.972   -11672152.727 6  -8938303.27121        16.500           1.156
 91  5 28 19  9 14.9990000  0  6G18G16G11G19G 2G 6
  23564624.081    15906913.105 5  12394979.01621        10.000           0.563
  23464268.394    -3837517.556 5  -2853362.54121         9.750           0.406
  22850553.847    -7109950.813 6  -5540216.58521        17.000           0.813
  21067646.440     2467979.717 6   1923096.89322        17.750           1.719
  20902119.370   -17802666.272 7 -13666847.26923        24.250           2.719
  22115189.870   -11706719.256 6  -8965238.21821        16.500           0.938
 91  5 28 19  9 29.9990000  0  6G18G16G11G19G 2G 6
  23574305.706    15957799.219 5  12434630.43821        10.000           0.563
  23467400.831    -3821062.406 5  -2840540.39321        10.000           0.469
  22853257.058    -7095752.527 6  -5529153.01821        17.250           0.938
  21071086.175     2486055.402 6   1937181.82122        17.500           1.719
  20897089.503   -17829101.287 7 -13687445.97723        24.250           2.656
  22108615.667   -11741268.173 6  -8992159.45021        16.250           1.094
 91  5 28 19  9 44.9990000  0  6G18G16G11G19G 2G 6
  23583994.706    16008711.158 5  12474301.98921        10.000           0.563
  23470551.120    -3804505.636 5  -2827639.06121         9.750           0.375
  22855983.831    -7081413.853 6  -5517980.05321        17.500           0.813
  21074535.456     2504187.188 6   1951310.46522        18.000           1.813
  20892073.105   -17855461.519 7 -13707986.41323        24.500           2.656
  22102043.206   -11775800.707 6  -9019067.91321        16.750           1.031
 91  5 28 19  9 59.9990000  0  6G18G16G11G19G 2G 6
  23593687.019    16059646.743 5  12513991.95621        10.000           0.531
  23473722.933    -3787849.363 5  -2814660.18221         9.250           0.313
  22858739.683    -7066936.698 6  -5506699.19521        17.250           0.875
  21077998.511     2522373.350 6   1965481.47022        17.500           1.719
  20887071.448   -17881748.886 7 -13728470.07523        24.750           2.750
  22095477.245   -11810318.828 6  -9045965.14521        17.500           1.156
 91  5 28 19 10 14.9990000  0  6G18G16G11G19G 2G 6
  23603386.300    16110612.489 5  12553705.43121         9.500           0.469
  23476910.237    -3771087.221 5  -2801598.82421         9.000           0.406
  22861523.722    -7052314.547 6  -5495305.35021        17.000           0.781
  21081468.480     2540620.658 6   1979700.13022        18.000           1.750
  20882082.026   -17907956.569 7 -13748891.63923        25.250           2.813
  22088913.214   -11844815.758 6  -9072845.87221        18.250           1.125
 91  5 28 19 10 29.9990000  0  6G18G16G11G19G 2G 6
  23613088.128    16161606.128 5  12593440.63521         9.250           0.375
  23480121.315    -3754221.282 5  -2788456.58721         9.250           0.344
  22864331.214    -7037549.574 6  -5483800.21221        16.750           0.813
  21084956.909     2558927.031 6   1993964.81322        17.250           1.750
  20877111.605   -17934086.351 7 -13769252.50323        25.500           2.719
  22082350.534   -11879293.373 6  -9099711.54821        18.250           1.125
 91  5 28 19 10 44.9990000  0  6G18G16G11G19G 2G 6
  23622798.167    16212626.296 5  12633196.50521         9.500           0.469
  23483348.636    -3737252.804 5  -2775234.46121         9.250           0.344
  22867166.534    -7022643.089 6  -5472184.80521        16.500           0.875
  21088449.011     2577291.494 6   2008274.76022        18.750           1.875
  20872152.839   -17960139.621 7 -13789553.75223        25.250           2.625
  22075794.245   -11913752.796 6  -9126563.04921        18.500           1.250
 91  5 28 19 10 59.9990000  0  6G18G16G11G19G 2G 6
  23632510.159    16263665.855 5  12672967.49721         9.500           0.438
  23486596.151    -3720188.986 5  -2761938.05121        10.000           0.438
  22870031.112    -7007602.038 6  -5460464.54621        17.000           0.781
  21091951.495     2595707.228 6   2022624.66422        18.500           1.781
  20867208.472   -17986122.958 7 -13809800.50923        25.000           2.688
  22069238.870   -11948200.656 6  -9153405.53721        18.250           1.156
 91  5 28 19 11 14.9990000  0  6G18G16G11G19G 2G 6
  23642226.894    16314731.637 5  12712758.92521         9.500           0.469
  23489863.972    -3703023.487 5  -2748562.38721        10.500           0.406
  22872921.230    -6992419.520 6  -5448634.04521        17.750           0.875
  21095468.112     2614181.207 6   2037019.94922        17.500           1.875
  20862278.925   -18012029.461 7 -13829987.39123        25.250           2.656
  22062687.339   -11982630.058 6  -9180233.63921        18.000           1.250
 91  5 28 19 11 29.9990000  0  6G18G16G11G19G 2G 6
  23651949.714    16365821.246 5  12752568.91221         9.250           0.438
  23493147.667    -3685758.293 5  -2735109.04621        10.750           0.375
  22875836.940    -6977097.920 6  -5436695.17321        17.750           0.750
  21098992.433     2632711.395 6   2051459.02722        16.750           1.875
  20857362.917   -18037861.258 7 -13850116.06123        25.250           2.750
  22056137.011   -12017042.852 6  -9207048.79721        18.500           1.219
 91  5 28 19 11 44.9990000  0  6G18G16G11G19G 2G 6
  23661679.355    16416937.256 5  12792399.46721         9.250           0.406
  23496448.659    -3668390.964 5  -2721576.11221         9.750           0.438
  22878779.620    -6961634.377 6  -5424645.68621        17.500           0.875
  21102529.917     2651300.758 6   2065944.21622        17.250           1.844
  20852462.753   -18063615.319 7 -13870184.15323        25.000           2.688
  22049593.401   -12051436.090 6  -9233848.72021        19.000           1.219
 91  5 28 19 11 59.9990000  0  6G18G16G11G19G 2G 6
  23671409.917    16468077.309 5  12832248.76721         9.250           0.375
  23499778.026    -3650923.634 5  -2707965.28021        10.000           0.406
  22881748.058    -6946031.105 6  -5412487.33521        17.500           0.875
  21106078.792     2669947.119 6   2080473.82522        17.000           1.906
  20847576.190   -18089293.643 7 -13890193.23523        25.250           2.750
  22043052.980   -12085811.722 6  -9260634.93821        18.750           1.281
 91  5 28 19 12 14.9990000  0  6G18G16G11G19G 2G 6
  23681146.581    16519239.486 5  12872115.29721         9.250           0.375
  23503120.815    -3633358.457 5  -2694278.17621         9.500           0.406
  22884744.706    -6930290.204 6  -5400221.73321        18.000           0.906
  21109637.792     2688648.777 6   2095046.52122        17.500           1.938
  20842704.417   -18114898.275 7 -13910144.89723        25.500           2.906
  22036512.909   -12120171.690 6  -9287408.93121        18.500           1.188
 91  5 28 19 12 29.9990000  0  6G18G16G11G19G 2G 6
  23690886.683    16570427.858 5  12912002.24221         9.000           0.313
  23506477.308    -3615691.155 5  -2680511.49821         9.250           0.313
  22887766.698    -6914407.284 6  -5387845.46621        18.250           0.781
  21113209.636     2707410.382 6   2109665.92722        17.250           1.938
  20837846.300   -18140424.636 7 -13930035.56523        25.000           2.844
  22029979.105   -12154511.294 6  -9314167.05621        18.500           1.156
 91  5 28 19 12 44.9990000  0  6G18G16G11G19G 2G 6
  23700629.980    16621635.947 5  12951904.56021         9.000           0.406
  23509860.706    -3597928.248 5  -2666670.34221         9.500           0.375
  22890813.511    -6898388.753 6  -5375363.54221        18.000           0.906
  21116788.956     2726225.660 6   2124327.15322        17.750           1.969
  20833000.722   -18165878.702 7 -13949869.90423        24.250           2.906
  22023448.651   -12188836.603 6  -9340914.05221        19.000           1.156
 91  5 28 19 12 59.9990000  0  6G18G16G11G19G 2G 6
  23710381.323    16672870.256 5  12991827.30321         9.000           0.344
  23513258.534    -3580063.436 5  -2652749.74521         9.250           0.281
  22893887.901    -6882228.037 6  -5362770.81121        17.250           0.750
  21120381.659     2745101.295 6   2139035.42022        17.750           2.031
  20828173.737   -18191253.808 7 -13969642.70923        25.000           3.063
  22016918.464   -12223140.903 6  -9367644.67521        18.750           1.094
 91  5 28 19 13 14.9990000  0  6G18G16G11G19G 2G 6
  23720135.308    16724126.433 5  13031767.07121         9.000           0.313
  23516677.722    -3562100.799 5  -2638752.95021         9.000           0.281
  22896990.605    -6865929.397 6  -5350070.61121        17.000           0.688
  21123983.776     2764033.156 6   2153787.49122        18.250           2.063
  20823359.151   -18216554.185 7 -13989357.28623        24.750           3.031
  22010395.683   -12257428.214 6  -9394362.05821        19.250           1.063
 91  5 28 19 13 29.9990000  0  6G18G16G11G19G 2G 6
  23729895.690    16775409.542 5  13071727.82921         9.250           0.375
  23520115.972    -3544035.965 5  -2624676.52421         9.000           0.406
  22900119.190    -6849487.667 6  -5337258.89421        17.250           0.844
  21127599.776     2783026.753 6   2168587.67722        18.000           2.094
  20818560.081   -18241774.509 7 -14009009.48023        25.000           3.094
  22003872.823   -12291693.094 6  -9421061.96921        18.750           1.031
 91  5 28 19 13 44.9990000  0  6G18G16G11G19G 2G 6
  23739658.769    16826716.645 5  13111707.29821         9.250           0.469
  23523570.464    -3525871.263 5  -2610522.24521         8.750           0.313
  22903274.667    -6832905.673 6  -5324337.89621        17.000           0.781
  21131223.925     2802079.386 6   2183433.84922        18.000           2.031
  20813775.878   -18266917.283 7 -14028601.25223        25.250           3.031
  21997357.659   -12325938.101 6  -9447746.39121        18.750           1.031
 91  5 28 19 13 59.9990000  0  6G18G16G11G19G 2G 6
  23749424.605    16878047.752 5  13151705.46521         9.250           0.375
  23527048.894    -3507606.751 5  -2596290.24321         9.000           0.438
  22906459.151    -6816183.481 6  -5311307.65621        16.750           0.781
  21134864.448     2821191.219 6   2198326.15922        17.000           2.125
  20809004.690   -18291982.486 7 -14048132.58423        25.500           2.969
  21990844.190   -12360163.027 6  -9474415.17121        18.500           1.063
 91  5 28 19 14 14.9990000  0  6G18G16G11G19G 2G 6
  23759198.089    16929402.336 5  13191721.90321         8.750           0.375
  23530542.495    -3489243.401 5  -2581981.18921         8.750           0.438
  22909664.089    -6799321.640 6  -5298168.59121        16.500           0.813
  21138509.909     2840361.880 6   2213264.30722        18.250           2.156
  20804252.081   -18316970.328 7 -14067603.63123        26.500           2.906
  21984334.831   -12394368.294 6  -9501068.62121        18.000           0.969
 91  5 28 19 14 29.9990000  0  6G18G16G11G19G 2G 6
  23768977.612    16980785.714 5  13231760.80621         9.250           0.469
  23534056.558    -3470775.575 5  -2567590.75721         9.000           0.250
  22912905.628    -6782314.406 6  -5284916.24121        17.250           0.844
  21142172.636     2859597.471 6   2228253.05422        17.000           2.063
  20799512.065   -18341874.982 7 -14087009.85423        26.500           2.906
  21977829.980   -12428547.757 6  -9527701.96421        17.500           1.063
 91  5 28 19 14 44.9990000  0  6G18G16G11G19G 2G 6
  23778759.120    17032190.792 5  13271816.61121         9.250           0.406
  23537588.784    -3452210.271 5  -2553124.32821         9.250           0.375
  22916165.698    -6765168.781 6  -5271556.07221        17.500           0.875
  21145841.034     2878891.119 6   2243287.03922        18.000           2.156
  20794787.980   -18366703.380 7 -14106356.66323        26.250           2.906
  21971330.300   -12462708.305 6  -9554320.56921        17.500           1.094
 91  5 28 19 14 59.9990000  0  6G18G16G11G19G 2G 6
  23788545.667    17083619.174 5  13311890.57121         9.250           0.344
  23541142.128    -3433546.080 5  -2538580.85821        10.000           0.344
  22919454.675    -6747883.049 6  -5258086.71521        17.000           0.719
  21149525.886     2898244.689 6   2258367.71622        17.000           2.125
  20790077.128   -18391453.536 7 -14125642.49923        26.000           3.000
  21964834.097   -12496847.915 6  -9580922.87321        17.250           1.063
 91  5 28 19 15 14.9990000  0  6G18G16G11G19G 2G 6
  23798336.526    17135073.781 5  13351984.96721         9.000           0.250
  23544714.878    -3414779.959 5  -2523957.96621         9.500           0.281
  22922771.472    -6730454.297 6  -5244505.91721        15.750           0.844
  21153218.394     2917661.355 6   2273497.55722        17.250           2.156
  20785383.558   -18416122.341 7 -14144864.93623        26.250           2.938
  21958342.519   -12530963.458 6  -9607506.41321        17.250           0.969
 91  5 28 19 15 29.9990000  0  6G18G16G11G19G 2G 6
  23808133.065    17186548.909 5  13392095.34121         8.750           0.406
  23548305.198    -3395918.026 5  -2509260.42121         9.000           0.344
  22926113.917    -6712888.367 6  -5230818.20721        15.750           0.781
  21156926.909     2937135.634 6   2288672.29522        16.000           2.031
  20780702.925   -18440715.333 7 -14164028.30623        27.250           2.938
  21951853.253   -12565060.389 6  -9634075.44521        16.750           1.063
 91  5 28 19 15 44.9990000  0  6G18G16G11G19G 2G 6
  23817934.331    17238051.320 5  13432226.98621         8.500           0.438
  23551911.495    -3376953.452 5  -2494482.88421         8.500           0.406
  22929483.292    -6695178.106 6  -5217018.03521        16.250           0.750
  21160642.995     2956674.750 6   2303897.55522        17.000           2.281
  20776038.815   -18465225.198 7 -14183126.90723        27.500           2.969
  21945371.136   -12599131.373 6  -9660624.26221        16.750           0.969
 91  5 28 19 15 59.9990000  0  6G18G16G11G19G 2G 6
  23827742.542    17289596.558 5  13472391.99021         8.250           0.375
  23555544.472    -3357870.549 5  -2479613.16621         8.500           0.344
  22932886.026    -6677307.952 6  -5203093.28021        16.750           0.813
  21164377.737     2976294.399 6   2319185.56422        16.500           2.063
  20771394.355   -18489636.240 8 -14202148.50623        28.250           3.094
  21938894.565   -12633160.567 6  -9687140.52321        16.250           1.188
 91  5 28 19 16 14.9990000  0  6G18G16G11G19G 2G 6
  23837554.855    17341162.778 5  13512573.35421         8.250           0.344
  23559190.948    -3338690.795 5  -2464667.96221         8.500           0.406
  22936309.722    -6659299.858 6  -5189061.04021        16.000           0.750
  21168121.589     2995972.866 6   2334519.40722        17.000           2.125
  20766763.175   -18513970.243 8 -14221110.06823        28.000           3.094
  21932422.550   -12667169.622 6  -9713641.07421        16.250           1.188
 91  5 28 19 16 29.9990000  0  6G18G16G11G19G 2G 6
  23847367.745    17392727.507 5  13552753.54421         8.750           0.344
  23562857.839    -3319437.261 5  -2449665.25221         8.500           0.406
  22939760.120    -6641176.135 6  -5174938.69721        16.000           0.688
  21171876.019     3015688.021 6   2349881.83722        15.750           2.188
  20762142.503   -18538249.228 8 -14240028.75723        28.250           3.219
  21925952.159   -12701180.533 6  -9740143.09121        16.000           1.125
 91  5 28 19 16 44.9990000  0  6G18G16G11G19G 2G 6
  23857182.042    17444305.652 5  13592944.18621         8.750           0.281
  23566535.433    -3300094.891 5  -2434593.33021         8.250           0.375
  22943231.800    -6622921.862 6  -5160714.64121        16.250           0.844
  21175634.198     3035454.992 6   2365284.64422        16.500           2.125
  20757535.995   -18562458.169 7 -14258892.86423        27.750           3.281
  21919479.745   -12735178.181 6  -9766634.75921        16.000           1.188
 91  5 28 19 16 59.9990000  0  6G18G16G11G19G 2G 6
  23867002.081    17495908.510 5  13633154.10021         8.500           0.344
  23570236.456    -3280652.491 5  -2419443.47221         8.250           0.500
  22946734.628    -6604525.543 6  -5146379.88321        16.750           0.813
  21179408.706     3055285.451 6   2380736.91622        16.000           2.125
  20752945.331   -18586585.326 7 -14277693.24323        27.750           3.188
  21913015.964   -12769150.749 6  -9793106.88921        16.000           1.219
 91  5 28 19 17 14.9990000  0  6G18G16G11G19G 2G 6
  23876824.456    17547529.337 5  13673378.00121         8.500           0.250
  23573954.886    -3261116.631 5  -2404220.79821         8.500           0.375
  22950262.917    -6585993.829 6  -5131939.63121        17.250           0.781
  21183192.550     3075173.220 6   2396233.84822        16.750           2.125
  20748366.808   -18610637.182 7 -14296434.95323        27.250           3.125
  21906554.823   -12803104.671 6  -9819564.48721        15.750           1.156
 91  5 28 19 17 29.9990000  0  6G18G16G11G19G 2G 6
  23886649.331    17599169.111 5  13713616.68921         8.250           0.313
  23577690.065    -3241486.118 5  -2388924.36621         8.750           0.469
  22953814.159    -6567325.494 6  -5117392.93321        17.000           0.781
  21186989.636     3095119.504 6   2411776.37522        16.250           2.125
  20743805.222   -18634612.394 7 -14315116.93623        27.250           3.063
  21900095.347   -12837038.435 6  -9846006.38221        15.500           1.188
 91  5 28 19 17 44.9990000  0  6G18G16G11G19G 2G 6
  23896482.472    17650833.720 5  13753874.70121         7.750           0.281
  23581444.808    -3221755.352 5  -2373549.81121         9.250           0.594
  22957393.620    -6548514.647 6  -5102735.18721        16.750           0.781
  21190794.995     3115130.320 6   2427369.19522        16.500           2.063
  20739258.253   -18658504.798 8 -14333734.39523        28.000           3.063
  21893646.261   -12870945.944 6  -9872427.82021        15.750           1.188
 91  5 28 19 17 59.9990000  0  6G18G16G11G19G 2G 6
  23906318.331    17702520.859 5  13794150.27721         8.000           0.281
  23585216.495    -3201926.853 5  -2358099.09921         9.500           0.531
  22961000.284    -6529563.657 6  -5087968.21521        16.500           0.750
  21194616.995     3135203.624 6   2443010.69922        16.250           2.000
  20734728.808   -18682316.568 8 -14352289.02323        28.500           3.281
  21887197.105   -12904829.271 6  -9898830.42221        15.250           1.281
 91  5 28 19 18 14.9990000  0  6G18G16G11G19G 2G 6
  23916158.417    17754227.690 5  13834441.21421         7.750           0.281
  23589009.847    -3182003.297 5  -2342574.30721         9.750           0.625
  22964630.862    -6510475.120 6  -5073094.06521        16.250           0.688
  21198447.605     3155337.324 6   2458699.26622        16.750           2.094
  20730211.315   -18706049.983 8 -14370782.59223        28.000           3.344
  21880754.034   -12938690.655 6  -9925215.91221        15.250           1.219
 91  5 28 19 18 29.9990000  0  6G18G16G11G19G 2G 6
  23926001.261    17805949.468 5  13874743.77821         7.500           0.219
  23592822.495    -3161989.617 5  -2326979.29521         9.750           0.438
  22968290.862    -6491253.986 6  -5058116.59221        16.250           0.781
  21202288.425     3175526.521 6   2474431.08022        17.250           2.125
  20725709.831   -18729709.772 8 -14389218.78923        28.000           3.375
  21874313.620   -12972534.750 6  -9951587.92921        15.500           1.250
 91  5 28 19 18 44.9990000  0  6G18G16G11G19G 2G 6
  23935846.550    17857689.705 5  13915060.72121         7.500           0.250
  23596645.706    -3141882.486 5  -2311311.46221         9.250           0.344
  22971972.386    -6471896.814 6  -5043033.11121        16.500           0.781
  21206143.003     3195774.829 6   2490208.95522        16.750           2.063
  20721222.284   -18753292.327 7 -14407594.81223        27.500           3.438
  21867876.620   -13006357.835 6  -9977943.57221        16.000           1.219
 91  5 28 19 18 59.9990000  0  6G18G16G11G19G 2G 6
  23945695.276    17909445.315 5  13955389.65321         8.000           0.250
  23600488.776    -3121684.847 5                         8.750
  22975683.089    -6452406.462 6  -5027845.86021        16.000           0.844
  21210005.651     3216079.600 6                        16.750
  20716747.269   -18776800.343 7 -14425912.75123        26.500           3.438
  21861445.761   -13040162.401 6 -10004284.79621        17.000           1.250
 91  5 28 19 19 14.9990000  0  6G18G16G11G19G 2G 6
  23955548.980    17961220.061 5  13995733.49821         8.250           0.188
  23604348.659    -3101393.002 5                         8.000
  22979416.894    -6432779.189 6  -5012551.91621        16.000           0.844
  21213882.245     3236445.000 6                        17.000
  20712288.651   -18800229.903 7 -14444169.54823        26.750           3.406
  21855016.964   -13073944.427 6 -10030608.45721        17.250           1.250
 91  5 28 19 19 29.9990000  0  6G18G16G11G19G 2G 6
  23965404.526    18013014.286 5  14036092.53021         8.500           0.219
  23608230.175    -3081006.692 5                         8.250
  22983179.667    -6413014.394 6  -4997150.83221        16.000           0.750
  21217768.245     3256871.735 6                        16.000
  20707846.706   -18823580.179 7 -14462364.57323        27.000           3.469
  21848592.144   -13107703.051 6 -10056913.87721        17.250           1.250
 91  5 28 19 19 44.9990000  0  6G18G16G11G19G 2G 6
  23975264.276    18064825.898 5  14076465.10521         8.500           0.313
  23612123.464    -3060527.998 4                         7.000
  22986965.214    -6393114.167 6  -4981644.22321        16.250           0.844
  21221667.198     3277357.872 6                        16.250
  20703417.175   -18846853.138 7 -14480499.34723        27.250           3.438
  21842172.097   -13141440.089 6 -10083202.46321        17.500           1.156
 91  5 28 19 19 59.9990000  0  6G18G16G11G19G 2G 6
  23985128.628    18116654.942 5  14116851.25321         7.750           0.219
  23616037.933    -3039956.702 4                         7.250
  22990777.300    -6373078.359 6  -4966031.95821        16.000           0.875
  21225578.769     3297903.677 6   2569789.72622        16.000           2.063
  20699004.190   -18870048.457 7 -14498573.62323        27.750           3.344
  21835757.745   -13175155.207 6 -10109473.98221        17.500           1.281
 91  5 28 19 20 14.9990000  0  6G18G16G11G19G 2G 6
  23994993.105    18168498.676 5  14157248.86621         8.000           0.188
  23619975.128    -3019295.515 5                         7.500
  22994616.980    -6352909.528 6  -4950316.03621        16.250           0.750
  21229495.690     3318506.933 6   2585844.18322        16.500           1.969
  20694603.706   -18893168.270 7 -14516589.06823        26.750           3.344
  21829345.636   -13208850.494 6 -10135730.04321        18.250           1.250
 91  5 28 19 20 29.9990000  0  6G18G16G11G19G 2G 6
  24004862.058    18220356.899 5  14197657.74521         7.500           0.219
  23623920.636    -2998545.103 5                         7.750
  22998480.019    -6332608.174 6  -4934496.83021        15.750           0.781
  21233431.050     3339167.368 6   2601943.19222        15.250           2.063
  20690218.378   -18916212.994 7 -14534545.99123        26.750           3.250
  21822937.698   -13242526.250 6 -10161970.87721        19.000           1.313
 91  5 28 19 20 44.9990000  0  6G18G16G11G19G 2G 6
  24014732.550    18272227.315 4  14238076.13621         7.000           0.250
  23627886.675    -2977707.327 5                         8.250
  23002366.894    -6312176.167 6  -4918575.83221        15.500           0.875
  21237370.933     3359883.418 6   2618085.53522        16.000           2.031
  20685847.394   -18939184.298 7 -14552445.71023        27.000           3.156
  21816534.659   -13276184.037 6 -10188197.73121        19.000           1.219
 91  5 28 19 20 59.9990000  0  6G18G16G11G19G 2G 6
  24024601.855    18324112.386 4  14278505.94121         7.000           0.250
  23631870.120    -2956779.924 5                         9.000
  23006279.894    -6291611.053 6  -4902551.11921        15.000           0.813
  21241327.261     3380657.669 6   2634273.23122        15.750           2.031
  20681489.511   -18962079.563 7 -14570286.18023        27.250           3.344
  21810131.230   -13309821.201 6 -10214408.50221        18.750           1.219
 91  5 28 19 21 14.9990000  0  6G18G16G11G19G 2G 6
  24034482.800    18376010.339 4  14318945.78121         7.250           0.281
  23635867.292    -2935764.936 5        -0.44831         9.250           0.375
  23010218.144    -6270914.689 6  -4886424.13221        15.250           0.844
  21245289.550     3401488.728 6   2650505.20322        16.000           1.969
  20677148.339   -18984900.424 7 -14588068.67723        27.750           3.375
  21803733.667   -13343439.136 6 -10240604.30421        19.000           1.156
 91  5 28 19 21 29.9990000  0  6G18G16G11G19G 2G 6
  24044358.745    18427913.947 4  14359390.02921         7.250           0.281
  23639882.370    -2914669.475 5     16437.53421         9.000           0.406
  23014179.784    -6250094.155 6                        15.250
  21249264.550     3422369.486 6                        15.750
  20672816.933   -19007653.526 7 -14605798.37523        26.750           3.438
  21797339.503   -13377044.607 6 -10266790.37621        19.250           1.125
 91  5 28 19 21 44.9990000  0  6G18G16G11G19G 2G 6
  24054238.972    18479840.003 4  14399851.78321         7.250           0.188
  23643914.042    -2893477.012 5     32951.06821         8.250           0.344
  23018170.065    -6229132.783 6                        15.750
  21253248.003     3443317.086 6                        16.000
  20668504.698   -19030321.948 7 -14623462.07923        26.500           3.375
  21790949.526   -13410620.655 6 -10292953.52321        19.250           1.156
 91  5 28 19 21 59.9990000  0  6G18G16G11G19G 2G 6
  24064122.081    18531782.545 4  14440326.37821         7.250           0.219
  23647966.323    -2872193.209 5     49535.76421         7.500           0.219
  23022183.355    -6208036.481 6  -4837428.26621        16.000           0.719
  21257246.706     3464325.731 6   2699469.01422        15.500           2.000
  20664205.597   -19052911.489 7 -14641064.32023        26.500           3.406
  21784564.120   -13444172.850 6 -10319098.09421        19.500           1.188
 91  5 28 19 22 14.9990000  0  6G18G16G11G19G 2G 6
  24074009.308    18583737.543 4  14480810.66421         7.250           0.219
  23652032.651    -2850822.441 5     66188.26221         7.500           0.344
  23026224.253    -6186809.167 6  -4820887.52721        16.500           0.781
  21261254.589     3485391.832 6   2715884.12622        16.500           1.906
  20659921.417   -19075425.992 7 -14658608.09023        27.000           3.375
  21778184.370   -13477704.856 6 -10345226.93321        19.250           1.188
 91  5 28 19 22 29.9990000  0  6G18G16G11G19G 2G 6
  24083899.972    18635712.649 4  14521310.61821         7.000           0.281
  23656115.214    -2829357.013 5                         7.500
  23030290.222    -6165443.051 6                        16.500
  21265276.800     3506523.374 6   2732350.23322        16.250           2.000
  20655653.894   -19097857.510 7 -14676087.20323        27.250           3.375
  21771807.433   -13511208.502 6 -10371333.66821        19.000           1.156
 91  5 28 19 22 44.9990000  0  5G16G11G19G 2G 6
  23660215.690    -2807806.727 5                         8.000
  23034381.401    -6143948.130 6                        16.000
  21269306.792     3527710.658 6   2748859.77922        16.750           1.969
  20651398.386   -19120215.584 7 -14693509.08223        27.750           3.313
  21765435.105   -13544693.447 6 -10397425.82921        18.500           1.063
 91  5 28 19 22 59.9990000  0  5G16G11G19G 2G 6
  23664337.362    -2786173.962 5                         7.500
  23038494.683    -6122326.369 6                        15.750
  21273352.745     3548951.946 6   2765411.40222        15.750           1.844
  20647157.073   -19142502.245 7 -14710875.31523        27.250           3.313
  21759067.878   -13578161.405 6 -10423504.74821        19.250           1.250
 91  5 28 19 23 14.9990000  0  5G16G11G19G 2G 6
  23668468.690    -2764452.643 5                         7.750
  23042634.042    -6100571.991 6                        15.500
  21277402.800     3570253.053 6   2782009.64222        17.250           1.844
  20642931.003   -19164711.360 7 -14728181.12123        27.000           3.375
  21752703.745   -13611606.432 6 -10449565.80621        19.250           1.125
 91  5 28 19 23 29.9990000  0  5G16G11G19G 2G 6
  23672615.878    -2742645.761 5    150481.47321         7.750           0.250
  23046798.261    -6078687.858 6  -4736637.34221        15.250           0.781
  21281465.769     3591611.583 6   2798652.62122        17.250           1.750
  20638719.159   -19186845.368 7 -14745428.40123        27.000           3.438
  21746342.253   -13645030.762 6 -10475610.73221        19.000           1.344
 91  5 28 19 23 44.9990000  0  5G16G11G19G 2G 6
  23676783.612    -2720749.822 5    167543.17321         7.750           0.250
  23050989.761    -6056670.178 6  -4719480.74321        15.500           0.719
  21285544.011     3613031.551 6   2815343.48022        17.250           1.781
  20634521.214   -19208900.090 7 -14762613.90523        26.750           3.281
  21739987.065   -13678430.401 6 -10501636.40921        19.250           1.156
 91  5 28 19 23 59.9990000  0  5G16G11G19G 2G 6
  23680968.581    -2698763.810 5    184675.05621         7.750           0.281
  23055203.487    -6034517.784 6  -4702219.17521        15.750           0.625
  21289632.823     3634514.335 6   2832083.28722        16.750           1.750
  20630340.933   -19230874.434 7 -14779736.78023        26.750           3.344
  21733635.581   -13711803.811 6 -10527641.65821        19.500           1.219
 91  5 28 19 24 14.9990000  0  5G16G11G19G 2G 6
  23685170.519    -2676685.970 5    201878.51321         8.000           0.313
  23059447.440    -6012229.011 6  -4684851.33521        15.500           0.594
  21293731.550     3656061.832 6   2848873.51022        17.000           1.844
  20626174.831   -19252766.576 7 -14796795.59323        26.750           3.156
  21727292.519   -13745149.077 7 -10553624.97921        20.000           1.313
 91  5 28 19 24 29.9990000  0  5G16G11G19G 2G 6
  23689383.480    -2654528.491 4    219144.02521         7.250           0.344
  23063710.956    -5989815.750 6  -4667386.51121        16.000           0.719
  21297844.315     3677662.597 6   2865705.24222        17.000           1.719
  20622022.722   -19274588.315 7 -14813799.55523        27.000           3.125
  21720948.300   -13778477.830 6 -10579595.42821        19.750           1.281
 91  5 28 19 24 44.9990000  0  5G16G11G19G 2G 6
  23693617.292    -2632284.973 4    236476.55321         7.000           0.344
  23068002.542    -5967271.632 6  -4649819.69521        16.000           0.625
  21301963.597     3699323.074 6   2882583.50322        17.500           1.781
  20617883.620   -19296332.936 7 -14830743.42423        26.250           3.188
  21714611.222   -13811783.389 6 -10605547.81121        19.500           1.250
 91  5 28 19 24 59.9990000  0  5G16G11G19G 2G 6
  23697868.065    -2609953.477 4    253877.67521         7.000           0.313
  23072317.183    -5944594.671 6  -4632149.37221        16.000           0.531
  21306100.034     3721045.449 6   2899510.00122        17.250           1.719
  20613760.573   -19317998.247 7 -14847625.48523        26.250           3.000
  21708275.847   -13845063.343 6 -10631480.23521        19.750           1.250
 91  5 28 19 25 14.9990000  0  5G16G11G19G 2G 6
  23702131.565    -2587538.416 4    271343.87221         7.250           0.219
  23076655.690    -5921789.205 6  -4614378.90621        15.250           0.563
  21310243.987     3742825.568 6   2916481.49122        17.000           1.719
  20609653.440   -19339588.269 7 -14864448.88323        27.000           3.031
  21701948.651   -13878321.658 7 -10657395.79721        20.250           1.344
 91  5 28 19 25 29.9990000  0  5G16G11G19G 2G 6
  23706414.284    -2565038.771 5    288876.02921         7.750           0.188
  23081022.925    -5898854.036 6  -4596507.37321        15.250           0.688
  21314398.519     3764664.856 6   2933499.08922        17.250           1.719
  20605559.745   -19361101.556 7 -14881212.48623        26.750           3.031
  21695624.573   -13911556.864 7 -10683293.35821        20.500           1.375
 91  5 28 19 25 44.9990000  0  5G16G11G19G 2G 6
  23710711.792    -2542448.896 5    306478.46621         7.500           0.250
  23085411.925    -5875783.269 6  -4578530.19921        15.000           0.594
  21318567.925     3786569.532 6   2950567.63822        17.750           1.781
  20601480.300   -19382532.148 7 -14897911.65123        26.250           3.000
  21689304.558   -13944762.817 7 -10709168.11621        20.250           1.250
 91  5 28 19 25 59.9990000  0  5G16G11G19G 2G 6
  23715029.667    -2519772.973 4    324147.94621         7.250           0.188
  23089823.737    -5852581.414 6  -4560450.85321        14.000           0.594
  21322748.487     3808535.324 6   2967683.81022        18.000           1.750
  20597417.823   -19403884.276 7 -14914549.67023        26.000           2.969
  21682991.347   -13977943.688 7 -10735023.33121        20.500           1.344
 91  5 28 19 26 14.9990000  0  5G16G11G19G 2G 6
  23719361.565    -2497007.873 4    341886.90121         7.250           0.188
  23094265.620    -5829245.040 6  -4542266.69321        14.750           0.625
  21326940.089     3830566.044 6   2984850.57822        18.000           1.750
  20593370.534   -19425154.110 7 -14931123.56723        26.000           3.000
  21676683.190   -14011095.485 7 -10760855.90021        20.750           1.344
 91  5 28 19 26 29.9990000  0  5G16G11G19G 2G 6
  23723711.355    -2474155.033 4    359694.28421         7.000           0.219
  23098733.683    -5805775.501 6  -4523978.77421        15.500           0.594
  21331147.472     3852660.457 6   3002066.97222        17.000           1.719
  20589337.261   -19446342.983 7 -14947634.38223        26.000           3.063
  21670379.964   -14044219.417 7 -10786666.74921        20.500           1.438
 91  5 28 19 26 44.9990000  0  5G16G11G19G 2G 6
  23728074.136    -2451217.426 4    377567.63021         7.250           0.125
  23103223.128    -5782175.505 6  -4505589.21621        15.500           0.625
  21335360.167     3874816.192 6   3019331.15322        17.750           1.656
  20585320.526   -19467453.356 7 -14964084.02823        26.250           3.000
  21664080.456   -14077317.787 7 -10812457.68721        20.250           1.344
 91  5 28 19 26 59.9990000  0  5G16G11G19G 2G 6
  23732458.245    -2428196.646 5    395505.85821         7.500           0.344
  23107739.136    -5758446.700 6  -4487099.28821        15.250           0.656
  21339590.823     3897031.925 6   3036642.08122        17.000           1.719
  20581318.651   -19488486.566 7 -14980473.55423        26.500           3.219
  21657786.886   -14110391.737 7 -10838229.59821        20.250           1.469
 91  5 28 19 27 14.9990000  0  5G16G11G19G 2G 6
  23736852.792    -2405091.863 5    413509.51621         8.000           0.250
  23112280.003    -5734588.397 6  -4468508.44921        15.250           0.625
  21343828.417     3919308.617 6   3054000.51422        17.500           1.688
  20577330.261   -19509441.608 7 -14996802.15923        26.000           3.125
  21651499.065   -14143440.341 7 -10863981.74722        20.250           1.500
 91  5 28 19 27 29.9990000  0  5G16G11G19G 2G 6
  23741265.315    -2381904.162 5    431577.80321         8.000           0.313
  23116841.940    -5710601.447 6  -4449817.36921        14.500           0.688
  21348078.644     3941645.509 6   3071405.85122        17.250           1.719
  20573357.558   -19530319.255 7 -15013070.45823        26.000           3.094
  21645214.409   -14176464.135 7 -10889714.56821        20.250           1.438
 91  5 28 19 27 44.9990000  0  5G16G11G19G 2G 6
  23745696.480    -2358634.111 5    449710.24421         8.250           0.344
  23121430.542    -5686486.369 6  -4431026.45021        15.000           0.688
  21352340.612     3964042.562 6   3088858.07022        18.000           1.563
  20569399.597   -19551119.657 7 -15029278.56523        25.750           3.063
  21638934.761   -14209463.226 7 -10915428.14721        20.000           1.406
 91  5 28 19 27 59.9990000  0  5G16G11G19G 2G 6
  23750138.105    -2335281.131 4    467907.29021         7.250           0.406
  23126045.894    -5662242.507 6  -4412135.17921        15.000           0.656
  21356616.167     3986500.727 6   3106357.90422        16.750           1.594
  20565456.815   -19571841.826 7 -15045425.71623        26.000           3.094
  21632660.019   -14242436.544 6 -10941121.63521        19.750           1.344
 91  5 28 19 28 14.9990000  0  5G16G11G19G 2G 6
  23754595.815    -2311846.650 4    486167.84121         7.000           0.375
  23130685.190    -5637871.523 6  -4393144.85221        15.000           0.688
  21360896.940     4009018.669 6   3123904.32522        17.750           1.594
  20561527.550   -19592487.173 7 -15061513.00623        26.000           3.219
  21626389.519   -14275385.380 6 -10966796.04721        19.500           1.406
 91  5 28 19 28 29.9990000  0  5G16G11G19G 2G 6
  23759066.659    -2288338.388 4    504485.89121         7.250           0.250
  23135347.206    -5613380.941 6  -4374061.34421        15.750           0.656
  21365194.355     4031588.841 6   3141491.43622        17.750           1.563
  20557611.472   -19613063.211 7 -15077546.28223        25.750           3.219
  21620123.558   -14308317.043 6 -10992457.07221        19.000           1.281
 91  5 28 19 28 44.9990000  0  5G16G11G19G 2G 6
  23763560.605    -2264749.164 5    522867.02021         8.000           0.313
  23140028.308    -5588762.853 6  -4354878.45021        15.000           0.625
  21369500.394     4054219.490 6   3159125.67722        18.250           1.688
  20553711.378   -19633561.758 7 -15093519.17723        26.000           3.156
  21613860.776   -14341223.325 6 -11018098.32721        19.000           1.406
 91  5 28 19 28 59.9990000  0  5G16G11G19G 2G 6
  23768066.878    -2241078.713 5    541311.45921         8.000           0.281
  23144738.901    -5564017.312 6  -4335596.24221        14.750           0.625
  21373822.011     4076910.844 6   3176807.22522        17.000           1.531
  20549824.628   -19653982.593 7 -15109431.51723        26.250           3.313
  21607605.097   -14374103.806 7 -11043719.48021        20.000           1.406
 91  5 28 19 29 14.9990000  0  5G16G11G19G 2G 6
  23772582.651    -2217331.272 5    559815.88321         8.000           0.344
  23149469.331    -5539148.686 6  -4316218.12121        14.250           0.656
  21378146.839     4099658.901 6   3194532.95222        18.000           1.688
  20545954.245   -19674329.793 7 -15125286.48023        26.250           3.375
  21601352.003   -14406962.629 6 -11069323.75322        19.750           1.531
 91  5 28 19 29 29.9990000  0  5G16G11G19G 2G 6
  23777120.198    -2193505.688 5    578381.21421         8.500           0.281
  23154225.808    -5514155.539 6  -4296742.97021        14.250           0.656
  21382488.253     4122465.273 6   3212304.11522        17.500           1.625
  20542096.480   -19694601.808 7 -15141082.85723        26.250           3.281
  21595104.620   -14439797.885 6 -11094909.66021        19.250           1.438
 91  5 28 19 29 44.9990000  0  5G16G11G19G 2G 6
  23781666.003    -2169593.517 5    597014.01821         7.500           0.250
  23159008.448    -5489029.341 6  -4277164.14421        14.000           0.688
  21386838.480     4145338.683 6   3230127.52422        18.250           1.594
  20538253.995   -19714789.721 7 -15156813.70223        26.500           3.344
  21588860.659   -14472600.744 6 -11120470.32422        19.500           1.531
 91  5 28 19 29 59.9990000  0  5G16G11G19G 2G 6
  23786232.237    -2145596.422 5    615712.97621         7.750           0.281
  23163813.214    -5463771.986 6  -4257483.12221        14.000           0.719
  21391207.448     4168277.500 6   3248001.89422        17.250           1.625
  20534428.433   -19734895.235 7 -15172480.34323        26.500           3.188
  21582625.425   -14505372.550 7 -11146006.79121        20.250           1.469
 91  5 28 19 30 14.9990000  0  5G16G11G19G 2G 6
  23790815.855    -2121523.490 5    634471.03721         8.000           0.313
  23168645.534    -5438392.101 6  -4237706.63321        14.250           0.656
  21395580.378     4191273.505 6   3265920.83522        17.500           1.688
  20530616.683   -19754926.777 7 -15188089.34523        26.000           3.219
  21576393.644   -14538121.892 7 -11171525.75321        20.000           1.406
 91  5 28 19 30 29.9990000  0  5G16G11G19G 2G 6
  23795413.855    -2097373.140 5    653289.44021         8.000           0.281
  23173498.550    -5412888.064 6  -4217833.40421        14.250           0.563
  21399968.839     4214328.608 6   3283885.81422        16.750           1.625
  20526819.448   -19774882.532 7 -15203639.28923        26.000           3.188
  21570164.901   -14570846.553 6 -11197025.48421        19.500           1.281
 91  5 28 19 30 44.9990000  0  5G16G11G19G 2G 6
  23800019.440    -2073147.380 4    672166.58221         7.250           0.406
  23178373.651    -5387261.845 6  -4197864.95921        14.500           0.656
  21404365.894     4237441.106 6   3301895.51922        17.750           1.563
  20523036.417   -19794764.194 7 -15219131.49723        26.500           2.969
  21563943.964   -14603548.050 7 -11222507.16621        20.000           1.438
 91  5 28 19 30 59.9990000  0  5G16G11G19G 2G 6
  23804645.011    -2048844.452 4    691103.86821         6.750           0.219
  23183275.394    -5361511.821 6  -4177800.05221        14.500           0.688
  21408773.128     4260612.903 6   3319951.43022        17.500           1.719
  20519267.651   -19814569.899 7 -15234564.51323        27.000           3.281
  21557725.526   -14636224.495 7 -11247969.32021        20.250           1.375
 91  5 28 19 31 14.9990000  0  5G16G11G19G 2G 6
  23809285.417    -2024463.906 4    710101.61421         6.750           0.156
  23188197.964    -5335637.548 6  -4157638.30721        14.000           0.625
  21413195.534     4283844.759 6   3338054.14422        17.750           1.531
  20515512.573   -19834298.871 7 -15249937.73723        27.000           3.219
  21551511.331   -14668875.025 6 -11273411.28521        19.500           1.406
 91  5 28 19 31 29.9990000  0  5G16G11G19G 2G 6
  23813938.347    -2000014.131 5    729153.32121         7.500           0.281
  23193143.581    -5309647.134 6  -4137386.06821        13.750           0.688
  21417627.175     4307128.691 6   3356197.43922        17.500           1.531
  20511772.097   -19853958.828 7 -15265257.18423        27.000           3.313
  21545301.276   -14701507.366 6 -11298839.07621        19.500           1.406
 91  5 28 19 31 44.9990000  0  5G16G11G19G 2G 6
  23818605.190    -1975485.847 5    748266.23621         7.500           0.188
  23198113.503    -5283531.183 6  -4117036.02921        14.000           0.500
  21422070.128     4330474.367 6   3374388.84322        17.250           1.563
  20508045.222   -19873540.299 7 -15280515.47223        26.750           3.281
  21539096.894   -14734111.768 6 -11324245.09921        19.500           1.406
 91  5 28 19 31 59.9990000  0  5G16G11G19G 2G 6
  23823291.862    -1950874.404 5    767443.91321         8.000           0.250
  23203109.198    -5257284.848 6  -4096584.37621        14.000           0.688
  21426525.581     4353886.774 6   3392632.24722        16.750           1.563
  20504335.050   -19893038.175 7 -15295708.62623        26.750           3.344
  21532899.948   -14766683.216 6 -11349625.44221        19.750           1.438
 91  5 28 19 32 14.9990000  0  5G16G11G19G 2G 6
  23827988.972    -1926186.080 5    786681.50121         7.750           0.250
  23208126.769    -5230914.458 6  -4076036.05921        13.500           0.625
  21430992.464     4377359.996 6   3410923.03722        17.500           1.500
  20500639.206   -19912458.605 7 -15310841.42923        26.750           3.219
  21526706.112   -14799227.394 6 -11374984.53121        19.500           1.375
 91  5 28 19 32 29.9990000  0  5G16G11G19G 2G 6
  23832701.589    -1901420.610 4    805979.21021         6.750           0.406
  23213166.644    -5204419.710 6  -4055390.83621        13.000           0.625
  21435470.847     4400894.605 6   3429261.66522        17.250           1.531
  20496959.159   -19931801.309 7 -15325913.66423        27.750           3.188
  21520518.050   -14831743.806 6 -11400321.99721        19.000           1.438
 91  5 28 19 32 44.9990000  0  5G16G11G19G 2G 6
  23837424.620    -1876576.764 4    825337.96821         6.250           0.188
  23218234.800    -5177799.212 6  -4034647.62321        13.750           0.594
  21439960.230     4424492.340 6   3447649.47422        17.500           1.563
  20493293.417   -19951064.472 7 -15340923.92523        27.750           3.313
  21514336.003   -14864230.715 6 -11425636.45621        18.750           1.375
 91  5 28 19 32 59.9990000  0  5G16G11G19G 2G 6
  23842167.331    -1851656.211 3    844756.51321         5.500           0.250
  23223323.362    -5151054.753 6  -4013807.79221        13.750           0.625
  21444465.339     4448151.569 6   3466085.20422        16.500           1.563
  20489642.081   -19970249.528 7 -15355873.31723        27.500           3.313
  21508160.745   -14896689.285 6 -11450928.84521        19.000           1.406
 91  5 28 19 33 14.9990000  0  5G16G11G19G 2G 6
  23846925.776    -1826662.321 3    864232.17721         5.750           0.156
  23228435.769    -5124189.431 6  -3992873.79021        14.500           0.625
  21448975.183     4471869.574 6   3484566.73822        17.250           1.625
  20486006.581   -19989359.168 8 -15370763.94423        28.000           3.281
  21501987.237   -14929122.276 6 -11476201.30021        18.500           1.375
 91  5 28 19 33 29.9990000  0  5G16G11G19G 2G 6
  23851694.995    -1801594.172 4    883765.71921         6.250           0.219
  23233571.933    -5097202.228 6  -3971844.82821        14.500           0.688
  21453501.581     4495647.651 6   3503095.07422        16.750           1.531
  20482383.386   -20008392.322 7 -15385594.97323        27.750           3.344
  21495819.933   -14961528.339 6 -11501452.77021        18.250           1.406
 91  5 28 19 33 44.9990000  0  4G11G19G 2G 6
  23238731.284    -5070095.272 6  -3950722.54121        15.000           0.563
  21458038.230     4519484.040 6   3521668.84822        17.500           1.531
  20478776.214   -20027350.701 7 -15400367.73323        27.750           3.156
  21489658.909   -14993909.120 6 -11526684.53421        18.750           1.406
 91  5 28 19 33 59.9990000  0  4G11G19G 2G 6
  23243913.448    -5042867.979 6  -3929506.50121        15.000           0.563
  21462586.612     4543379.397 6   3540288.57222        17.000           1.594
  20475183.503   -20046233.733 7 -15415081.78423        27.000           3.219
  21483503.308   -15026263.813 6 -11551895.96921        19.250           1.375
 91  5 28 19 34 14.9990000  0  4G11G19G 2G 6
  23249117.730    -5015516.735 6  -3908193.88721        14.500           0.688
  21467143.980     4567337.688 6   3558957.33622        17.250           1.531
  20471605.073   -20065037.293 7 -15429733.90923        26.750           3.125
  21477351.784   -15058588.340 6 -11577083.90621        19.000           1.406
 91  5 28 19 34 29.9990000  0  4G11G19G 2G 6
  23254346.831    -4988031.882 6  -3886777.16621        14.500           0.531
  21471719.112     4591368.893 6   3577682.92022        17.500           1.625
  20468044.144   -20083751.677 7 -15444316.54823        27.000           3.188
  21471207.097   -15090872.653 6 -11602240.50022        19.250           1.500
 91  5 28 19 34 44.9990000  0  4G11G19G 2G 6
  23259599.901    -4960434.779 6  -3865272.96321        14.250           0.594
  21476300.683     4615452.159 6   3596449.07322        17.750           1.563
  20464494.698   -20102397.915 7 -15458846.08623        26.500           3.344
  21465067.105   -15123137.712 6 -11627382.10122        19.250           1.531
 91  5 28 19 34 59.9990000  0  4G11G19G 2G 6
  23264872.003    -4932713.378 6  -3843671.89821        14.000           0.469
  21480896.792     4639599.710 6   3615265.30722        17.500           1.594
  20460962.065   -20120963.563 7 -15473312.82723        27.250           3.406
  21458934.026   -15155370.901 6 -11652498.86221        19.250           1.375
 91  5 28 19 35 14.9990000  0  4G11G19G 2G 6
  23270169.347    -4904879.724 6  -3821983.39621        13.500           0.531
  21485500.269     4663799.543 6   3634122.29422        17.250           1.531
  20457442.870   -20139460.597 7 -15487726.10523        27.750           3.281
  21452803.058   -15187584.134 6 -11677600.07421        19.000           1.469
 91  5 28 19 35 29.9990000  0  4G11G19G 2G 6
  23275487.948    -4876928.948 6  -3800203.63121        13.750           0.625
  21490119.011     4688057.048 6   3653024.20922        16.000           1.531
  20453937.081   -20157883.698 8 -15502081.76823        28.000           3.313
  21446677.769   -15219771.995 6 -11702681.51922        19.000           1.563
 91  5 28 19 35 44.9990000  0  4G11G19G 2G 6
  23280830.753    -4848854.988 6  -3778327.86021        13.500           0.594
  21494744.058     4712378.511 6   3671975.96922        17.000           1.563
  20450446.323   -20176226.750 8 -15516375.05823        28.000           3.344
  21440559.980   -15251928.159 6 -11727738.26021        19.000           1.469
 91  5 28 19 35 59.9990000  0  4G11G19G 2G 6
  23286197.175    -4820658.374 6  -3756356.51521        13.000           0.625
  21499382.659     4736763.588 6   3690977.29022        16.750           1.625
  20446971.136   -20194490.066 8 -15530606.21623        28.500           3.219
  21434447.386   -15284052.807 6 -11752770.44121        18.250           1.469
 91  5 28 19 36 14.9990000  0  4G11G19G 2G 6
  23291583.706    -4792341.598 6  -3734291.53721        13.500           0.688
  21504036.097     4761210.150 6   3710026.52522        17.250           1.563
  20443509.956   -20212675.786 7 -15544776.91123        27.500           3.156
  21428339.409   -15316147.679 6 -11777779.42321        19.250           1.344
 91  5 28 19 36 29.9990000  0  4G11G19G 2G 6
  23296998.026    -4763906.508 6  -3712134.38821        13.750           0.531
  21508699.308     4785716.585 6   3729122.42122        17.000           1.594
  20440063.190   -20230785.527 7 -15558888.40323        27.000           3.281
  21422235.605   -15348214.424 6 -11802766.49021        19.250           1.281
 91  5 28 19 36 44.9990000  0  4G11G19G 2G 6
  23302428.847    -4735349.757 6  -3689882.38721        13.500           0.656
  21513374.769     4810286.615 6   3748267.86422        17.000           1.500
  20436633.487   -20248815.673 7 -15572937.86423        27.250           3.250
  21416140.214   -15380249.385 6 -11827728.78421        19.250           1.375
 91  5 28 19 36 59.9990000  0  4G11G19G 2G 6
  23307887.222    -4706666.257 6  -3667531.65021        13.500           0.500
  21518065.659     4834925.497 6   3767466.97322        16.750           1.531
  20433217.433   -20266760.774 7 -15586921.05823        27.250           3.313
  21410051.464   -15412246.950 6 -11852661.94321        19.250           1.469
 91  5 28 19 37 14.9990000  0  4G11G19G 2G 6
  23313370.042    -4677863.616 6  -3645088.06821        13.000           0.531
  21522764.706     4859626.258 6   3786714.28522        16.250           1.500
  20429818.597   -20284627.976 8 -15600843.55123        28.250           3.219
  21403968.323   -15444213.939 6 -11877571.27922        19.250           1.531
 91  5 28 19 37 29.9990000  0  4G11G19G 2G 6
  23318872.222    -4648943.104 6  -3622552.65421        13.250           0.656
  21527477.972     4884387.672 6   3806008.85622        16.500           1.563
  20426432.925   -20302418.467 8 -15614706.27523        28.500           3.188
  21397891.526   -15476151.674 6 -11902457.81522        19.500           1.594
 91  5 28 19 37 44.9990000  0  4G11G19G 2G 6
  23324397.175    -4619902.438 6  -3599923.61221        13.250           0.625
  21532201.308     4909212.235 6   3825352.63621        16.500           1.438
  20423062.792   -20320129.804 8 -15628507.31923        29.000           3.156
  21391819.909   -15508057.233 6 -11927319.27621        19.000           1.469
 91  5 28 19 37 59.9990000  0  4G11G19G 2G 6
  23329948.815    -4590744.580 6  -3577203.25321        13.250           0.594
  21536936.565     4934097.376 6   3844743.62522        16.750           1.531
  20419706.589   -20337764.672 8 -15642248.77523        28.250           2.969
  21385752.651   -15539933.452 6 -11952157.87422        19.000           1.625
 91  5 28 19 38 14.9990000  0  4G11G19G 2G 6
  23335518.745    -4561473.153 6  -3554394.40321        13.250           0.625
  21541682.058     4959039.727 6   3864179.19122        16.500           1.563
  20416365.222   -20355326.522 8 -15655933.33523        28.000           2.938
  21379692.784   -15571783.497 6 -11976976.08122        19.500           1.625
 91  5 28 19 38 29.9980000  0  4G11G19G 2G 6
  23341109.498    -4532093.609 6  -3531501.28621        12.500           0.594
  21546439.818     4984034.465 6   3883655.57622        15.750           1.594
  20413035.959   -20372817.332 7 -15669562.53923        27.750           3.031
  21373637.147   -15603608.134 6 -12001774.49222        19.500           1.531
 91  5 28 19 38 44.9980000  0  4G11G19G 2G 6
  23346722.092    -4502601.399 6  -3508520.39821        12.750           0.531
  21551205.881     5009085.895 6   3903176.14422        16.500           1.563
  20409719.959   -20390238.497 7 -15683137.47223        27.250           3.000
  21367584.545   -15635410.612 7 -12026555.63622        20.250           1.688
 91  5 28 19 38 59.9980000  0  4G11G19G 2G 6
  23352354.857    -4472991.724 6  -3485447.97421        12.250           0.563
  21555989.232     5034199.407 6   3922745.08522        15.250           1.563
  20406421.342   -20407581.880 7 -15696651.79323        27.750           3.156
  21361539.553   -15667181.715 7 -12051312.32822        20.000           1.656
 91  5 28 19 39 14.9980000  0  4G11G19G 2G 6
  23358009.842    -4443267.166 6  -3462286.07421        12.000           0.500
  21560775.537     5059372.621 6   3942360.53822        16.250           1.563
  20403134.365   -20424849.769 8 -15710107.29323        28.000           3.063
  21355499.115   -15698923.487 7 -12076046.15622        20.250           1.563
 91  5 28 19 39 29.9980000  0  4G11G19G 2G 6
  23363689.115    -4413432.200 6  -3439038.12421        12.750           0.563
  21565580.272     5084601.254 6   3962019.18122        15.500           1.563
  20399862.693   -20442046.351 8 -15723507.22523        28.250           3.063
  21349464.381   -15730640.059 7 -12100760.35822        20.500           1.531
 91  5 28 19 39 44.9980000  0  4G11G19G 2G 6
  23369386.350    -4383484.421 6  -3415702.19921        12.250           0.469
  21570388.670     5109887.953 6   3981723.06622        16.500           1.563
  20396604.686   -20459168.974 8 -15736849.52223        28.750           3.000
  21343434.037   -15762328.581 7 -12125452.70022        20.500           1.531
 91  5 28 19 39 59.9980000  0  4G11G19G 2G 6
  23375106.756    -4353422.919 6  -3392277.74321        12.250           0.438
  21575212.795     5135234.279 6   4001473.41622        15.750           1.500
  20393359.779   -20476216.315 8 -15750133.16623        28.500           2.875
  21337408.686   -15793987.508 7 -12150121.98421        20.250           1.469
 91  5 28 19 40 14.9980000  0  4G11G19G 2G 6
  23380852.022    -4323244.053 6  -3368761.83221        12.250           0.438
  21580045.818     5160644.091 6   4021273.23422        16.000           1.500
  20390130.834   -20493184.664 8 -15763355.25523        28.250           2.875
  21331391.482   -15825612.955 7 -12174765.17622        20.000           1.563
 91  5 28 19 40 29.9980000  0  4G11G19G 2G 6
  23386617.811    -4292949.928 6  -3345156.10421        13.000           0.531
  21584897.537     5186115.434 6   4041120.99922        15.000           1.531
  20386916.459   -20510075.862 7 -15776517.22923        27.750           2.938
  21325379.654   -15857206.783 7 -12199383.72822        20.500           1.563
 91  5 28 19 40 44.9980000  0  4G11G19G 2G 6
  23392404.201    -4262542.905 6  -3321462.40721        12.500           0.531
  21589752.717     5211646.322 6   4061015.17121        16.000           1.406
  20383716.373   -20526892.076 8 -15789620.77623        28.500           2.844
  21319372.342   -15888770.670 7 -12223978.95422        20.000           1.531
 91  5 28 19 40 59.9980000  0  4G11G19G 2G 6
  23398208.936    -4232027.398 6  -3297684.15921        12.500           0.406
  21594623.522     5237232.620 6   4080952.51421        16.000           1.281
  20380531.022   -20543637.478 8 -15802669.14623        28.250           2.844
  21313370.967   -15920308.650 7 -12248553.99122        20.250           1.656
 91  5 28 19 41 14.9980000  0  4G11G19G 2G 6
  23404036.725    -4201397.123 5  -3273816.45421        11.750           0.469
  21599501.912     5262881.025 6   4100938.25921        16.000           1.375
  20377358.654   -20560305.369 8 -15815657.11423        28.750           2.844
  21307376.740   -15951814.127 7 -12273103.70122        20.000           1.719
 91  5 28 19 41 29.9980000  0  4G11G19G 2G 6
  23409888.631    -4170647.384 5  -3249855.71921        11.500           0.531
  21604400.506     5288596.558 6   4120976.30621        14.750           1.438
  20374202.904   -20576890.575 8 -15828580.65123        28.750           3.031
  21301388.014   -15983281.789 7 -12297623.95622        20.000           1.656
 91  5 28 19 41 44.9980000  0  4G11G19G 2G 6
  23415763.475    -4139789.036 6  -3225810.32021        12.250           0.375
  21609299.092     5314368.466 6   4141058.27322        15.250           1.500
  20371061.561   -20593403.918 8 -15841448.19123        29.250           3.094
  21295403.709   -16014722.073 7 -12322122.86822        20.000           1.656
 91  5 28 19 41 59.9980000  0  4G11G19G 2G 6
  23421656.506    -4108820.986 6  -3201679.44421        12.250           0.563
  21614217.256     5340198.088 6   4161185.21222        15.000           1.531
  20367931.576   -20609844.193 8 -15854258.79623        29.250           3.031
  21289427.662   -16046133.715 6 -12346599.46322        19.750           1.719
 91  5 28 19 42 14.9980000  0  4G11G19G 2G 6
  23427569.412    -4077740.320 6  -3177460.79221        12.250           0.438
  21619141.248     5366088.548 6   4181359.57121        15.250           1.375
  20364819.264   -20626208.010 8 -15867009.82323        29.000           3.000
  21283455.709   -16077513.209 7 -12371051.00822        20.500           1.813
 91  5 28 19 42 29.9980000  0  4G11G19G 2G 6
  23433505.193    -4046549.112 6  -3153156.00921        12.250           0.375
  21624079.654     5392038.338 6   4201580.15221        14.500           1.406
  20361717.357   -20642497.161 8 -15879702.67323        28.250           2.906
  21277491.553   -16108862.058 7 -12395478.67422        20.750           1.750
 91  5 28 19 42 44.9980000  0  4G11G19G 2G 6
  23439462.248    -4015240.448 6  -3128759.78321        12.250           0.594
  21629028.764     5418054.752 6   4221852.64621        15.000           1.438
  20358633.865   -20658704.465 7 -15892331.74023        27.750           2.938
  21271532.178   -16140173.015 7 -12419876.81422        20.250           1.813
 91  5 28 19 42 59.9980000  0  4G11G19G 2G 6
  23445443.014    -3983817.294 6  -3104274.24421        12.000           0.375
  21633992.943     5444134.815 6   4242174.74022        14.750           1.563
  20355564.334   -20674832.923 7 -15904899.37023        27.750           3.000
  21265579.639   -16171448.677 7 -12444247.44722        20.500           1.906
 91  5 28 19 43 14.9980000  0  4G11G19G 2G 6
  23451444.553    -3952283.286 6  -3079702.34521        12.000           0.438
  21638967.482     5470275.503 6   4262544.07021        15.250           1.438
  20352509.795   -20690885.445 7 -15917407.83123        27.750           2.969
  21259635.482   -16202692.139 7 -12468592.99322        20.500           1.781
 91  5 28 19 43 29.9980000  0  4G11G19G 2G 6
  23457465.959    -3920636.492 5  -3055042.55221        11.000           0.531
  21643952.623     5496478.744 6   4282962.14021        15.250           1.438
  20349469.623   -20706860.094 8 -15929855.61023        28.500           2.906
  21253696.654   -16233901.149 7 -12492911.69422        20.500           1.813
 91  5 28 19 43 44.9980000  0  4G11G19G 2G 6
  23463506.412    -3888886.510 5  -3030302.36921        11.000           0.375
  21648950.279     5522735.388 6   4303421.82422        15.000           1.563
  20346442.951   -20722766.037 8 -15942249.85923        28.750           3.000
  21247762.217   -16265084.789 7 -12517210.62822        20.750           1.938
 91  5 28 19 43 59.9980000  0  4G11G19G 2G 6
  23469570.592    -3857025.589 5  -3005475.70321        11.250           0.375
  21653960.436     5549053.413 6   4323929.34322        15.250           1.563
  20343430.803   -20738595.296 8 -15954584.34823        28.500           3.063
  21241834.397   -16296234.882 7 -12541483.41522        21.000           1.781
 91  5 28 19 44 14.9980000  0  4G11G19G 2G 6
  23475654.514    -3825056.088 5  -2980564.44821        11.000           0.469
  21658978.334     5575430.962 6   4344483.24522        15.500           1.500
  20340432.170   -20754349.841 7 -15966860.61623        27.750           3.063
  21235913.936   -16327353.171 7 -12565731.42322        20.750           1.938
 91  5 28 19 44 29.9980000  0  4G11G19G 2G 6
  23481757.662    -3792975.065 5  -2955566.34621        11.250           0.406
  21664011.717     5601871.393 6   4365086.14521        15.000           1.281
  20337449.170   -20770026.610 8 -15979076.27323        28.000           3.094
  21229998.256   -16358436.153 7 -12589951.92022        20.750           1.844
 91  5 28 19 44 44.9980000  0  4G11G19G 2G 6
  23487882.436    -3760783.490 5  -2930482.02521        10.750           0.469
  21669053.279     5628373.797 6   4385737.34021        14.750           1.344
  20334481.287   -20785626.339 8 -15991231.90523        28.500           3.188
  21224091.147   -16389484.746 7 -12614145.62422        21.250           1.906
 91  5 28 19 44 59.9980000  0  4G11G19G 2G 6
  23494031.217    -3728484.085 5  -2905313.69821        11.000           0.500
  21674108.381     5654935.823 6   4406434.97821        14.000           1.219
  20331528.248   -20801151.508 8 -16003329.44123        29.500           3.125
  21218187.029   -16420500.995 7 -12638314.11922        20.750           1.750
 91  5 28 19 45 14.9980000  0  4G11G19G 2G 6
  23500197.709    -3696075.039 5  -2880059.96721        10.750           0.438
  21679174.225     5681559.646 6   4427180.77721        14.750           1.281
  20328587.561   -20816600.034 8 -16015367.25823        29.000           2.969
  21212291.115   -16451482.806 7 -12662455.77822        20.500           1.750
 91  5 28 19 45 29.9980000  0  4G11G19G 2G 6
  23506385.537    -3663559.775 5  -2854723.45121        11.250           0.406
  21684256.006     5708242.134 6   4447972.29121        14.000           1.250
  20325662.670   -20831975.045 8 -16027347.78323        29.000           3.063
  21206401.154   -16482432.969 7 -12686572.78822        20.000           1.750
 91  5 28 19 45 44.9980000  0  4G11G19G 2G 6
  23512595.928    -3630938.469 6  -2829304.30521        12.250           0.438
  21689339.818     5734983.294 6   4468809.51921        15.000           1.250
  20322749.772   -20847276.259 8 -16039270.80823        28.500           3.000
  21200517.389   -16513351.246 7 -12710664.94722        20.250           1.688
 91  5 28 19 45 59.9980000  0  4G11G19G 2G 6
  23518822.022    -3598210.713 6  -2803802.24321        12.250           0.500
  21694441.217     5761783.752 6   4489692.95721        14.500           1.219
  20319852.693   -20862503.282 8 -16051136.01523        29.250           3.094
  21194641.553   -16544236.974 6 -12734731.73422        19.750           1.719
 91  5 28 19 46 14.9980000  0  4G11G19G 2G 6
  23525067.186    -3565392.160 6  -2778229.39021        12.250           0.531
  21699548.537     5788628.207 6   4510610.67021        15.250           1.250
  20316965.647   -20877671.160 8 -16062955.14823        29.250           3.125
  21188766.076   -16575105.169 6 -12758784.87022        19.750           1.750
 91  5 28 19 46 29.9980000  0  4G11G19G 2G 6
  23531333.897    -3532462.976 6  -2752570.33621        12.000           0.438
  21704670.068     5815537.066 6   4531578.57921        14.500           1.219
  20314093.709   -20892759.779 8 -16074712.51023        28.500           3.094
  21182900.443   -16605935.545 7 -12782808.53722        20.250           1.938
 91  5 28 19 46 44.9980000  0  4G11G19G 2G 6
  23537620.147    -3499431.674 6  -2726831.70721        12.000           0.406
  21709801.772     5842501.958 6   4552590.15221        15.500           1.344
  20311236.631   -20907777.528 7 -16086414.64823        27.500           3.125
  21177040.748   -16636736.039 7 -12806808.91022        21.000           1.781
 91  5 28 19 46 59.9980000  0  4G11G19G 2G 6
  23543926.381    -3466290.785 6  -2701007.70321        12.000           0.469
  21714946.279     5869530.649 6   4573651.43521        15.250           1.219
  20308392.998   -20922716.710 7 -16098055.56623        27.500           3.125
  21171186.428   -16667498.840 7 -12830779.91622        20.750           1.781
 91  5 28 19 47 14.9980000  0  4G11G19G 2G 6
  23550254.615    -3433043.067 6  -2675100.43221        12.000           0.469
  21720099.561     5896620.616 6   4594760.46821        15.750           1.281
  20305564.115   -20937579.764 7 -16109637.16223        27.250           3.188
  21165339.186   -16698226.272 7 -12854723.36722        20.750           1.844
 91  5 28 19 47 29.9980000  0  4G11G19G 2G 6
  23556598.693    -3399695.957 6  -2649115.74021        12.250           0.469
  21725265.779     5923764.826 6   4615911.76621        15.250           1.375
  20302749.662   -20952373.690 8 -16121164.89023        28.750           3.219
  21159496.607   -16728925.181 7 -12878644.58822        20.250           1.875
 91  5 28 19 47 44.9980000  0  4G11G19G 2G 6
  23562964.818    -3366244.729 6  -2623049.93621        12.000           0.438
  21730440.068     5950968.337 6   4637109.27221        15.250           1.313
  20299949.764   -20967093.676 8 -16132635.01023        29.750           3.125
  21153660.756   -16759590.443 6 -12902539.58422        19.750           1.875
 91  5 28 19 47 59.9980000  0  4G11G19G 2G 6
  23569349.506    -3332688.877 5  -2596902.60121        11.500           0.500
  21735632.373     5978231.906 6   4658353.57021        14.000           1.250
  20297162.217   -20981739.042 8 -16144046.98623        30.250           3.219
  21147831.568   -16790221.150 6 -12926407.65922        19.500           1.906
 91  5 28 19 48 14.9980000  0  4G11G19G 2G 6
  23575756.920    -3299026.844 5  -2570672.49421        11.500           0.406
  21740830.256     6005557.490 6   4679646.19521        15.000           1.313
  20294389.982   -20996307.950 8 -16155399.38523        30.000           3.281
  21142009.959   -16820815.212 7 -12950247.17422        20.250           1.969
 91  5 28 19 48 29.9980000  0  4G11G19G 2G 6
  23582180.764    -3265265.648 5  -2544365.13421        11.250           0.500
  21746038.607     6032938.318 6   4700981.86721        15.250           1.438
  20291630.584   -21010806.848 8 -16166697.22823        29.000           3.188
  21136194.217   -16851379.128 7 -12974063.21222        20.500           1.969
 91  5 28 19 48 44.9980000  0  4G11G19G 2G 6
  23588623.162    -3231407.149 5  -2517981.91421        11.250           0.344
  21751260.186     6060372.916 6   4722359.43621        15.250           1.281
  20288884.256   -21025237.291 8 -16177941.73123        28.750           3.250
  21130383.014   -16881914.420 7 -12997856.93822        20.000           1.938
 91  5 28 19 48 59.9980000  0  4G11G19G 2G 6
  23595084.529    -3197446.623 5  -2491519.23621        11.000           0.469
  21756492.951     6087866.330 6   4743782.83521        15.000           1.250
  20286152.529   -21039594.497 8 -16189129.16223        29.000           3.375
  21124576.998   -16912415.766 6 -13021624.21122        19.750           1.969
 91  5 28 19 49 14.9980000  0  4G11G19G 2G 6
  23601565.607    -3163387.791 5  -2464979.97021        10.750           0.500
  21761733.772     6115414.956 6   4765249.27021        15.250           1.250
  20283433.498   -21053881.949 8 -16200262.24323        28.500           3.188
  21118780.397   -16942886.482 7 -13045367.61522        20.250           2.125
 91  5 28 19 49 29.9980000  0  4G11G19G 2G 6
  23608065.029    -3129231.615 5  -2438364.78921        11.250           0.500
  21766988.107     6143018.091 6   4786758.17421        14.750           1.281
  20280728.740   -21068100.222 8 -16211341.41523        28.750           3.156
  21112987.287   -16973327.205 7 -13069087.64722        20.250           2.000
 91  5 28 19 49 44.9980000  0  4G11G19G 2G 6
  23614584.662    -3094967.071 5  -2411665.16321        10.750           0.406
  21772252.920     6170687.352 6   4808318.60321        15.250           1.313
  20278037.732   -21082237.938 8 -16222357.82623        29.500           3.031
  21107201.756   -17003726.108 7 -13092775.09522        20.000           2.125
 91  5 28 19 49 59.9980000  0  4G11G19G 2G 6
  23621126.123    -3060598.893 5  -2384884.85521        10.500           0.531
  21777531.131     6198418.319 6   4829927.11821        14.750           1.313
  20275362.725   -21096299.466 8 -16233314.86623        29.750           3.094
  21101425.264   -17034087.582 7 -13116433.37922        20.000           1.969
 91  5 28 19 50 14.9980000  0  4G11G19G 2G 6
  23627684.553    -3026130.846 5  -2358026.70921        10.500           0.406
  21782816.451     6226207.373 6   4851580.89021        14.500           1.313
  20272700.803   -21110288.384 8 -16244215.32623        30.000           3.094
  21095654.272   -17064414.843 7 -13140065.00422        20.500           1.969
 91  5 28 19 50 29.9980000  0  4G11G19G 2G 6
  23634261.397    -2991565.281 5  -2331092.56321        10.750           0.469
  21788116.537     6254052.414 6   4873278.28321        15.000           1.375
  20270051.842   -21124206.840 8 -16255060.87823        30.000           3.125
  21089890.068   -17094709.930 7 -13163671.55722        20.500           1.844
 91  5 28 19 50 44.9980000  0  4G11G19G 2G 6
  23640862.068    -2956898.558 5  -2304079.59221        11.250           0.469
  21793426.295     6281957.715 6   4895022.64121        14.750           1.438
  20267417.717   -21138050.793 8 -16265848.37623        30.250           3.063
  21084132.623   -17124968.599 7 -13187249.74022        20.250           1.875
 91  5 28 19 50 59.9980000  0  4G11G19G 2G 6
  23647477.303    -2922128.998 5  -2276986.50321        11.750           0.438
  21798749.498     6309925.164 6   4916815.43121        15.000           1.469
  20264798.607   -21151818.189 8 -16276576.21923        29.250           3.125
  21078381.584   -17155188.741 7 -13210797.89922        21.000           1.875
 91  5 28 19 51 14.9980000  0  4G11G19G 2G 6
  23654113.115    -2887263.470 5  -2249818.60121        11.500           0.438
  21804080.334     6337948.094 6   4938651.44921        14.750           1.406
  20262190.850   -21165515.823 8 -16287249.70023        29.500           2.969
  21072636.545   -17185376.773 7 -13234321.03722        20.500           1.875
 91  5 28 19 51 29.9980000  0  4G11G19G 2G 6
  23660765.717    -2852299.746 5  -2222574.15821        11.000           0.438
  21809429.014     6366028.979 6   4960532.62421        14.250           1.375
  20259598.381   -21179141.235 8 -16297866.90323        29.250           3.000
  21066898.881   -17215530.030 7 -13257817.07322        20.750           1.813
 91  5 28 19 51 44.9980000  0  4G11G19G 2G 6
  23667434.779    -2817236.624 5  -2195252.29521        10.250           0.406
  21814780.623     6394169.285 6   4982460.10021        14.750           1.375
  20257019.490   -21192692.860 8 -16308426.60923        29.500           3.000
  21061167.428   -17245646.725 7 -13281284.62722        21.250           1.938
 91  5 28 19 51 59.9980000  0  4G11G19G 2G 6
  23674126.764    -2782075.935 5  -2167854.39821        10.250           0.438
  21820150.725     6422367.523 6   5004432.71321        14.000           1.375
  20254454.443   -21206172.138 8 -16318929.94223        29.500           2.875
  21055442.529   -17275728.272 7 -13304724.77922        21.250           1.844
 91  5 28 19 52 14.9980000  0  4G11G19G 2G 6
  23680839.365    -2746819.560 5  -2140382.00221        10.500           0.375
  21825522.123     6450622.352 6   5026449.42421        14.500           1.313
  20251902.662   -21219580.685 8 -16329378.16123        29.750           2.938
  21049725.068   -17305775.907 7 -13328138.52022        21.250           1.844
 91  5 28 19 52 29.9980000  0  4G11G19G 2G 6
  23687564.826    -2711472.242 5  -2112838.69821        11.250           0.406
  21830910.639     6478929.237 6   5048506.70221        14.500           1.375
  20249363.584   -21232922.992 8 -16339774.76423        29.250           2.938
  21044013.303   -17335793.985 7 -13351529.22922        21.250           1.906
 91  5 28 19 52 44.9980000  0  4G11G19G 2G 6
  23694305.357    -2676033.527 5  -2085224.19621        10.000           0.375
  21836307.326     6507288.983 6   5070605.17821        15.250           1.219
  20246837.584   -21246198.369 8 -16350119.21323        30.250           2.781
  21038306.053   -17365781.580 7 -13374896.17822        21.000           1.969
 91  5 28 19 52 59.9980000  0  4G11G19G 2G 6
  23701069.490    -2640497.402 5  -2057533.79721         9.500           0.469
  21841719.162     6535708.078 6   5092749.89221        14.250           1.281
  20244324.990   -21259400.440 8 -16360406.54123        29.500           2.781
  21032606.592   -17395732.166 7 -13398234.28522        21.500           1.875
 91  5 28 19 53 14.9980000  0  4G11G19G 2G 6
  23707848.990    -2604866.322 5  -2029769.36921         9.750           0.438
  21847133.584     6564184.126 6   5114938.99021        15.500           1.281
  20241826.850   -21272531.426 8 -16370638.48123        29.250           2.813
  21026914.311   -17425647.818 7 -13421545.18222        22.000           2.000
 91  5 28 19 53 29.9980000  0  4G11G19G 2G 6
  23714650.061    -2569137.820 5  -2001929.03821         9.750           0.531
  21852565.193     6592720.053 6   5137174.74521        15.250           1.156
  20239341.342   -21285588.284 8 -16380812.65423        28.250           2.875
  21021229.662   -17455525.408 7 -13444826.41522        22.500           1.938
 91  5 28 19 53 44.9980000  0  4G11G19G 2G 6
  23721464.623    -2533312.820 5  -1974013.51421         9.250           0.469
  21858004.647     6621315.084 6   5159456.56121        14.750           1.188
  20236870.889   -21298571.970 8 -16390929.80823        28.750           2.813
  21015550.256   -17485365.465 7 -13468078.40622        22.750           1.844
 91  5 28 19 53 59.9980000  0  4G11G19G 2G 6
  23728301.772    -2497397.813 5  -1946027.85021         9.500           0.406
  21863459.357     6649963.000 6   5181779.58521        13.750           1.188
  20234413.553   -21311488.635 8 -16400994.73523        29.000           2.969
  21009878.061   -17515174.044 7 -13491305.86522        22.750           1.969
 91  5 28 19 54 14.9980000  0  4G11G19G 2G 6
  23735155.623    -2461384.865 5  -1917965.85721         9.250           0.531
  21868919.936     6678672.078 6   5204150.26421        14.750           1.156
  20231970.256   -21324330.002 8 -16411000.98723        29.250           2.906
  21004212.701   -17544942.635 7 -13514502.16822        22.500           1.938
 91  5 28 19 54 29.9980000  0  4G11G19G 2G 6
  23742024.654    -2425273.767 5  -1889827.40521         9.000           0.469
  21874395.147     6707442.961 6   5226569.10621        14.000           1.156
  20229540.029   -21337095.710 8 -16420948.29023        29.500           2.969
  20998555.357   -17574670.526 7 -13537666.75322        22.250           1.969
 91  5 28 19 54 44.9980000  0  4G11G19G 2G 6
  23748915.998    -2389068.419 5  -1861615.51121         8.750           0.469
  21879880.943     6736272.048 6   5249033.29721        14.500           1.156
  20227125.029   -21349789.266 8 -16430839.37523        29.500           2.906
  20992905.897   -17604361.211 7 -13560802.34722        22.500           2.000
 91  5 28 19 54 59.9980000  0  4G11G19G 2G 6
  23755823.592    -2352768.172 5  -1833329.69121         9.000           0.469
  21885379.818     6765160.317 6   5271543.60521        13.750           1.219
  20224723.318   -21362409.750 8 -16440673.52223        29.750           2.906
  20987263.318   -17634013.433 7 -13583907.97322        23.000           1.969
 91  5 28 19 55 14.9980000  0  4G11G19G 2G 6
  23762747.264    -2316375.292 5  -1804971.61521         8.750           0.344
  21890886.123     6794105.787 6   5294098.48421        14.250           1.250
  20222334.584   -21374959.249 8 -16450452.35323        29.750           2.938
  20981628.014   -17663629.109 7 -13606985.11622        22.750           1.938
 91  5 28 19 55 29.9980000  0  4G11G19G 2G 6
  23769691.959    -2279886.003 5  -1776538.45721         9.000           0.438
  21896407.162     6823112.554 6   5316701.11721        14.250           1.438
  20219960.545   -21387433.620 8 -16460172.64023        29.500           3.125
  20976001.045   -17693203.840 7 -13630030.36122        22.250           1.938
 91  5 28 19 55 44.9980000  0  4G11G19G 2G 6
  23776654.389    -2243303.466 5  -1748032.61121         9.000           0.375
  21901937.615     6852177.840 6   5339349.35921        14.750           1.250
  20217600.951   -21399835.725 8 -16469836.61923        29.500           3.094
  20970380.678   -17722740.385 7 -13653045.84822        22.250           2.000
 91  5 28 19 55 59.9980000  0  4G11G19G 2G 6
  23783630.904    -2206631.760 5  -1719457.28221         9.000           0.344
  21907477.154     6881297.852 6   5362040.24221        14.500           1.219
  20215254.701   -21412169.289 8 -16479447.19623        30.000           3.063
  20964765.537   -17752242.175 7 -13676034.24922        21.750           1.875
 91  5 28 19 56 14.9980000  0  4G11G19G 2G 6
  23790628.131    -2169867.403 5  -1690809.80821         9.750           0.375
  21913031.045     6910476.328 6   5384776.68221        14.750           1.219
  20212920.459   -21424430.513 8 -16489001.39623        29.750           3.031
  20959157.428   -17781705.234 7 -13698992.47522        21.500           1.844
 91  5 28 19 56 29.9980000  0  4G11G19G 2G 6
  23797643.154    -2133008.639 5  -1662088.73821        10.000           0.375
  21918594.498     6939715.266 6   5407560.23721        14.750           1.219
  20210602.076   -21436617.401 8 -16498497.66923        29.750           3.063
  20953557.928   -17811127.440 7 -13721918.87222        21.250           1.813
 91  5 28 19 56 44.9980000  0  4G11G19G 2G 6
  23804675.373    -2096055.663 5  -1633294.29821         9.750           0.469
  21924170.811     6969014.987 6   5430391.15921        14.500           1.219
  20208297.920   -21448729.765 8 -16507935.87623        29.750           3.063
  20947967.842   -17840508.319 7 -13744813.05622        21.250           1.875
 91  5 28 19 56 59.9980000  0  4G11G19G 2G 6
  23811720.389    -2059020.838 5  -1604436.07921         9.750           0.375
  21929757.451     6998363.367 6   5453259.99121        13.750           1.250
  20206003.897   -21460779.784 8 -16517325.50523        29.750           3.031
  20942384.186   -17869859.894 7 -13767684.40922        21.750           1.875
 91  5 28 19 57 14.9980000  0  4G11G19G 2G 6
  23818787.115    -2021891.423 5  -1575504.13121        10.000           0.313
  21935352.428     7027773.429 6   5476176.89121        13.750           1.219
  20203726.264   -21472754.573 8 -16526656.51023        29.750           3.125
  20936806.357   -17899168.960 7 -13790522.64522        21.750           1.906
 91  5 28 19 57 29.9980000  0  4G11G19G 2G 6
  23825874.357    -1984663.042 5  -1546495.05621        10.250           0.375
  21940963.045     7057249.930 6   5499145.55421        13.750           1.250
  20201462.686   -21484649.209 8 -16535925.06023        29.250           3.094
  20931238.381   -17928430.471 7 -13813323.81522        22.500           1.906
 91  5 28 19 57 44.9980000  0  4G11G19G 2G 6
  23832976.428    -1947340.087 5  -1517412.33021        10.500           0.344
  21946581.834     7086788.732 6   5522162.77121        14.250           1.250
  20199212.975   -21496467.849 8 -16545134.39223        28.750           3.125
  20925677.467   -17957648.415 7 -13836091.03422        22.250           1.844
